[[{"header":{"parameterUnit":"m.s-1","parameterCategory":1,"la1":30.6,"la2":28.766,"lo1":-90.7593,"lo2":-88.6598,"dy":0.0162,"dx":0.0183,"nx":116,"ny":114,"refTime":"2024-02-08T18:00:00:Z","depth":0,"parameterNumber":2,"parameterNumberName":"U-component_of_WINDS"},"data":[0.0,0.0,0.0,0.0,0.0,0.0,0.0,0.0,0.0,0.0,0.0,0.0,0.0,0.0,0.0,0.0,0.0,0.0,0.0,0.0,0.0,0.0,0.0,0.0,0.0,0.0,0.0,0.0,0.0,0.0,0.0,0.0,0.0,0.0,0.0,0.0,0.0,0.0,0.0,0.0,0.0,0.0,0.0,0.0,0.0,0.0,0.0,0.0,0.0,0.0,0.0,0.0,0.0,0.0,0.0,0.0,0.0,0.0,0.0,0.0,0.0,0.0,0.0,0.0,0.0,0.0,0.0,0.0,0.0,0.0,0.0,0.0,0.0,0.0,0.0,0.0,0.0,0.0,0.0,0.0,0.0,0.0,0.0,0.0,0.0,0.0,0.0,0.0,0.0,0.0,0.0,0.0,0.0,0.0,0.0,0.0,0.0,0.0,0.0,0.0,0.0,0.0,0.0,0.0,0.0,0.0,0.0,0.0,0.0,0.0,0.0,0.0,0.0,0.0,0.0,0.0,0.0,0.0,0.0,0.0,0.0,0.0,0.0,0.0,0.0,0.0,0.0,0.0,0.0,0.0,0.0,0.0,0.0,0.0,0.0,0.0,0.0,0.0,0.0,0.0,0.0,0.0,0.0,0.0,0.0,0.0,0.0,0.0,0.0,0.0,0.0,0.0,0.0,0.0,0.0,0.0,0.0,0.0,0.0,0.0,0.0,0.0,0.0,0.0,0.0,0.0,0.0,0.0,0.0,0.0,0.0,0.0,0.0,0.0,0.0,0.0,0.0,0.0,0.0,0.0,0.0,0.0,0.0,0.0,0.0,0.0,0.0,0.0,0.0,0.0,0.0,0.0,0.0,0.0,0.0,0.0,0.0,0.0,0.0,0.0,0.0,0.0,0.0,0.0,0.0,0.0,0.0,0.0,0.0,0.0,0.0,0.0,0.0,0.0,0.0,0.0,0.0,0.0,0.0,0.0,0.0,0.0,0.0,0.0,0.0,0.0,0.0,0.0,0.0,0.0,0.0,0.0,0.0,0.0,0.0,0.0,0.0,0.0,0.0,0.0,0.0,0.0,0.0,0.0,0.0,0.0,0.0,0.0,0.0,0.0,0.0,0.0,0.0,0.0,0.0,0.0,0.0,0.0,0.0,0.0,0.0,0.0,0.0,0.0,0.0,0.0,0.0,0.0,0.0,0.0,0.0,0.0,0.0,0.0,0.0,0.0,0.0,0.0,0.0,0.0,0.0,0.0,0.0,0.0,0.0,0.0,0.0,0.0,0.0,0.0,0.0,0.0,0.0,0.0,0.0,0.0,0.0,0.0,0.0,0.0,0.0,0.0,0.0,0.0,0.0,0.0,0.0,0.0,0.0,0.0,0.0,0.0,0.0,0.0,0.0,0.0,0.0,0.0,0.0,0.0,0.0,0.0,0.0,0.0,0.0,0.0,0.0,0.0,0.0,0.0,0.0,0.0,0.0,0.0,0.0,0.0,0.0,0.0,0.0,0.0,0.0,0.0,0.0,0.0,0.0,0.0,0.0,0.0,0.0,0.0,0.0,0.0,0.0,0.0,0.0,0.0,0.0,0.0,0.0,0.0,0.0,0.0,0.0,0.0,0.0,0.0,0.0,0.0,0.0,0.0,0.0,0.0,0.0,0.0,0.0,0.0,0.0,0.0,0.0,0.0,0.0,0.0,0.0,0.0,0.0,0.0,0.0,0.0,0.0,0.0,0.0,0.0,0.0,0.0,0.0,0.0,0.0,0.0,0.0,0.0,0.0,0.0,0.0,0.0,0.0,0.0,0.0,0.0,0.0,0.0,0.0,0.0,0.0,0.0,0.0,0.0,0.0,0.0,0.0,0.0,0.0,0.0,0.0,0.0,0.0,0.0,0.0,0.0,0.0,0.0,0.0,0.0,0.0,0.0,0.0,0.0,0.0,0.0,0.0,0.0,0.0,0.0,0.0,0.0,0.0,0.0,0.0,0.0,0.0,0.0,0.0,0.0,0.0,0.0,0.0,0.0,0.0,0.0,0.0,0.0,0.0,0.0,0.0,0.0,0.0,0.0,0.0,0.0,0.0,0.0,0.0,0.0,0.0,0.0,0.0,0.0,0.0,0.0,0.0,0.0,0.0,0.0,0.0,0.0,0.0,0.0,0.0,0.0,0.0,0.0,0.0,0.0,0.0,0.0,0.0,0.0,0.0,0.0,0.0,0.0,0.0,0.0,0.0,0.0,0.0,0.0,0.0,0.0,0.0,0.0,0.0,0.0,0.0,0.0,0.0,0.0,0.0,0.0,0.0,0.0,0.0,0.0,0.0,0.0,0.0,0.0,0.0,0.0,0.0,0.0,0.0,0.0,0.0,0.0,0.0,0.0,0.0,0.0,0.0,0.0,0.0,0.0,0.0,0.0,0.0,0.0,0.0,0.0,0.0,0.0,0.0,0.0,0.0,0.0,0.0,0.0,0.0,0.0,0.0,0.0,0.0,0.0,0.0,0.0,0.0,0.0,0.0,0.0,0.0,0.0,0.0,0.0,0.0,0.0,0.0,0.0,0.0,0.0,0.0,0.0,0.0,0.0,0.0,0.0,0.0,0.0,0.0,0.0,0.0,0.0,0.0,0.0,0.0,0.0,0.0,0.0,0.0,0.0,0.0,0.0,0.0,0.0,0.0,0.0,0.0,0.0,0.0,0.0,0.0,0.0,0.0,0.0,0.0,0.0,0.0,0.0,0.0,0.0,0.0,0.0,0.0,0.0,0.0,0.0,0.0,0.0,0.0,0.0,0.0,0.0,0.0,0.0,0.0,0.0,0.0,0.0,0.0,0.0,0.0,0.0,0.0,0.0,0.0,0.0,0.0,0.0,0.0,0.0,0.0,0.0,0.0,0.0,0.0,0.0,0.0,0.0,0.0,0.0,0.0,0.0,0.0,0.0,0.0,0.0,0.0,0.0,0.0,0.0,0.0,0.0,0.0,0.0,0.0,0.0,0.0,0.0,0.0,0.0,0.0,0.0,0.0,0.0,0.0,0.0,0.0,0.0,0.0,0.0,0.0,0.0,0.0,0.0,0.0,0.0,0.0,0.0,0.0,0.0,0.0,0.0,0.0,0.0,0.0,0.0,0.0,0.0,0.0,0.0,0.0,0.0,0.0,0.0,0.0,0.0,0.0,0.0,0.0,0.0,0.0,0.0,0.0,0.0,0.0,0.0,0.0,0.0,0.0,0.0,0.0,0.0,0.0,0.0,0.0,0.0,0.0,0.0,0.0,0.0,0.0,0.0,0.0,0.0,0.0,0.0,0.0,0.0,0.0,0.0,0.0,0.0,0.0,0.0,0.0,0.0,0.0,0.0,0.0,0.0,0.0,0.0,0.0,0.0,0.0,0.0,0.0,0.0,0.0,0.0,0.0,0.0,0.0,0.0,0.0,0.0,0.0,0.0,0.0,0.0,0.0,0.0,0.0,0.0,0.0,0.0,0.0,0.0,0.0,0.0,0.0,0.0,0.0,0.0,0.0,0.0,0.0,0.0,0.0,0.0,0.0,0.0,0.0,0.0,0.0,0.0,0.0,0.0,0.0,0.0,0.0,0.0,0.0,0.0,0.0,0.0,0.0,0.0,0.0,0.0,0.0,0.0,0.0,0.0,0.0,0.0,0.0,0.0,0.0,0.0,0.0,0.0,0.0,0.0,0.0,0.0,0.0,0.0,0.0,0.0,0.0,0.0,0.0,0.0,0.0,0.0,0.0,0.0,0.0,0.0,0.0,0.0,0.0,0.0,0.0,0.0,0.0,0.0,0.0,0.0,0.0,0.0,0.0,0.0,0.0,0.0,0.0,0.0,0.0,0.0,0.0,0.0,0.0,0.0,0.0,0.0,0.0,0.0,0.0,0.0,0.0,0.0,0.0,0.0,0.0,0.0,0.0,0.0,0.0,0.0,0.0,0.0,0.0,0.0,0.0,0.0,0.0,0.0,0.0,0.0,0.0,0.0,0.0,0.0,0.0,0.0,0.0,0.0,0.0,0.0,0.0,0.0,0.0,0.0,0.0,0.0,0.0,0.0,0.0,0.0,0.0,0.0,0.0,0.0,0.0,0.0,0.0,0.0,0.0,0.0,0.0,0.0,0.0,0.0,0.0,0.0,0.0,0.0,0.0,0.0,0.0,0.0,0.0,0.0,0.0,0.0,0.0,0.0,0.0,0.0,0.0,0.0,0.0,0.0,0.0,0.0,0.0,0.0,0.0,0.0,0.0,0.0,0.0,0.0,0.0,0.0,0.0,0.0,0.0,0.0,0.0,0.0,0.0,0.0,0.0,0.0,0.0,0.0,0.0,0.0,0.0,0.0,0.0,0.0,0.0,0.0,0.0,0.0,0.0,0.0,0.0,0.0,0.0,0.0,0.0,0.0,0.0,0.0,0.0,0.0,0.0,0.0,0.0,0.0,0.0,0.0,0.0,0.0,0.0,0.0,0.0,0.0,0.0,0.0,0.0,0.0,0.0,0.0,0.0,0.0,0.0,0.0,0.0,0.0,0.0,0.0,0.0,0.0,0.0,0.0,0.0,0.0,0.0,0.0,0.0,0.0,0.0,0.0,0.0,0.0,0.0,0.0,0.0,0.0,0.0,0.0,0.0,0.0,0.0,0.0,0.0,0.0,0.0,0.0,0.0,0.0,0.0,0.0,0.0,0.0,0.0,0.0,0.0,0.0,0.0,0.0,0.0,0.0,0.0,0.0,0.0,0.0,0.0,0.0,0.0,0.0,0.0,0.0,0.0,0.0,0.0,0.0,0.0,0.0,0.0,0.0,0.0,0.0,0.0,0.0,0.0,0.0,0.0,0.0,0.0,0.0,0.0,0.0,0.0,0.0,0.0,0.0,0.0,0.0,0.0,0.0,0.0,0.0,0.0,0.0,0.0,0.0,0.0,0.0,0.0,0.0,0.0,0.0,0.0,0.0,0.0,0.0,0.0,0.0,0.0,0.0,0.0,0.0,0.0,0.0,0.0,0.0,0.0,0.0,0.0,0.0,0.0,0.0,0.0,0.0,0.0,0.0,0.0,0.0,0.0,0.0,0.0,0.0,0.0,0.0,0.0,0.0,0.0,0.0,0.0,0.0,0.0,0.0,0.0,0.0,0.0,0.0,0.0,0.0,0.0,0.0,0.0,0.0,0.0,0.0,0.0,0.0,0.0,0.0,0.0,0.0,0.0,0.0,0.0,0.0,0.0,0.0,0.0,0.0,0.0,0.0,0.0,0.0,0.0,0.0,0.0,0.0,0.0,0.0,0.0,0.0,0.0,0.0,0.0,0.0,0.0,0.0,0.0,0.0,0.0,0.0,0.0,0.0,0.0,0.0,0.0,0.0,0.0,0.0,0.0,0.0,0.0,0.0,0.0,0.0,0.0,0.0,0.0,0.0,0.0,0.0,0.0,0.0,0.0,0.0,0.0,0.0,0.0,0.0,0.0,0.0,0.0,0.0,0.0,0.0,0.0,0.0,0.0,0.0,0.0,0.0,0.0,0.0,0.0,0.0,0.0,0.0,0.0,0.0,0.0,0.0,0.0,0.0,0.0,0.0,0.0,0.0,0.0,0.0,0.0,0.0,0.0,0.0,0.0,0.0,0.0,0.0,0.0,0.0,0.0,0.0,0.0,0.0,0.0,0.0,0.0,0.0,0.0,0.0,0.0,0.0,0.0,0.0,0.0,0.0,0.0,0.0,0.0,0.0,0.0,0.0,0.0,0.0,0.0,0.0,0.0,0.0,0.0,0.0,0.0,0.0,0.0,0.0,0.0,0.0,0.0,0.0,0.0,0.0,0.0,0.0,0.0,0.0,0.0,0.0,0.0,0.0,0.0,0.0,0.0,0.0,0.0,0.0,0.0,0.0,0.0,0.0,0.0,0.0,0.0,0.0,0.0,0.0,0.0,0.0,0.0,0.0,0.0,0.0,0.0,0.0,0.0,0.0,0.0,0.0,0.0,0.0,0.0,0.0,0.0,0.0,0.0,0.0,0.0,0.0,0.0,0.0,0.0,0.0,0.0,0.0,0.0,0.0,0.0,0.0,0.0,0.0,0.0,0.0,0.0,0.0,0.0,0.0,0.0,0.0,0.0,0.0,3.1585,0.0,0.0,0.0,0.0,0.0,0.0,0.0,0.0,0.0,0.0,0.0,0.0,0.0,0.0,0.0,0.0,0.0,0.0,0.0,0.0,0.0,0.0,0.0,0.0,0.0,0.0,0.0,0.0,0.0,0.0,0.0,0.0,0.0,0.0,0.0,0.0,0.0,2.9433,2.9153,2.9014,2.8799,2.8463,0.0,0.0,0.0,0.0,0.0,0.0,0.0,0.0,0.0,0.0,0.0,0.0,0.0,0.0,0.0,0.0,0.0,0.0,0.0,0.0,0.0,0.0,0.0,0.0,0.0,0.0,0.0,0.0,0.0,0.0,0.0,0.0,0.0,0.0,0.0,0.0,0.0,0.0,0.0,0.0,0.0,0.0,0.0,0.0,0.0,0.0,0.0,0.0,0.0,0.0,0.0,0.0,0.0,0.0,0.0,0.0,0.0,0.0,0.0,0.0,0.0,0.0,0.0,0.0,0.0,0.0,0.0,0.0,0.0,0.0,0.0,0.0,0.0,0.0,3.2626,0.0,0.0,0.0,0.0,0.0,0.0,0.0,0.0,0.0,0.0,0.0,0.0,0.0,0.0,0.0,0.0,0.0,0.0,0.0,0.0,0.0,0.0,0.0,2.612,2.651,2.7275,2.7337,2.7669,2.8495,2.851,2.8839,2.9605,2.9603,2.9518,2.932,2.9317,2.9142,2.881,2.8715,2.8449,2.8023,0.0,0.0,0.0,0.0,0.0,0.0,0.0,0.0,0.0,0.0,0.0,0.0,0.0,0.0,0.0,0.0,0.0,0.0,0.0,0.0,0.0,0.0,0.0,0.0,0.0,0.0,0.0,0.0,0.0,0.0,0.0,0.0,0.0,0.0,0.0,0.0,0.0,0.0,0.0,0.0,0.0,0.0,0.0,0.0,0.0,0.0,0.0,0.0,0.0,0.0,0.0,0.0,0.0,0.0,0.0,0.0,0.0,0.0,0.0,0.0,0.0,0.0,0.0,0.0,0.0,0.0,0.0,3.5611,3.599,3.6022,3.6765,3.7158,3.713,3.5203,3.4459,3.4646,3.4646,0.0,0.0,0.0,0.0,0.0,0.0,0.0,0.0,0.0,0.0,0.0,0.0,0.0,0.0,0.0,0.0,0.0,0.0,0.0,0.0,0.0,2.6566,2.7211,2.7841,2.7847,2.8172,2.9045,2.8935,2.9023,2.9428,2.9272,2.9102,2.8975,2.8972,2.8798,2.8477,2.8216,2.7975,2.7749,2.7723,2.7749,2.7811,0.0,0.0,0.0,0.0,0.0,0.0,0.0,0.0,0.0,0.0,0.0,0.0,0.0,0.0,0.0,0.0,0.0,0.0,0.0,0.0,0.0,0.0,0.0,0.0,0.0,0.0,0.0,0.0,0.0,0.0,0.0,0.0,0.0,0.0,0.0,0.0,0.0,0.0,0.0,0.0,0.0,0.0,0.0,0.0,3.0778,3.1417,0.0,0.0,0.0,0.0,0.0,0.0,0.0,0.0,0.0,0.0,0.0,0.0,0.0,3.5507,3.621,3.6676,3.6894,3.6909,3.7385,3.7595,3.7613,3.8067,3.8679,3.9396,3.9415,0.0,3.6377,3.6377,0.0,0.0,0.0,0.0,0.0,0.0,0.0,0.0,0.0,0.0,0.0,0.0,0.0,0.0,0.0,0.0,0.0,0.0,0.0,0.0,0.0,2.7309,2.7784,2.8332,2.8376,2.852,2.8884,2.8918,2.8938,2.9,2.8997,2.8865,2.8621,2.8618,2.8682,2.8784,2.8602,2.8686,2.9053,2.9053,2.9053,2.9053,2.9053,2.8544,2.7716,2.7833,0.0,0.0,0.0,0.0,0.0,0.0,0.0,0.0,0.0,0.0,0.0,0.0,0.0,0.0,0.0,0.0,0.0,0.0,0.0,0.0,0.0,0.0,0.0,0.0,0.0,0.0,0.0,0.0,0.0,0.0,0.0,0.0,0.0,0.0,0.0,0.0,0.0,0.0,0.0,3.0652,3.1235,3.174,3.1638,3.1769,0.0,0.0,0.0,0.0,0.0,0.0,0.0,0.0,0.0,3.6212,3.7115,3.7752,3.8103,3.8733,3.9037,3.9037,3.9211,3.9517,3.9919,4.0119,4.0637,4.1437,4.1625,4.1082,4.0042,3.9619,3.9051,3.8468,0.0,0.0,0.0,0.0,3.7694,3.748,0.0,0.0,0.0,0.0,0.0,0.0,0.0,0.0,0.0,0.0,0.0,0.0,2.7642,2.7943,2.8208,2.8542,2.8566,2.8542,2.8578,2.8628,2.8664,2.8628,2.8697,2.8587,2.8308,2.8455,2.8795,2.9366,2.9441,2.979,3.0383,3.0593,3.0699,3.0699,3.0699,2.9804,2.8315,2.8315,2.8193,0.0,0.0,0.0,0.0,0.0,0.0,0.0,0.0,0.0,0.0,0.0,0.0,0.0,0.0,0.0,0.0,0.0,0.0,0.0,0.0,0.0,0.0,0.0,0.0,0.0,0.0,0.0,0.0,0.0,0.0,0.0,0.0,0.0,0.0,0.0,0.0,0.0,0.0,3.1504,3.1989,3.2659,3.2447,3.2644,0.0,0.0,0.0,0.0,0.0,0.0,3.6515,3.7095,3.7511,3.7714,3.906,3.9797,3.9797,4.0689,4.1134,4.1134,4.1245,4.1582,4.2118,4.2227,4.2581,4.3167,4.3271,4.3301,4.3241,4.2283,4.1413,4.0747,4.1052,4.0336,3.9227,3.9737,3.9589,3.9107,0.0,0.0,0.0,0.0,0.0,0.0,0.0,0.0,0.0,0.0,0.0,2.7884,2.7893,2.8287,2.8471,2.8247,2.8173,2.8163,2.822,2.8108,2.8156,2.8392,2.8296,2.8163,2.8021,2.8576,2.9255,3.0044,3.0742,3.1111,3.1168,3.1932,3.2283,3.2283,3.2283,3.1423,2.9975,2.9975,2.954,2.8842,0.0,0.0,0.0,0.0,0.0,0.0,0.0,0.0,0.0,0.0,0.0,0.0,0.0,0.0,0.0,0.0,0.0,0.0,0.0,0.0,0.0,0.0,0.0,0.0,0.0,0.0,0.0,0.0,0.0,0.0,0.0,0.0,0.0,0.0,0.0,0.0,0.0,0.0,0.0,3.5117,3.4962,0.0,0.0,0.0,0.0,3.6654,3.6745,3.7437,3.8934,3.906,3.9431,4.0194,4.0976,4.1373,4.1373,4.2568,4.3144,4.3162,4.3545,4.3745,4.3792,4.4179,4.4369,4.4432,4.48,4.4972,4.4864,4.3295,4.2873,4.3217,4.3234,4.2953,4.2513,4.2242,4.1595,4.0775,0.0,0.0,0.0,0.0,0.0,0.0,0.0,0.0,2.5864,2.6122,2.7111,2.7845,2.7952,2.8148,2.8177,2.7897,2.7865,2.7847,2.7883,2.795,2.8227,2.8702,2.8763,2.8963,2.9335,3.0037,3.0777,3.1576,3.2326,3.2945,3.3468,3.3749,3.3885,3.3885,3.3782,3.3452,3.2835,3.1365,3.0582,3.0262,2.9694,2.939,0.0,0.0,0.0,0.0,0.0,0.0,0.0,0.0,0.0,0.0,0.0,0.0,0.0,0.0,0.0,0.0,0.0,0.0,0.0,0.0,0.0,0.0,0.0,0.0,0.0,0.0,0.0,0.0,0.0,0.0,0.0,0.0,0.0,0.0,0.0,0.0,0.0,3.5403,3.5707,0.0,3.7269,3.7703,3.8139,3.8689,3.9216,3.9662,4.0027,4.0985,4.1654,4.1931,4.2652,4.3037,4.3037,4.3461,4.3631,4.3563,4.3693,4.4001,4.443,4.4564,4.4899,4.5337,4.5487,4.5558,4.5511,4.5011,4.4537,4.4131,4.4398,4.4032,4.3427,4.3838,4.3566,4.2964,0.0,0.0,0.0,0.0,0.0,0.0,0.0,0.0,2.6311,2.6787,2.7527,2.8016,2.8034,2.7982,2.789,2.7723,2.7705,2.7828,2.8091,2.823,2.8607,2.9281,2.9624,3.0143,3.0857,3.1602,3.2379,3.3182,3.4192,3.4947,3.5487,3.6009,3.6236,3.6179,3.6089,3.6035,3.5868,3.4056,3.2719,3.1734,3.0906,3.0449,3.0155,0.0,0.0,0.0,0.0,0.0,0.0,0.0,0.0,0.0,0.0,0.0,0.0,0.0,0.0,0.0,0.0,0.0,0.0,0.0,0.0,0.0,0.0,0.0,0.0,0.0,0.0,0.0,0.0,0.0,0.0,0.0,0.0,0.0,0.0,0.0,3.5305,3.6292,3.6807,3.7582,3.8892,3.9384,3.9969,4.0747,4.1312,4.1616,4.1649,4.2622,4.3144,4.3115,4.3839,4.4225,4.4177,4.4416,4.4515,4.4472,4.4424,4.466,4.514,4.5096,4.5357,4.5859,4.5814,4.5821,4.5865,4.5909,4.5547,4.4985,4.5504,4.5258,4.4686,4.5215,4.5009,4.4418,0.0,0.0,0.0,0.0,0.0,0.0,0.0,2.6478,2.7206,2.7793,2.8294,2.8463,2.8115,2.7851,2.7705,2.7705,2.7705,2.8038,2.8842,2.8895,2.9277,3.0133,3.0878,3.1659,3.2458,3.3222,3.3982,3.4767,3.6317,3.7072,3.7095,3.8597,3.9219,3.9106,3.9101,3.9021,3.8857,3.799,3.5979,3.3301,3.2511,3.1716,3.0924,0.0,0.0,0.0,0.0,0.0,0.0,0.0,0.0,0.0,0.0,0.0,0.0,0.0,0.0,0.0,0.0,0.0,0.0,0.0,0.0,0.0,0.0,0.0,0.0,0.0,0.0,0.0,0.0,0.0,0.0,0.0,0.0,0.0,3.4633,3.5859,3.7125,3.7976,3.8433,3.9323,4.0892,4.0783,4.1229,4.2716,4.2857,4.3178,4.3892,4.3951,4.3892,4.3779,4.4525,4.4865,4.4729,4.543,4.5859,4.5985,4.5852,4.5859,4.5972,4.584,4.587,4.6007,4.5875,4.5911,4.6036,4.5927,4.5858,4.59,4.6596,4.6655,4.6372,4.6372,4.5846,4.5039,0.0,0.0,0.0,0.0,0.0,0.0,0.0,2.6416,2.7052,2.7421,2.8088,2.8344,2.7858,2.7738,2.7705,2.7705,2.7705,2.8038,2.8842,2.8895,2.9751,3.1682,3.2463,0.0,3.4047,3.5351,3.6142,3.637,3.7905,3.8667,3.869,3.9101,3.9278,3.9242,3.9093,3.9013,3.8941,3.8514,3.7861,3.695,3.5088,3.3922,3.3144,0.0,0.0,0.0,0.0,0.0,0.0,0.0,0.0,0.0,0.0,0.0,0.0,0.0,0.0,0.0,0.0,0.0,0.0,0.0,0.0,0.0,0.0,0.0,0.0,0.0,0.0,0.0,0.0,0.0,0.0,0.0,3.6175,3.6715,3.6355,3.6673,3.766,3.9585,4.0374,4.1182,4.2204,4.2713,4.3103,4.3436,4.4079,4.4464,4.4487,4.5084,4.5369,4.5232,4.5434,4.552,4.5506,4.5697,4.5763,4.5705,4.5667,4.5615,4.555,4.5528,4.5846,4.6422,4.6406,4.67,4.7242,4.7302,4.7017,4.6502,4.6213,4.5984,4.5822,4.5822,4.5614,4.5305,0.0,0.0,0.0,0.0,0.0,0.0,0.0,2.6626,2.7122,2.7755,2.8226,2.8298,2.7757,2.7705,2.7705,2.7705,2.8003,2.8544,2.9343,3.0303,0.0,0.0,0.0,3.4836,3.565,3.6834,3.7537,3.7709,3.8955,3.9623,3.977,4.0082,4.036,4.0585,4.0339,4.0333,4.0509,3.9894,3.9603,3.9416,3.7755,3.6274,3.4948,3.3761,3.3178,3.2839,3.1642,3.1224,3.1176,3.0905,0.0,0.0,0.0,0.0,0.0,0.0,0.0,0.0,0.0,0.0,0.0,0.0,0.0,0.0,0.0,0.0,0.0,0.0,0.0,0.0,0.0,0.0,0.0,0.0,3.7679,3.8783,3.8829,3.8892,3.9438,4.0808,4.1908,4.2886,4.3687,4.4097,4.4405,4.4653,4.512,4.5326,4.517,4.5645,4.5852,4.5712,4.5729,4.586,4.6131,4.6148,4.6273,4.6559,4.6516,4.6459,4.6456,4.6396,4.6644,4.7137,4.7093,4.7341,4.7793,4.7814,4.7568,0.0,0.0,0.0,0.0,0.0,4.5622,4.5587,0.0,0.0,0.0,0.0,0.0,0.0,0.0,2.6895,2.7242,2.8434,2.8513,2.8265,2.7753,2.7705,2.7705,2.7705,2.8438,2.9277,3.0172,3.2287,0.0,3.363,3.5039,3.6228,3.7108,3.7807,3.8384,3.8837,3.9663,4.0225,4.0545,4.1247,4.1839,4.2355,4.1994,4.2105,4.2499,4.1513,4.1006,4.0767,4.0121,3.8521,3.6484,3.5714,3.5005,3.4332,3.3567,3.324,3.3076,3.2447,0.0,0.0,0.0,0.0,0.0,0.0,0.0,0.0,0.0,0.0,0.0,0.0,0.0,0.0,0.0,0.0,0.0,0.0,0.0,0.0,0.0,0.0,0.0,0.0,3.9257,4.0869,4.1565,4.1854,4.1985,4.1968,4.319,4.4337,4.5126,4.5087,4.5281,4.5901,4.5859,4.58,4.5768,0.0,0.0,0.0,0.0,4.6116,4.6727,4.672,4.7109,4.7882,4.7758,4.7765,4.7865,4.7758,4.7807,4.7996,4.7879,4.7945,4.8135,4.801,4.791,4.7776,4.7273,4.6637,4.6005,4.6005,4.6005,4.6005,0.0,0.0,0.0,0.0,0.0,0.0,0.0,2.6597,2.6858,2.8339,2.8324,2.8058,2.7728,2.7705,2.7705,2.7705,2.8438,2.9488,3.09,0.0,3.3793,3.4434,3.5315,3.6469,3.7865,3.8338,3.8943,3.9679,4.0698,4.1217,4.1296,4.1761,4.206,4.2132,4.1695,4.1551,4.1634,4.1307,4.0848,4.0361,4.0704,3.9766,3.8002,3.6632,3.6022,3.5716,3.4407,3.3518,3.2967,3.2978,3.2595,3.2122,3.2297,0.0,0.0,0.0,0.0,0.0,0.0,0.0,0.0,0.0,0.0,0.0,0.0,0.0,0.0,0.0,0.0,0.0,0.0,0.0,0.0,4.0165,4.1029,4.1823,4.308,4.3927,4.4372,4.4264,4.4628,4.512,4.575,4.5807,4.577,4.5686,4.575,4.5716,4.5496,4.6199,4.6546,4.6405,4.6985,4.7369,4.7496,4.7496,4.7579,4.7745,0.0,0.0,4.7745,4.771,4.8045,4.8611,4.8607,4.8976,4.9591,4.9562,4.9169,4.8513,4.7827,4.7475,4.733,4.733,4.733,4.733,0.0,0.0,0.0,0.0,0.0,0.0,0.0,2.6448,2.6874,2.7786,2.813,2.816,2.7738,2.7705,2.7705,2.7705,2.8807,3.0159,0.0,3.324,3.428,3.4679,3.5794,3.7128,3.8667,3.871,3.9185,4.0144,4.0854,4.1205,4.1204,4.178,4.2157,4.2339,4.1935,4.1935,4.2206,4.1564,4.1092,4.0736,4.0688,3.9952,3.8822,3.8231,3.7548,3.676,3.5616,3.4702,3.401,3.3739,3.3174,3.2623,3.2714,3.2537,3.2385,0.0,0.0,0.0,0.0,0.0,0.0,0.0,0.0,0.0,0.0,0.0,0.0,0.0,0.0,3.6745,3.7852,0.0,3.9679,4.1152,4.2439,4.3477,4.412,4.4974,4.5385,4.4956,4.5285,4.5634,4.5875,4.5833,4.5911,4.618,4.6202,4.6292,4.6548,4.6995,4.7227,4.7151,4.7514,4.7876,4.8248,4.8248,4.8444,4.8841,4.8841,4.8841,4.8841,4.8841,4.9048,4.9393,4.9393,4.9624,5.0003,5.0003,4.9762,4.9358,4.8996,4.8376,4.7703,4.7703,4.7703,4.7703,0.0,0.0,0.0,0.0,0.0,0.0,0.0,2.6302,2.6888,2.7248,2.7962,2.8236,2.7749,2.7705,2.7757,2.7915,2.926,0.0,0.0,3.3617,3.4534,3.4697,3.6036,3.7554,3.9259,3.8825,3.9187,4.04,4.0671,4.0845,4.0912,4.159,4.2112,4.2483,4.215,4.2293,4.274,4.1685,4.1131,4.0902,4.0287,3.9634,3.9069,3.9454,3.8745,3.7474,3.6786,3.5961,3.5104,3.4525,3.388,3.3316,3.3359,3.303,3.2751,3.3447,3.3663,0.0,0.0,0.0,0.0,0.0,0.0,0.0,0.0,0.0,3.6434,3.7085,3.7797,3.8553,3.9391,4.0553,4.1531,4.1968,4.3657,4.4901,4.4905,4.5513,4.572,4.5115,4.5581,4.5903,4.577,4.5793,4.6085,4.6705,4.6788,4.7065,4.7669,4.7841,4.7903,4.7903,4.8065,4.8427,4.9031,4.9024,4.9358,5.0003,5.0003,5.0003,5.0003,5.0003,5.0003,5.0003,5.0003,5.0003,5.0003,5.0003,5.0003,5.0003,5.0003,4.9245,4.8151,4.8151,4.8151,4.8151,0.0,0.0,0.0,0.0,0.0,0.0,0.0,0.0,2.6528,2.7203,2.7793,2.803,2.7724,2.7705,2.7986,2.8702,0.0,0.0,3.129,3.2783,3.3954,3.4679,3.5491,3.6995,3.9254,3.856,3.8908,4.04,4.0437,4.0608,4.0912,4.136,4.1767,4.2142,4.181,4.1703,4.1721,4.1007,4.0317,3.9695,3.9555,3.9058,3.846,3.9036,3.864,3.7736,3.7458,3.6432,3.52,3.5165,3.4674,3.4111,3.4297,3.4253,3.4207,3.4483,0.0,3.4432,3.4634,3.517,3.5794,3.6397,3.6636,3.6695,0.0,0.0,3.7873,3.7965,3.852,3.9421,4.0885,4.1281,4.205,4.4,4.4644,4.5076,4.5594,4.5756,4.5752,4.555,4.5692,4.5763,4.5645,4.626,4.6657,4.6623,4.7217,4.7617,4.7703,4.8317,4.8679,4.8679,4.9375,4.9779,4.9865,4.9865,4.9917,5.0003,5.0003,5.0003,5.0003,5.0003,5.0003,5.0003,5.0003,5.0003,5.0003,5.0003,5.0003,5.0003,5.0003,4.99,4.9745,4.9745,4.9745,4.9745,0.0,0.0,0.0,0.0,0.0,0.0,0.0,0.0,0.0,2.6602,2.761,2.8166,2.7746,2.7705,2.8021,2.8825,0.0,0.0,3.1115,3.2243,3.3406,3.4644,3.5416,3.6679,3.8557,3.8435,3.8802,3.9755,4.0341,4.0412,4.004,4.0638,4.0806,4.0579,4.0436,4.0372,4.0364,4.0087,3.9566,3.8918,3.8891,3.8468,3.7845,3.8033,3.7745,3.7373,3.8063,3.7305,0.0,0.0,3.5851,3.4968,3.4957,3.4737,3.4574,3.5119,3.5275,0.0,3.5803,3.6143,3.6449,0.0,3.7196,3.7579,3.7556,3.8142,3.8814,3.9287,3.9884,4.0651,4.1777,4.2718,4.3654,0.0,4.5166,4.5517,4.5767,4.5725,4.5622,4.5502,4.5956,4.6246,4.6193,4.6487,4.7013,4.7831,4.8169,4.8548,4.9013,4.9324,4.9496,4.9496,4.9814,5.0003,5.0003,5.0003,5.0003,5.0003,5.0003,5.0003,5.0003,5.0003,5.0227,5.0641,5.0641,5.0883,5.1272,5.1272,5.1272,5.1272,5.1272,5.1272,5.1168,5.0314,5.0003,5.0003,0.0,0.0,0.0,0.0,0.0,0.0,0.0,0.0,0.0,0.0,2.7348,2.8055,2.7735,2.7705,2.7929,0.0,0.0,0.0,0.0,3.1515,3.2673,3.4012,3.4982,3.6228,3.776,3.7912,3.8351,3.9104,3.98,3.9862,3.932,4.0022,4.01,3.962,3.9542,3.9503,3.9487,3.9297,3.8942,3.8476,3.8081,3.7712,3.7384,3.7077,3.6911,3.6951,3.7971,3.7547,0.0,0.0,3.6638,3.5822,3.5732,3.5436,3.5222,3.5861,3.624,3.6537,3.7036,3.7326,0.0,3.7208,3.7761,3.8364,3.8365,3.8926,3.9655,4.0441,4.1097,4.1853,4.2904,4.3996,4.484,4.5117,4.5512,4.58,4.5744,4.5639,4.5515,4.541,4.611,4.6676,4.6882,4.7083,4.7651,4.8713,4.9013,4.9393,4.9969,5.0003,5.0003,5.0003,5.0003,5.0003,5.0003,5.0003,5.0003,5.0003,5.0003,5.0107,5.0314,5.0521,5.09,5.141,5.141,5.1703,5.2203,5.2203,5.2203,5.2203,5.2203,5.2203,5.2065,5.0996,5.0486,5.0279,0.0,0.0,0.0,0.0,0.0,0.0,0.0,0.0,0.0,0.0,0.0,0.0,0.0,0.0,0.0,0.0,0.0,0.0,0.0,3.0391,3.1607,3.2423,3.392,3.5457,3.7007,3.678,3.7302,3.8629,3.8529,3.869,3.9124,3.9737,4.0011,3.9977,3.9651,3.9503,3.9455,3.8816,3.8531,3.8381,3.7016,3.6759,3.7134,3.6414,3.6329,3.6635,3.6876,0.0,0.0,0.0,3.6697,3.6665,3.6738,3.6703,0.0,3.6903,3.7461,3.8031,3.8066,0.0,3.9043,3.8259,3.868,3.9228,3.9092,3.9695,4.0471,4.1211,4.1893,4.2863,4.4524,4.4864,4.5089,4.5677,4.5795,4.575,4.5615,4.5496,4.5404,4.5397,4.611,4.6882,0.0,4.83,4.8748,4.8799,4.9513,4.9969,5.0003,5.0003,5.0003,5.0003,5.0003,5.0003,5.0003,5.0003,5.0003,5.0003,5.0003,5.0365,5.1082,5.1806,5.2151,5.2168,5.2168,5.2186,5.2203,5.2203,5.2203,5.2203,5.2203,5.2203,5.2195,5.2151,5.1686,5.0962,0.0,0.0,0.0,0.0,0.0,0.0,0.0,0.0,0.0,0.0,0.0,0.0,0.0,0.0,0.0,0.0,0.0,0.0,0.0,2.9386,3.0492,3.2318,3.2902,3.3786,3.511,3.6094,3.6655,3.6738,3.7402,3.7786,3.7891,3.7794,3.7825,3.7939,3.7827,3.7763,3.7743,3.7157,3.7116,3.7369,3.6529,3.6525,3.6934,3.6221,3.629,3.6689,0.0,0.0,0.0,0.0,3.7138,3.6753,3.674,0.0,3.6893,3.7539,3.8281,3.8908,3.8908,0.0,3.9203,3.8855,3.9364,3.9927,3.9796,4.0705,4.1661,4.1992,4.2911,4.3909,4.4745,4.5146,4.5493,4.5875,4.5776,4.5641,4.5613,4.5489,4.561,4.6128,4.6876,0.0,0.0,0.0,0.0,4.9565,4.9848,5.0003,5.0003,5.0003,5.0003,5.0003,5.0003,5.0003,5.0003,5.0003,5.0003,5.0003,5.0503,5.1117,5.1841,5.2099,5.2496,5.3004,5.3004,5.3279,5.372,5.372,5.372,5.372,5.372,5.372,5.3676,5.3176,5.2831,5.2503,0.0,0.0,0.0,0.0,0.0,0.0,0.0,0.0,0.0,0.0,0.0,0.0,0.0,0.0,0.0,0.0,0.0,0.0,0.0,0.0,2.9575,3.1089,3.1949,3.2765,3.3537,3.4891,3.5652,3.5768,3.6503,3.6922,3.7005,3.6887,3.6697,3.6496,3.6408,3.646,3.6593,3.6253,3.6564,3.719,3.6054,3.6085,3.6652,3.5445,3.5492,0.0,0.0,0.0,0.0,0.0,3.7226,3.6869,3.6826,3.7021,3.7426,3.8273,3.9106,3.9715,3.9668,3.9844,3.9952,3.9559,4.0043,4.0591,4.0474,4.1395,4.2379,4.2752,4.3723,4.469,4.5267,4.5572,4.5776,4.5903,4.5738,4.5576,4.5541,4.5456,4.5587,4.6117,4.7083,4.7893,0.0,0.0,0.0,4.9952,5.0003,5.0003,5.0003,5.0003,5.0003,5.0003,5.0003,5.0003,5.0003,5.0003,5.0124,5.0417,5.1434,5.2176,5.2634,5.2892,5.3289,5.3787,5.3787,5.4055,5.4504,5.4504,5.4504,5.4504,5.4504,5.4504,5.4435,5.3969,5.3787,5.3642,0.0,0.0,0.0,0.0,0.0,0.0,0.0,0.0,0.0,0.0,0.0,0.0,0.0,0.0,0.0,0.0,0.0,0.0,0.0,0.0,0.0,2.8895,3.1032,3.2222,3.2266,3.3217,3.4296,3.5498,3.5688,3.5998,3.6402,3.6818,3.655,3.5719,3.5452,3.5579,3.5993,3.5966,3.6679,3.7615,3.5486,3.5375,3.6247,3.4134,0.0,0.0,0.0,0.0,0.0,0.0,0.0,3.7007,3.6997,3.7496,3.8264,3.9066,3.9866,4.0475,4.0375,4.0873,4.1211,4.0362,4.0693,4.1186,4.1128,4.1806,4.2659,4.345,4.4325,4.5198,0.0,0.0,4.5935,4.5814,4.5673,4.5548,4.5417,4.5397,4.5414,0.0,0.0,0.0,0.0,0.0,0.0,5.0003,0.0,5.0003,5.0003,5.0003,5.0003,5.0003,5.0003,5.0003,5.0003,5.0038,5.0452,5.1245,5.2693,5.3425,5.3477,5.4176,5.4504,5.4504,5.4504,5.4504,5.4504,5.4504,5.4504,5.4504,5.4504,5.4504,5.4504,5.4504,5.4504,5.4297,0.0,0.0,0.0,0.0,0.0,0.0,0.0,0.0,0.0,0.0,0.0,0.0,0.0,0.0,0.0,0.0,0.0,0.0,0.0,0.0,0.0,0.0,0.0,0.0,0.0,0.0,0.0,0.0,0.0,3.4447,3.4923,3.4645,3.4558,3.46,3.4531,3.4542,3.4575,3.4175,3.4425,3.5007,0.0,3.4091,3.4679,0.0,0.0,0.0,0.0,0.0,0.0,0.0,0.0,0.0,3.6888,3.7421,3.8264,3.9066,3.9866,4.0593,4.1011,4.1336,4.1446,4.1028,4.1144,4.1318,4.1203,4.2241,4.3304,4.3615,4.4695,4.5708,0.0,0.0,0.0,4.5782,4.5596,0.0,4.5404,4.5397,0.0,4.6221,0.0,4.7927,4.8472,4.9417,0.0,0.0,5.0003,5.0003,5.0003,5.0003,5.0003,5.0003,5.0003,5.0003,5.0003,5.0531,5.1486,5.2814,5.3218,5.3693,5.4228,5.4417,5.4504,5.4504,5.4504,5.4504,5.4504,5.4504,5.4504,5.4504,5.4504,5.4504,5.4504,5.4504,5.4504,5.4435,0.0,0.0,0.0,0.0,0.0,0.0,0.0,0.0,0.0,0.0,0.0,0.0,0.0,0.0,0.0,0.0,0.0,0.0,0.0,0.0,0.0,0.0,0.0,0.0,0.0,0.0,0.0,0.0,0.0,0.0,0.0,3.3234,3.3269,3.3586,3.3586,3.3707,3.3857,0.0,0.0,0.0,0.0,0.0,0.0,0.0,0.0,0.0,0.0,0.0,0.0,0.0,0.0,3.6854,3.6819,3.7388,3.8225,3.9056,0.0,4.0628,4.1233,4.1408,4.1397,4.1243,4.1232,4.1354,4.1661,4.2433,4.3318,4.4059,4.4903,0.0,4.6119,4.5916,0.0,0.0,0.0,0.0,4.5397,4.5397,4.5576,0.0,4.7048,0.0,4.8289,4.9348,5.0003,0.0,5.0003,5.0003,5.0003,5.0003,5.0003,5.0003,5.0003,5.0159,5.0486,5.1555,5.2538,5.3408,5.3728,5.409,5.4504,5.4504,5.4504,5.4504,0.0,5.4504,5.4504,5.4504,5.4504,5.4504,5.4504,5.4504,5.4504,5.4504,5.4504,5.4504,0.0,0.0,0.0,0.0,0.0,0.0,0.0,0.0,0.0,0.0,0.0,0.0,0.0,0.0,0.0,0.0,0.0,0.0,0.0,0.0,0.0,0.0,0.0,0.0,0.0,0.0,0.0,0.0,0.0,0.0,0.0,0.0,0.0,0.0,0.0,0.0,0.0,0.0,0.0,0.0,0.0,0.0,0.0,0.0,0.0,0.0,0.0,0.0,0.0,0.0,3.6753,3.6715,3.6778,3.7278,3.8031,3.9017,3.9796,4.05,4.1215,4.1329,4.1249,4.1232,4.1198,4.1354,4.212,4.2463,4.3005,4.4346,0.0,4.5144,4.5781,4.5752,4.5656,4.5656,0.0,4.5397,4.5397,4.5397,4.5397,4.5397,4.6765,4.7703,4.7703,4.9082,5.0003,5.0003,5.0003,5.0003,5.0003,5.0003,5.0003,5.0003,5.009,5.0503,5.1237,5.2676,5.3452,5.3546,5.4193,5.4504,5.4504,5.4504,5.4504,5.4504,5.4504,0.0,5.4504,5.4504,5.4504,5.4504,5.4504,5.4504,5.4504,5.4504,5.4504,5.4504,0.0,0.0,0.0,0.0,0.0,0.0,0.0,0.0,0.0,0.0,2.5187,2.5948,0.0,0.0,0.0,0.0,0.0,0.0,0.0,0.0,0.0,0.0,0.0,0.0,0.0,0.0,0.0,0.0,0.0,0.0,0.0,0.0,0.0,0.0,0.0,0.0,0.0,0.0,0.0,0.0,0.0,0.0,0.0,0.0,0.0,0.0,0.0,0.0,0.0,0.0,3.6798,3.6783,3.6803,3.6901,3.7311,3.8859,3.9399,3.9777,4.1052,4.1453,4.1498,4.138,4.1442,4.1545,4.1707,4.2273,0.0,0.0,4.3676,4.415,4.4273,4.4611,4.4886,4.4886,4.5189,4.5397,4.5397,4.5397,4.5397,0.0,4.6765,4.7703,4.7703,4.9082,0.0,0.0,5.0003,5.0003,5.0003,5.0003,5.0003,5.0003,5.059,5.1255,5.1996,5.2935,5.371,5.4314,5.4435,5.4504,5.4504,5.4504,5.4504,5.4504,5.4504,0.0,5.4504,5.4504,5.4504,5.4504,5.4504,5.4504,5.4504,5.4504,5.4504,5.4504,0.0,0.0,0.0,0.0,0.0,0.0,0.0,2.3737,2.4145,2.4515,2.4868,2.5358,2.6065,2.7098,2.7894,0.0,0.0,0.0,0.0,0.0,0.0,0.0,0.0,0.0,0.0,0.0,0.0,0.0,0.0,0.0,0.0,0.0,0.0,0.0,0.0,0.0,0.0,0.0,0.0,0.0,0.0,0.0,0.0,0.0,0.0,0.0,0.0,0.0,0.0,0.0,3.6869,3.6809,3.6809,3.6809,3.7043,3.8316,3.8973,3.9547,4.0638,4.1212,4.1499,4.1504,4.1504,4.162,4.2108,0.0,0.0,0.0,4.336,4.3447,4.3834,4.4048,0.0,4.4637,4.4837,4.5034,4.5359,4.5397,0.0,4.5397,4.6765,4.7703,0.0,4.9082,5.0003,5.0003,5.0003,5.0003,5.0003,5.0003,5.0176,5.0548,5.1289,5.2048,5.2831,5.359,5.4142,5.4504,5.4504,5.4504,5.4504,5.4504,5.4504,5.4504,5.4504,0.0,5.4504,5.4504,5.4504,5.4504,5.4504,5.4504,5.4504,5.4504,5.4504,5.4504,0.0,0.0,0.0,0.0,0.0,0.0,0.0,2.3275,2.3715,2.4583,2.4704,2.4908,2.5424,2.6542,2.7482,0.0,0.0,0.0,0.0,0.0,0.0,0.0,0.0,0.0,0.0,0.0,0.0,0.0,0.0,0.0,0.0,0.0,0.0,0.0,0.0,0.0,0.0,0.0,0.0,0.0,0.0,0.0,0.0,0.0,0.0,0.0,0.0,0.0,0.0,0.0,3.6793,3.6836,3.6836,3.6816,3.6968,3.7842,3.8667,3.9475,4.0286,4.0959,4.1471,4.1577,4.1521,4.1651,4.2378,4.2055,0.0,0.0,4.2956,4.2722,4.3307,0.0,4.3679,0.0,4.4478,4.4703,4.5313,4.5397,4.5397,0.0,4.6765,0.0,4.7703,4.9082,0.0,5.0003,5.0003,5.0003,5.0003,5.0003,5.0331,5.1082,5.1824,5.259,5.3383,5.4124,5.4504,5.4504,5.4504,5.4504,5.4504,5.4504,5.4504,5.4504,5.4504,0.0,0.0,5.4504,5.4504,5.4504,5.4504,5.4504,5.4504,5.4504,5.4504,5.4504,0.0,0.0,0.0,0.0,0.0,0.0,0.0,2.2886,2.3707,2.4585,2.4704,2.4716,2.4782,2.5608,2.6635,0.0,0.0,0.0,0.0,0.0,0.0,0.0,0.0,0.0,0.0,0.0,0.0,0.0,0.0,0.0,0.0,0.0,0.0,0.0,0.0,0.0,0.0,0.0,0.0,0.0,0.0,0.0,0.0,0.0,0.0,0.0,0.0,0.0,0.0,0.0,0.0,3.6987,3.6987,3.6908,3.6968,3.7842,0.0,0.0,4.0286,4.1025,4.1582,4.1599,4.1588,4.16,4.1686,0.0,4.1634,4.1774,4.1757,4.1727,4.1792,4.2298,0.0,0.0,0.0,4.4703,4.5313,4.5397,4.5397,4.5397,0.0,0.0,4.7703,4.9082,5.0003,5.0003,5.0003,5.0003,5.0003,5.0003,5.0331,5.1082,5.1824,5.259,5.3383,5.4124,5.4504,5.4504,5.4504,5.4504,5.4504,5.4504,5.4504,5.4504,5.4504,0.0,0.0,5.4504,5.4504,5.4504,5.4504,5.4504,5.4504,5.4504,5.4504,5.4504,0.0,0.0,0.0,0.0,0.0,0.0,2.1896,2.2385,2.3126,2.4527,2.4704,2.4704,2.4704,2.5008,2.5639,2.6664,0.0,0.0,0.0,0.0,0.0,0.0,0.0,0.0,0.0,0.0,0.0,0.0,0.0,0.0,0.0,0.0,0.0,0.0,0.0,0.0,0.0,0.0,0.0,0.0,0.0,0.0,0.0,0.0,0.0,0.0,0.0,0.0,0.0,0.0,0.0,0.0,3.7007,3.6955,0.0,0.0,3.797,3.865,3.8976,3.9977,4.0948,4.0948,4.1276,4.1599,4.1599,0.0,4.1599,4.1599,4.1599,4.1599,4.1599,4.1817,4.2357,0.0,0.0,0.0,4.5485,4.5502,4.543,4.5515,4.6423,0.0,0.0,0.0,4.9479,4.9952,5.0003,5.0003,5.0003,5.0003,5.0531,5.172,5.2048,5.2806,5.4038,5.4348,5.4504,5.4504,5.4504,5.4504,5.4504,5.4504,5.4504,5.4504,5.4504,0.0,0.0,5.4504,5.4504,5.4504,5.4504,5.4504,5.4504,5.4504,5.4504,5.4504,0.0,0.0,0.0,0.0,0.0,2.0174,2.1838,2.2118,2.2744,2.4471,2.4704,2.4704,2.4704,2.4704,2.4951,2.556,2.6797,0.0,0.0,0.0,0.0,0.0,0.0,0.0,0.0,0.0,0.0,0.0,0.0,0.0,0.0,0.0,0.0,0.0,0.0,0.0,0.0,0.0,0.0,0.0,0.0,0.0,0.0,0.0,0.0,0.0,0.0,0.0,0.0,0.0,0.0,0.0,0.0,0.0,0.0,0.0,3.7524,3.8106,3.8106,3.9275,4.0502,4.0502,4.1053,4.1599,0.0,0.0,4.1599,4.1599,4.1599,4.1599,4.1599,4.1599,4.1998,4.3185,4.3456,4.3958,4.5297,4.5436,4.545,4.5576,0.0,4.7134,0.0,4.8582,4.9393,4.9952,5.0003,5.0003,5.0003,5.0003,5.0572,5.1824,5.2099,5.2841,5.4159,5.4383,5.4504,5.4504,5.4504,5.4504,5.4504,5.4504,5.4504,5.4504,5.4504,0.0,0.0,5.4504,5.4504,5.4504,5.4504,5.4504,5.4504,5.4504,5.4504,5.4504,0.0,0.0,0.0,0.0,0.0,0.0,2.1842,2.2151,2.28,2.4472,2.4704,2.4704,2.4704,2.4704,2.4702,2.4704,2.5521,0.0,0.0,0.0,0.0,0.0,0.0,0.0,0.0,0.0,0.0,0.0,0.0,0.0,0.0,0.0,0.0,0.0,0.0,0.0,0.0,0.0,0.0,0.0,0.0,0.0,0.0,0.0,0.0,0.0,0.0,0.0,0.0,0.0,0.0,0.0,0.0,0.0,0.0,0.0,3.7524,3.8106,3.8106,3.9275,4.0502,4.0502,4.1053,4.1599,0.0,0.0,4.1599,4.1599,4.1599,4.1599,4.1599,4.1599,4.1817,4.2504,4.3119,4.379,4.459,4.5113,4.545,0.0,0.0,4.7679,4.7703,4.9089,4.9986,5.0003,5.0003,0.0,5.0003,5.0003,5.0348,5.109,5.1824,5.2582,5.3408,5.4142,5.4504,5.4504,5.4504,5.4504,5.4504,5.4504,5.4504,5.4504,0.0,0.0,0.0,5.4504,5.4504,5.4504,5.4504,5.4504,5.4504,5.4504,5.4504,5.4504,0.0,0.0,0.0,0.0,0.0,0.0,0.0,2.1757,2.2559,2.3729,2.4369,2.4704,2.4704,2.4704,2.4704,2.4704,2.5504,0.0,0.0,0.0,0.0,0.0,0.0,0.0,0.0,0.0,0.0,2.7705,2.7705,0.0,0.0,0.0,0.0,0.0,0.0,0.0,0.0,0.0,0.0,0.0,0.0,0.0,0.0,0.0,0.0,0.0,0.0,0.0,0.0,0.0,0.0,0.0,0.0,0.0,0.0,3.7007,3.7178,3.7348,3.7348,3.8485,3.9686,3.9686,4.0656,4.1599,4.1599,4.1599,4.1599,4.1599,4.1599,4.1599,4.1599,4.1599,4.1828,4.2497,4.3114,4.3778,0.0,0.0,0.0,4.5576,4.6829,4.7703,0.0,0.0,5.0003,5.0003,5.0003,5.0003,5.0003,5.0003,5.0331,5.1082,5.1824,5.259,5.3383,5.4124,5.4504,5.4504,5.4504,5.4504,5.4504,5.4504,5.4504,0.0,0.0,0.0,0.0,5.4504,5.4504,5.4504,5.4504,5.4504,5.4504,5.4504,5.4504,5.4504,0.0,0.0,0.0,0.0,0.0,0.0,0.0,2.133,2.2073,2.3298,2.39,2.4333,2.4664,2.4704,2.4704,2.4704,2.5197,0.0,0.0,0.0,0.0,0.0,0.0,0.0,0.0,0.0,2.8051,2.7897,2.7855,2.7804,2.7691,2.7807,0.0,0.0,0.0,0.0,0.0,0.0,0.0,0.0,0.0,0.0,3.2406,0.0,0.0,0.0,0.0,0.0,0.0,0.0,0.0,0.0,0.0,0.0,0.0,0.0,3.7007,3.7007,0.0,3.8134,3.9294,3.9294,4.0458,4.1599,0.0,0.0,4.1599,4.1599,4.1599,4.1599,4.1599,4.1599,4.1823,4.2492,4.3114,4.3772,0.0,0.0,0.0,4.5937,0.0,0.0,0.0,4.9255,5.0003,5.0003,5.0003,5.0003,5.0003,5.0003,5.021,5.0668,5.1393,5.2151,5.2935,5.3693,5.4228,5.4504,5.4504,5.4504,5.4504,5.4504,5.4504,0.0,0.0,0.0,0.0,5.4504,5.4504,5.4504,5.4504,5.4504,5.4504,5.4504,5.4504,5.4504,0.0,0.0,0.0,0.0,0.0,0.0,0.0,2.0864,2.1455,2.3014,2.3323,2.371,2.4527,2.4664,2.4704,2.4704,0.0,0.0,0.0,0.0,0.0,0.0,0.0,0.0,0.0,2.8418,2.824,2.8197,2.8136,2.7964,2.7724,2.7978,2.7978,0.0,0.0,0.0,0.0,0.0,0.0,0.0,0.0,3.1015,0.0,0.0,0.0,0.0,0.0,0.0,0.0,0.0,0.0,0.0,0.0,0.0,0.0,0.0,0.0,0.0,0.0,3.8134,3.9294,3.9294,4.0458,4.1599,4.1599,0.0,0.0,4.1599,4.1599,4.1599,4.1599,4.1588,4.1806,4.248,4.3084,4.3754,0.0,4.5083,0.0,0.0,4.7255,0.0,4.873,4.9538,5.0003,5.0003,5.0003,5.0003,5.0003,5.0003,5.0003,5.0003,5.0659,5.1375,5.2117,5.2969,5.3745,5.4417,5.4469,5.4504,5.4504,5.4504,5.4504,0.0,0.0,0.0,0.0,5.4504,5.4504,5.4504,5.4504,5.4504,5.4504,5.4504,5.4504,5.4504,0.0,0.0,0.0,0.0,0.0,0.0,0.0,0.0,0.0,0.0,2.2591,2.3476,2.3671,2.4294,2.4704,0.0,0.0,0.0,0.0,0.0,0.0,0.0,0.0,0.0,0.0,2.8904,2.8603,2.8197,2.8136,2.8071,2.8006,2.8075,2.8071,2.8002,2.8002,0.0,0.0,0.0,0.0,0.0,3.0098,3.1015,0.0,0.0,0.0,0.0,3.2406,3.3007,0.0,0.0,0.0,0.0,0.0,0.0,0.0,0.0,3.7007,3.7007,3.7007,0.0,3.9294,3.9294,4.0458,4.1599,0.0,0.0,0.0,0.0,0.0,4.1599,4.1599,4.1515,4.1676,4.2347,4.2958,4.3582,4.4303,0.0,0.0,4.6496,4.7255,4.7989,4.873,4.9538,5.0003,5.0003,5.0003,5.0003,5.0003,5.0003,5.0003,5.0003,5.0176,5.0607,5.1358,5.2728,5.3494,5.3667,5.4228,5.4504,5.4504,5.4504,5.4504,0.0,0.0,0.0,5.4504,5.4504,5.4504,5.4504,5.4504,5.4504,5.4504,5.4504,5.4504,5.4504,0.0,0.0,0.0,0.0,0.0,0.0,0.0,0.0,0.0,0.0,0.0,0.0,0.0,0.0,0.0,0.0,0.0,0.0,0.0,0.0,0.0,0.0,0.0,0.0,0.0,2.8972,2.864,2.8197,2.8267,2.8219,2.8091,2.8222,2.8216,2.8084,2.7964,0.0,0.0,0.0,0.0,0.0,3.0098,0.0,0.0,0.0,0.0,0.0,3.2406,3.2875,0.0,3.4434,3.5192,3.5937,0.0,0.0,0.0,0.0,3.7007,3.7007,3.7007,3.8134,3.9294,3.9294,4.0458,4.1599,4.1599,0.0,0.0,0.0,0.0,0.0,4.1521,4.1751,4.2155,4.2804,4.3437,0.0,0.0,0.0,4.5697,4.6496,4.7255,4.7989,0.0,4.9538,5.0003,5.0003,5.0003,5.0003,5.0003,5.0003,5.0003,5.0003,5.0003,5.0348,5.1082,5.1934,5.2701,5.3408,5.3797,5.4176,5.4504,5.4504,5.4504,0.0,0.0,0.0,5.4504,5.4504,5.4504,5.4504,5.4504,5.4504,5.4504,5.4504,5.4504,5.4504,0.0,0.0,0.0,0.0,0.0,0.0,0.0,0.0,0.0,0.0,0.0,0.0,0.0,0.0,0.0,0.0,0.0,0.0,0.0,0.0,0.0,0.0,0.0,2.8607,2.9174,2.8866,2.8526,2.8197,2.8535,2.8553,2.8287,2.8683,2.8666,2.8267,2.7878,0.0,0.0,0.0,0.0,0.0,3.0098,0.0,0.0,0.0,0.0,0.0,0.0,0.0,0.0,3.4389,3.5127,3.5784,3.6704,0.0,0.0,0.0,0.0,0.0,3.7007,3.8046,3.9154,3.9277,4.0458,4.1599,4.1599,0.0,0.0,0.0,0.0,0.0,0.0,4.2108,0.0,0.0,0.0,0.0,4.5331,4.5397,4.5748,4.6652,4.7324,0.0,4.8903,4.96,5.0003,5.0003,5.0003,5.0003,5.0003,5.0003,5.0003,5.0003,5.0003,5.0296,5.0927,5.103,5.1762,5.3055,5.3159,5.3607,5.4331,5.4331,5.4383,5.4504,0.0,0.0,5.4504,5.4504,5.4504,5.4504,5.4504,5.4504,5.4504,5.4504,5.4504,5.4504,0.0,0.0,0.0,0.0,0.0,0.0,0.0,0.0,0.0,0.0,0.0,0.0,0.0,0.0,0.0,0.0,0.0,0.0,0.0,0.0,0.0,0.0,2.7599,2.8388,2.9105,2.8799,2.8472,2.8197,2.9135,2.9432,2.9144,3.0086,3.0029,2.9073,2.8125,2.7705,2.7705,2.7705,2.8631,3.0098,3.0098,0.0,0.0,0.0,0.0,0.0,0.0,0.0,0.0,3.4223,3.4785,3.5118,3.6546,0.0,0.0,0.0,0.0,0.0,3.7007,3.7624,3.8457,3.9136,4.0458,4.1599,0.0,0.0,0.0,0.0,0.0,0.0,0.0,4.2334,4.2724,0.0,0.0,4.5285,0.0,0.0,4.5931,4.7358,0.0,4.8255,4.9676,4.9934,5.0003,5.0003,5.0003,5.0003,5.0003,5.0003,5.0003,5.0003,5.0003,5.0055,5.0176,5.0796,5.1228,5.1461,5.2082,5.2797,5.358,5.358,5.39,5.4504,0.0,5.4504,5.4504,5.4504,5.4504,5.4504,5.4504,5.4504,5.4504,5.4504,5.4504,5.4504,0.0,0.0,0.0,0.0,0.0,0.0,0.0,0.0,0.0,0.0,0.0,0.0,0.0,0.0,0.0,0.0,0.0,0.0,0.0,0.0,0.0,2.6606,2.7315,2.7967,2.8597,2.8453,2.8449,2.8574,2.9218,2.9661,2.9943,3.0016,2.9694,2.9046,2.8101,2.7705,2.7726,2.8157,2.9035,3.0133,0.0,0.0,0.0,0.0,0.0,0.0,0.0,0.0,0.0,0.0,3.4697,3.496,3.651,0.0,0.0,0.0,0.0,0.0,3.7007,3.7853,3.8838,3.9206,4.0165,0.0,0.0,0.0,0.0,0.0,0.0,0.0,0.0,0.0,4.377,4.4818,0.0,4.5489,4.541,4.5397,4.5966,0.0,0.0,4.8307,4.9848,5.0003,5.0003,5.0003,5.0003,5.0003,5.0003,5.0003,5.0003,5.0003,5.0003,5.0003,5.0003,5.0331,5.071,5.1099,5.1444,5.2013,5.2779,5.3193,5.3573,5.3935,0.0,5.4504,5.4504,5.4504,5.4504,5.4504,5.4504,5.4504,5.4504,5.4504,5.4504,5.4504,0.0,0.0,0.0,0.0,0.0,0.0,0.0,0.0,0.0,0.0,0.0,0.0,0.0,0.0,0.0,0.0,0.0,0.0,0.0,0.0,2.5896,2.6393,2.6975,2.7561,2.8162,2.8127,2.8358,2.8895,2.9356,3.0082,3.1026,3.0143,2.9542,2.9158,2.8333,2.788,2.7754,2.8561,2.9365,3.0168,0.0,0.0,0.0,0.0,0.0,0.0,0.0,0.0,0.0,0.0,0.0,0.0,0.0,0.0,0.0,3.7007,3.7007,3.7007,3.7007,3.7853,3.8843,3.9206,0.0,0.0,0.0,0.0,0.0,0.0,0.0,0.0,0.0,4.3828,0.0,4.5331,4.5489,4.5522,4.541,4.5397,4.5966,4.7514,4.7703,4.8307,4.9848,5.0003,5.0003,5.0003,5.0003,5.0003,5.0003,5.0003,5.0003,5.0003,5.0003,5.0003,5.0003,5.0003,5.0279,5.0841,5.0841,5.122,5.1961,5.259,5.2952,5.3159,5.3917,5.4245,5.4262,5.4435,5.4504,5.4504,5.4504,5.4504,5.4504,5.4504,5.4504,5.4504,0.0,0.0,0.0,0.0,0.0,0.0,0.0,0.0,0.0,0.0,0.0,0.0,0.0,0.0,0.0,0.0,0.0,0.0,0.0,0.0,2.5486,2.5847,2.6553,2.7296,2.8095,2.7855,2.8117,2.8895,2.991,3.1186,3.2608,3.1563,3.0692,2.9975,2.9172,2.8403,2.7754,2.8561,2.9365,3.0168,3.0896,0.0,0.0,0.0,0.0,0.0,0.0,0.0,0.0,0.0,0.0,0.0,0.0,0.0,3.7007,3.7007,3.7007,3.7007,3.7007,3.7077,3.7506,3.8948,0.0,0.0,0.0,0.0,0.0,0.0,0.0,0.0,0.0,4.488,4.5341,4.538,4.541,4.541,4.5397,0.0,4.5966,4.7514,4.7703,4.8307,4.9848,5.0003,5.0003,5.0003,5.0003,5.0003,5.0003,5.0003,5.0003,5.0003,5.0003,5.0003,5.0003,5.0003,5.0028,5.0072,5.0072,5.0469,5.1168,5.1245,5.1634,5.2341,5.3124,5.3477,5.3529,5.4228,5.4504,5.4504,5.4504,5.4504,5.4504,5.4504,5.4504,5.4504,0.0,0.0,0.0,0.0,0.0,0.0,0.0,0.0,0.0,0.0,0.0,0.0,0.0,0.0,0.0,0.0,0.0,0.0,0.0,0.0,2.584,2.5796,2.6991,2.7704,2.7851,2.7749,2.8333,2.9646,3.1013,3.1978,3.2521,3.1612,3.0812,3.0063,2.926,2.8733,2.8509,2.9295,3.0088,3.0847,3.1637,3.2129,0.0,0.0,0.0,0.0,0.0,0.0,0.0,0.0,3.5192,3.5937,3.6756,3.7007,3.7007,3.7007,3.7007,3.7007,3.7007,3.7331,3.7935,3.9031,0.0,0.0,0.0,0.0,0.0,0.0,0.0,0.0,0.0,0.0,4.5397,4.5397,4.5397,4.5397,4.5397,4.5397,4.5966,4.7514,4.7703,4.8307,4.9848,5.0003,5.0003,5.0003,5.0003,5.0003,5.0003,5.0003,5.0003,5.0003,5.0003,5.0003,5.0003,5.0003,5.0003,5.0003,5.0003,5.0141,5.0434,5.0893,5.1255,5.1565,5.2323,5.2935,5.3425,5.3701,5.409,5.4504,5.4504,5.4504,5.4504,5.4504,5.4504,5.4504,0.0,0.0,0.0,0.0,0.0,0.0,0.0,0.0,0.0,0.0,0.0,0.0,0.0,0.0,0.0,0.0,0.0,0.0,0.0,2.5398,2.6074,2.6056,2.7297,2.7887,2.7691,2.7705,2.8495,3.0098,3.1647,3.2406,3.2392,3.1848,3.1177,3.0418,2.9878,2.9509,2.9334,3.012,3.0738,3.1269,3.2076,3.2406,0.0,0.0,0.0,0.0,0.0,0.0,0.0,0.0,3.536,3.6263,3.6827,3.7007,3.7007,3.7007,3.7007,3.7007,3.7007,3.7542,3.8289,0.0,0.0,0.0,0.0,0.0,0.0,0.0,0.0,0.0,0.0,0.0,0.0,0.0,4.5397,4.5397,4.5397,4.5628,4.6266,4.7548,4.791,4.8565,4.9865,5.0003,5.0003,5.0003,5.0003,5.0003,5.0003,5.0003,5.0003,5.0003,5.0003,5.0003,5.0003,5.0003,5.0003,5.0003,5.0003,5.0003,5.0021,5.0513,5.0745,5.0796,5.153,5.2168,5.2693,5.2935,5.3469,5.4176,5.4417,5.4504,5.4504,5.4504,5.4504,5.4504,0.0,0.0,0.0,0.0,0.0,0.0,0.0,0.0,0.0,0.0,0.0,0.0,0.0,0.0,0.0,0.0,0.0,0.0,0.0,2.5353,2.6046,2.6578,2.7315,2.7705,2.7705,2.7708,2.8509,3.0098,3.1647,3.2406,3.2406,3.2406,3.1967,0.0,3.1203,3.0791,3.0168,3.09,3.1203,3.129,3.2076,3.2406,3.2406,0.0,0.0,0.0,0.0,0.0,0.0,0.0,3.5738,3.7007,3.7007,3.7007,3.7007,3.7007,3.7007,3.7007,3.7007,3.7537,3.8251,0.0,0.0,0.0,0.0,0.0,0.0,0.0,0.0,0.0,0.0,0.0,0.0,4.5397,4.5397,4.5397,4.5397,4.6093,4.6876,4.7617,4.8351,4.9117,4.9917,5.0003,5.0003,5.0003,5.0003,5.0003,5.0003,5.0003,5.0003,5.0003,5.0003,5.0003,5.0003,5.0003,5.0003,5.0003,5.0003,5.0003,5.0003,5.0003,5.0003,5.0038,5.0779,5.1082,5.1151,5.1892,5.2668,5.3469,5.4193,5.4486,5.4504,5.4504,5.4504,5.4504,0.0,0.0,0.0,0.0,0.0,0.0,0.0,0.0,0.0,0.0,0.0,0.0,0.0,0.0,0.0,0.0,0.0,0.0,0.0,2.5702,2.6437,2.6588,2.7315,2.7705,2.7705,2.8245,2.9066,3.0098,3.1647,3.2406,3.2406,3.2406,0.0,3.1203,0.0,3.108,3.09,3.1111,3.1536,3.2059,3.23,3.2406,3.2406,0.0,0.0,0.0,0.0,0.0,0.0,0.0,0.0,0.0,3.7007,3.7007,3.7007,3.7007,3.7007,3.7108,3.7637,3.7905,0.0,0.0,0.0,0.0,0.0,0.0,0.0,0.0,0.0,0.0,0.0,0.0,0.0,4.5397,4.5397,4.5397,4.5397,4.6093,4.6876,4.7617,4.8351,4.9117,4.9917,5.0003,5.0003,5.0003,5.0003,5.0003,5.0003,5.0003,5.0003,5.0003,5.0003,5.0003,5.0003,5.0003,5.0003,5.0003,5.0003,5.0003,5.0003,5.0003,5.0003,5.0003,5.0227,5.0624,5.1151,5.1892,5.2668,5.3425,5.3649,5.4038,5.4504,5.4504,5.4504,5.4504,0.0,0.0,0.0,0.0,0.0,0.0,0.0,0.0,0.0,0.0,2.4208,0.0,0.0,0.0,0.0,0.0,0.0,0.0,0.0,0.0,2.6725,2.7013,2.7455,2.7705,2.7705,2.8495,2.9137,2.9628,3.1177,3.2094,3.2406,3.2406,3.2147,3.1673,0.0,3.1673,3.1673,3.1673,3.1953,3.2406,3.2406,3.2406,3.2406,0.0,0.0,0.0,0.0,0.0,0.0,0.0,0.0,0.0,3.7007,3.7007,3.7007,3.7007,3.7007,3.716,3.79,3.8264,0.0,0.0,0.0,0.0,0.0,0.0,0.0,0.0,0.0,0.0,0.0,4.5397,0.0,4.5397,4.5397,4.5397,4.5397,4.6093,4.6876,4.7617,4.8351,4.9117,4.9917,5.0003,5.0003,5.0003,5.0003,5.0003,5.0003,5.0003,5.0003,5.0003,5.0003,5.0003,5.0003,5.0003,5.0003,5.0003,5.0003,5.0003,5.0003,5.0003,5.0003,5.0003,5.0003,5.0245,5.0728,5.1461,5.2055,5.2555,5.3159,5.3676,5.409,5.4383,5.4504,5.4504,0.0,0.0,2.3863,2.4049,0.0,0.0,0.0,0.0,0.0,0.0,2.4062,2.3993,0.0,0.0,0.0,0.0,0.0,0.0,2.6518,2.6655,2.6995,2.767,2.7705,2.7705,2.7705,2.8421,2.8825,2.8895,3.0444,3.1567,0.0,0.0,3.2406,3.2406,0.0,3.2406,3.2406,3.2406,3.2406,3.2406,3.2406,3.2406,3.241,3.248,0.0,0.0,0.0,0.0,0.0,0.0,0.0,0.0,3.7007,3.7007,3.7007,3.7007,3.6997,3.7163,3.7973,0.0,0.0,3.9997,4.125,0.0,4.4082,0.0,4.5397,4.5397,0.0,4.5397,4.5397,4.5397,4.5397,4.5397,4.5397,4.5397,4.5397,4.6093,4.6841,4.7514,4.83,4.91,4.9814,4.9952,5.0003,5.0003,5.0003,5.0003,5.0003,5.0003,5.0003,5.0003,5.0003,5.0003,5.0003,5.0003,5.0003,5.0003,5.0003,5.0003,5.0003,5.0003,5.0003,5.0003,5.0003,5.0003,5.0055,5.0728,5.103,5.1255,5.2728,5.3339,5.3494,5.4228,5.4504,5.4504,0.0,0.0,2.3814,2.386,0.0,0.0,0.0,0.0,0.0,0.0,0.0,0.0,0.0,0.0,0.0,0.0,0.0,0.0,2.6585,2.7136,2.7529,2.7687,2.7705,2.7705,2.7705,2.7863,2.8267,2.8895,3.0444,0.0,0.0,0.0,0.0,3.2406,0.0,3.2406,3.2406,3.2406,3.2406,3.2406,3.2406,3.2406,3.2458,3.3046,3.3354,0.0,0.0,0.0,0.0,0.0,0.0,0.0,3.7007,3.7007,3.7007,3.7007,3.6933,3.7151,3.8515,3.8861,0.0,0.0,4.1941,4.337,4.4837,4.5283,4.5397,4.5397,4.5397,4.5397,4.5397,4.5397,4.5397,4.5397,4.5397,4.5397,4.5397,4.6093,4.6658,4.6824,4.7996,4.8868,4.9041,4.9624,5.0003,5.0003,5.0003,5.0003,5.0003,5.0003,5.0003,5.0003,5.0003,5.0003,5.0003,5.0003,5.0003,0.0,5.0003,5.0003,5.0003,5.0003,5.0003,5.0003,5.0003,5.0003,5.0003,5.0176,5.059,5.1186,5.2099,5.2848,5.3494,5.4228,5.4504,5.4504,0.0,0.0,0.0,0.0,0.0,0.0,0.0,0.0,0.0,0.0,0.0,0.0,0.0,0.0,0.0,0.0,2.6318,2.69,2.7108,2.7494,2.7705,2.7705,2.7705,2.7705,2.7705,2.7705,2.7893,2.8286,0.0,0.0,0.0,0.0,0.0,3.2406,0.0,3.2406,3.2406,3.2406,3.2406,3.2428,3.2783,3.2932,3.3011,3.3779,3.4284,3.4704,3.5516,0.0,0.0,0.0,0.0,0.0,0.0,0.0,3.7007,3.7007,3.6913,3.7145,3.8676,0.0,0.0,4.1542,0.0,4.3597,4.5059,4.5397,4.5397,4.5397,4.5397,4.5397,4.5397,4.5397,4.5397,4.5397,4.5397,4.5397,4.5397,4.5766,4.6169,4.6548,4.7272,4.8024,4.873,4.9186,4.959,4.9969,5.0003,5.0003,5.0003,5.0003,5.0003,5.0003,5.0003,5.0003,5.0003,5.0003,5.0003,5.0003,5.0003,5.0003,5.0003,5.0003,5.0003,5.0003,5.0003,5.0003,5.0003,5.0003,5.0227,5.0659,5.1393,5.2151,5.2917,5.3693,5.4193,5.4504,0.0,0.0,0.0,0.0,0.0,0.0,0.0,0.0,0.0,0.0,0.0,0.0,0.0,0.0,2.598,0.0,0.0,0.0,2.7656,2.7705,2.7705,2.7705,2.7705,2.7694,2.7683,2.7683,2.7659,0.0,0.0,0.0,0.0,0.0,0.0,3.2345,0.0,3.2362,3.2362,3.2384,3.2476,3.2647,3.324,3.3586,3.3797,3.4582,3.5262,0.0,0.0,3.643,3.7007,3.7007,0.0,0.0,0.0,0.0,3.7007,3.7007,3.6913,3.7145,3.8676,0.0,3.9835,4.253,4.3196,0.0,4.5059,4.5397,4.5397,4.5397,4.5397,4.5397,4.5397,4.5397,4.5397,4.5397,4.5397,4.5397,4.5397,4.5397,4.5645,4.6307,4.6514,4.7083,4.83,4.8541,4.8893,4.9555,4.9727,4.9789,4.9789,4.9917,5.0003,5.0003,5.0003,5.0003,5.0003,5.0003,5.0003,5.0003,5.0003,5.0003,5.0003,5.0003,5.0003,5.0003,5.0003,5.0003,5.0003,5.0003,5.0003,5.0072,5.0814,5.1548,5.2306,5.3107,5.3873,5.4504,0.0,0.0,0.0,0.0,0.0,0.0,0.0,0.0,0.0,0.0,2.5837,0.0,0.0,2.6472,2.6997,2.687,2.7496,2.783,2.7706,0.0,0.0,2.7705,2.7705,2.7668,2.7603,2.7603,2.7587,0.0,0.0,0.0,0.0,0.0,0.0,3.213,0.0,0.0,3.2223,3.2354,3.2766,3.3353,3.3463,3.3929,3.4618,0.0,0.0,0.0,0.0,0.0,3.7007,3.7007,3.7007,0.0,0.0,0.0,3.7007,3.7007,3.6913,3.7145,0.0,0.0,4.1185,0.0,4.3196,4.3597,0.0,0.0,4.5397,0.0,4.5397,4.5397,4.5397,4.5397,4.5397,4.5397,4.5397,4.5397,4.5397,4.5397,4.5432,4.5559,4.6186,4.6676,4.6876,4.7479,4.7893,4.7996,4.86,4.8955,4.8955,4.9617,5.0003,5.0003,5.0003,5.0003,5.0003,5.0003,5.0003,5.0003,5.0003,5.0003,5.0003,5.0003,5.0003,5.0003,5.0003,5.0003,5.0003,5.0003,5.0003,5.0072,5.0814,5.1548,5.2306,5.3107,5.3873,5.4504,0.0,0.0,0.0,0.0,0.0,0.0,0.0,0.0,0.0,0.0,0.0,2.6541,2.6428,2.7079,2.7481,2.7363,2.7671,2.7833,2.7716,2.7705,2.7705,2.7705,2.7653,2.7626,2.7602,2.7564,2.7503,0.0,0.0,0.0,0.0,3.043,3.1259,0.0,0.0,0.0,0.0,0.0,0.0,3.3362,3.3868,3.4506,0.0,0.0,0.0,0.0,0.0,0.0,0.0,0.0,3.6948,3.7007,3.7007,0.0,0.0,0.0,3.6814,0.0,3.8448,3.9944,4.1324,0.0,4.2861,4.3483,4.4533,0.0,4.5397,4.5397,4.5397,4.5397,4.5397,4.5397,4.5397,4.5397,4.5397,4.5397,4.5397,4.5397,4.5397,4.5397,4.5714,4.61,4.6555,4.6893,4.7255,4.7669,4.7996,4.8179,4.8179,4.8903,4.9324,4.9324,4.9762,5.0003,5.0003,5.0003,5.0003,5.0003,5.0003,5.0003,5.0003,5.0003,5.0003,5.0003,5.0003,5.0003,5.0003,5.0003,5.0003,5.0038,5.0365,5.1186,5.2237,5.2599,5.3486,5.4504,0.0,0.0,0.0,0.0,0.0,0.0,0.0,0.0,0.0,0.0,0.0,2.7132,2.7089,0.0,0.0,0.0,2.7705,2.7705,2.7705,2.7683,2.7668,2.7668,2.7607,2.7568,2.7555,2.7506,0.0,0.0,0.0,0.0,2.9817,3.0425,3.117,0.0,3.2041,0.0,0.0,0.0,0.0,0.0,0.0,3.5186,0.0,0.0,0.0,0.0,0.0,0.0,0.0,0.0,0.0,0.0,0.0,0.0,0.0,0.0,0.0,0.0,0.0,0.0,4.1278,4.185,4.2596,4.3396,0.0,0.0,4.5397,0.0,4.5397,4.5397,4.5397,4.5397,4.5397,4.5397,4.5397,4.5397,4.5397,4.5397,4.5397,4.5397,4.5397,4.5645,4.6238,4.6307,4.6514,4.7058,4.7307,4.7427,4.7427,4.811,4.861,4.8799,4.9375,4.9789,5.0003,5.0003,5.0003,5.0003,5.0003,5.0003,5.0003,5.0003,5.0003,5.0003,5.0003,5.0003,5.0003,5.0003,5.0003,5.0003,5.0003,5.0796,5.1944,5.2134,5.3055,5.4245,0.0,0.0,0.0,0.0,0.0,0.0,0.0,0.0,0.0,0.0,0.0,2.7787,2.7584,2.76,2.7626,2.7694,2.7705,2.7705,2.7705,2.7641,2.761,2.761,2.7542,0.0,2.7407,0.0,0.0,0.0,0.0,0.0,3.0636,3.0688,3.1106,3.1823,3.188,3.1908,3.196,0.0,0.0,0.0,0.0,3.5924,0.0,0.0,0.0,0.0,0.0,0.0,0.0,0.0,0.0,0.0,0.0,0.0,0.0,0.0,0.0,0.0,0.0,3.9977,0.0,4.1874,4.2596,0.0,0.0,0.0,4.5397,4.5397,4.5397,4.5397,4.5397,4.5397,4.5397,4.5397,4.5397,4.5397,4.5397,4.5397,4.5397,4.5397,4.5397,4.5414,4.5466,4.5466,4.5483,4.5518,4.6238,4.6658,4.6658,4.7358,4.8075,4.8782,4.8834,4.9238,4.9986,5.0003,5.0003,5.0003,5.0003,5.0003,5.0003,5.0003,5.0003,5.0003,5.0003,5.0003,5.0003,5.0003,5.0003,5.0003,5.0003,5.0469,5.1237,5.1944,5.272,5.3555,0.0,0.0,0.0,0.0,0.0,0.0,0.0,0.0,0.0,0.0,0.0,0.0,0.0,2.756,2.7553,2.7566,2.7569,2.7569,2.7569,2.7557,2.7538,2.7538,2.7471,2.7427,2.7392,0.0,0.0,0.0,0.0,3.017,3.0705,3.1188,3.1546,3.1804,3.1824,3.2092,3.2563,3.2877,0.0,0.0,3.529,3.5847,0.0,0.0,0.0,0.0,0.0,0.0,0.0,0.0,0.0,0.0,0.0,0.0,0.0,0.0,0.0,0.0,0.0,0.0,0.0,4.1275,4.2258,4.3276,4.3534,4.4527,4.5397,4.5397,4.5397,4.5397,4.5397,4.5397,4.5397,4.5397,4.5397,4.5397,4.5397,4.5397,4.5397,4.5397,4.5397,4.5397,4.5397,4.5397,4.5397,4.5397,4.5662,4.5835,4.5835,4.6565,4.7117,4.7376,4.83,4.9186,4.9986,5.0003,5.0003,5.0003,5.0003,5.0003,5.0003,5.0003,5.0003,5.0003,5.0003,5.0003,5.0003,5.0003,5.0003,5.0003,5.0003,5.0452,5.1186,5.1927,5.271,5.3511,0.0,0.0,0.0,0.0,0.0,0.0,0.0,0.0,0.0,0.0,0.0,0.0,0.0,0.0,2.7486,2.7496,2.75,2.75,2.75,2.7473,2.7471,2.7471,2.7403,2.7477,2.7733,0.0,0.0,0.0,0.0,0.0,0.0,0.0,3.1925,3.2162,3.2162,0.0,0.0,0.0,0.0,3.523,0.0,3.5942,3.6317,0.0,0.0,0.0,0.0,0.0,0.0,0.0,0.0,0.0,0.0,0.0,0.0,0.0,0.0,0.0,3.8944,0.0,0.0,0.0,4.1861,4.2861,4.3144,4.416,4.51,4.5345,4.5397,4.5397,4.5397,4.5397,4.5397,4.5397,4.5397,4.5397,4.5397,4.5397,4.5397,4.5397,4.5397,4.5397,4.5397,4.5397,4.5397,4.5397,4.5397,0.0,4.5397,4.591,4.6324,4.6583,4.8031,4.9058,4.9582,4.9865,5.0003,5.0003,5.0003,5.0003,5.0003,5.0003,5.0003,5.0003,5.0003,5.0003,5.0003,5.0003,5.0003,5.0003,5.0003,5.0452,5.1186,5.1927,5.271,5.3511,0.0,0.0,0.0,0.0,0.0,0.0,0.0,0.0,0.0,0.0,0.0,0.0,0.0,0.0,0.0,2.7488,2.7496,2.7496,2.7496,2.7456,2.7426,2.7426,2.7394,2.77,2.842,0.0,0.0,0.0,0.0,0.0,0.0,0.0,3.2214,0.0,3.2955,3.2968,3.3071,0.0,3.5202,3.5288,0.0,3.6301,3.6301,0.0,0.0,0.0,3.6353,3.6455,0.0,0.0,0.0,0.0,0.0,0.0,0.0,0.0,0.0,0.0,0.0,0.0,0.0,0.0,0.0,0.0,4.2988,4.3741,4.4505,4.5214,4.538,4.5397,4.5397,4.5397,4.5397,4.5397,4.5397,4.5397,4.5397,4.5397,4.5397,4.5397,4.5397,4.5397,4.5397,4.5397,4.5397,4.5397,4.5397,4.5397,4.5397,4.5397,4.5766,4.6565,4.7989,4.8765,4.8799,4.9565,4.9986,5.0003,5.0003,5.0003,5.0003,5.0003,5.0003,5.0003,5.0003,5.0003,5.0003,5.0003,5.0003,5.0003,5.0003,5.0452,5.1186,5.1927,5.271,5.3511,0.0,0.0,0.0,0.0,0.0,0.0,0.0,0.0,0.0,0.0,0.0,0.0,0.0,0.0,2.7346,2.7353,2.736,2.736,2.736,2.7847,2.8121,2.8121,2.8622,2.8985,2.9192,0.0,0.0,0.0,0.0,0.0,0.0,0.0,0.0,0.0,3.4076,3.4559,3.4599,3.5012,0.0,0.0,3.6215,3.6301,0.0,0.0,0.0,0.0,0.0,3.7984,3.8023,0.0,3.8045,3.8067,0.0,0.0,0.0,0.0,0.0,0.0,3.9641,0.0,0.0,0.0,0.0,0.0,4.2286,4.3356,4.4356,4.455,4.5037,4.5397,4.5397,4.5397,4.5397,4.5397,4.5397,4.5397,4.5397,4.5397,4.5397,4.5397,4.5397,4.5397,4.5397,4.5397,4.5397,0.0,4.5397,4.5397,4.5397,4.5397,4.5766,4.6565,4.6996,4.772,4.8782,4.9024,4.9427,5.0003,5.0003,5.0003,5.0003,5.0003,5.0003,5.0003,5.0003,5.0003,5.0003,5.0003,5.0003,5.0003,5.0003,5.0452,5.1186,5.1927,5.271,5.3511,0.0,0.0,2.7307,2.7307,0.0,0.0,2.7307,0.0,0.0,0.0,0.0,0.0,0.0,0.0,0.0,2.773,2.7751,2.7889,2.8196,2.8627,2.8868,2.8868,2.9261,2.9657,2.9989,0.0,0.0,0.0,0.0,0.0,0.0,0.0,0.0,0.0,0.0,0.0,0.0,0.0,0.0,0.0,3.6668,0.0,0.0,3.7657,3.7956,0.0,0.0,0.0,3.8606,3.8606,3.8606,0.0,0.0,0.0,0.0,0.0,0.0,0.0,0.0,0.0,0.0,0.0,0.0,0.0,4.1935,4.2942,4.3931,4.4235,4.4889,4.5397,4.5397,4.5397,4.5397,4.5397,4.5397,4.5397,4.5397,4.5397,4.5397,4.5397,4.5397,4.5397,4.5397,4.5397,4.5397,4.5397,4.5397,4.5397,4.5397,4.5397,4.5604,4.6083,4.641,4.7169,4.8334,4.8644,4.9203,5.0003,5.0003,5.0003,5.0003,5.0003,5.0003,5.0003,5.0003,5.0003,5.0003,5.0003,5.0003,5.0003,5.0003,5.0641,5.1617,5.2048,5.2892,5.3917,0.0,0.0,2.7307,2.7307,2.7307,2.7307,0.0,0.0,0.0,0.0,0.0,0.0,0.0,0.0,0.0,0.0,2.8519,2.8795,2.9463,2.9588,2.9605,2.9554,2.9614,2.9992,3.0715,3.0018,0.0,0.0,0.0,0.0,0.0,0.0,0.0,0.0,3.5288,3.5685,0.0,0.0,0.0,3.6496,3.7208,3.7559,0.0,0.0,3.8721,0.0,3.883,3.8864,3.8864,3.8864,3.8864,0.0,0.0,0.0,0.0,0.0,3.9825,0.0,0.0,0.0,0.0,0.0,0.0,0.0,4.1734,4.2499,4.3241,4.3914,4.4699,4.5283,4.5283,4.5335,4.5397,4.5397,4.5397,4.5397,4.5397,4.5397,4.5397,4.5397,4.5397,4.5397,4.5397,4.5397,4.5397,4.5397,4.5397,4.5397,4.5397,4.5397,4.5397,4.5397,4.6093,4.6858,4.7679,4.8358,4.9117,5.0003,5.0003,5.0003,5.0003,5.0003,5.0003,5.0003,5.0003,5.0003,5.0003,5.0003,5.0003,5.0003,5.0003,5.09,5.2203,5.2203,5.3185,5.4504,2.7307,2.7307,2.7307,2.7307,2.7307,2.7307,2.7307,0.0,0.0,0.0,0.0,0.0,0.0,0.0,0.0,0.0,2.9295,2.9347,2.9485,3.0114,3.0295,2.9923,3.0369,3.0729,3.0934,3.068,0.0,0.0,0.0,0.0,0.0,0.0,0.0,0.0,3.5818,3.6163,0.0,0.0,0.0,3.7277,3.7438,0.0,3.8468,3.9204,3.9497,3.9566,4.0216,4.0457,4.0457,0.0,4.0457,4.0457,0.0,0.0,0.0,0.0,0.0,0.0,0.0,0.0,0.0,0.0,0.0,0.0,4.1078,4.1699,4.2263,4.2418,4.3539,4.4505,4.4505,4.5003,4.5397,4.5397,4.5397,4.5397,4.5397,4.5397,4.5397,4.5397,4.5397,4.5397,4.5397,4.5397,4.5397,4.5397,4.5397,4.5397,4.5397,4.5397,4.5397,4.5397,4.5552,4.63,4.7686,4.7834,4.8617,5.0003,5.0003,5.0003,5.0003,5.0003,5.0003,5.0003,5.0003,5.0003,5.0003,5.0003,5.0003,5.0003,5.0003,5.09,5.2203,5.2203,5.3185,5.4504,2.7307,2.7307,2.7307,2.7307,2.7307,2.7307,2.7307,0.0,0.0,0.0,0.0,0.0,0.0,0.0,0.0,0.0,0.0,0.0,0.0,3.1576,3.1412,3.0589,3.0773,3.0924,3.1006,3.1232,3.1478,0.0,0.0,0.0,0.0,0.0,0.0,0.0,0.0,0.0,0.0,0.0,3.7709,3.8088,3.845,0.0,3.9221,3.9997,4.0296,4.0348,4.0768,4.0906,4.0906,4.0906,4.0906,0.0,0.0,4.0906,4.0906,0.0,4.0906,4.0906,0.0,0.0,0.0,4.0906,0.0,0.0,0.0,4.1475,4.2004,4.2004,4.2924,4.3862,4.4225,4.4609,4.4969,4.5335,4.5397,4.5397,4.5397,4.5397,4.5397,4.5397,4.5397,4.5397,4.5397,4.5397,4.5397,4.5397,4.5397,4.5397,4.5397,4.5397,4.5397,4.5397,4.5397,4.5955,4.7134,4.7514,4.8272,4.941,4.9814,5.0003,5.0003,5.0003,5.0003,5.0003,5.0003,5.0003,5.0003,5.0003,5.0003,5.0003,5.0003,5.09,5.2203,5.2203,5.3185,5.4504,2.7234,2.7234,2.7234,2.7234,2.7234,2.7294,2.7469,2.8007,0.0,0.0,0.0,0.0,0.0,0.0,0.0,0.0,0.0,0.0,0.0,0.0,3.2434,3.1384,3.1101,3.1003,3.1058,3.1507,3.1795,3.1914,0.0,0.0,0.0,0.0,0.0,0.0,0.0,0.0,0.0,0.0,0.0,3.8882,0.0,3.9928,3.9997,4.0641,4.0906,4.0923,4.1061,4.1113,4.1147,4.1291,0.0,4.1343,4.1343,4.1343,0.0,0.0,0.0,0.0,0.0,0.0,0.0,0.0,0.0,4.0906,0.0,0.0,0.0,0.0,0.0,0.0,0.0,0.0,0.0,4.5083,0.0,0.0,0.0,4.5317,0.0,4.5397,4.5397,4.5397,4.5397,4.5397,4.5397,4.5397,4.5397,4.5397,4.5397,4.5397,4.5397,4.5397,4.5397,4.5783,4.6583,4.7324,4.8065,4.8817,4.9617,5.0003,5.0003,5.0003,5.0003,5.0003,5.0003,5.0003,5.0003,5.0003,5.0003,5.0003,5.0159,5.103,5.222,5.2375,5.3306,5.4504,2.7024,2.7024,2.7024,2.7024,2.7024,2.7283,2.8071,2.8256,0.0,0.0,0.0,0.0,0.0,0.0,0.0,0.0,0.0,0.0,3.3614,0.0,0.0,3.2197,3.158,3.1264,3.1272,3.1211,3.1454,3.1983,0.0,0.0,0.0,0.0,0.0,0.0,3.6885,0.0,0.0,0.0,3.9497,0.0,4.0434,4.0768,0.0,4.0877,4.0906,4.0992,4.1648,4.1889,4.1987,0.0,4.2937,4.2937,0.0,4.2937,4.2792,0.0,0.0,0.0,0.0,0.0,0.0,0.0,4.0906,0.0,0.0,0.0,4.1027,4.1027,0.0,0.0,0.0,0.0,0.0,0.0,0.0,0.0,4.4522,4.4986,4.5397,4.5397,4.5397,4.5397,4.5397,4.5397,4.5397,4.5397,4.5397,4.5397,4.5397,4.5397,4.5397,4.5397,4.5397,4.5783,4.6583,4.7324,4.8065,4.8817,4.9617,5.0003,5.0003,5.0003,5.0003,5.0003,5.0003,5.0003,5.0003,5.0003,5.0003,5.0055,5.0728,5.1479,5.2289,5.3004,5.3797,5.4504,2.7145,2.6995,2.7132,2.7558,2.7644,2.7917,2.8708,0.0,0.0,0.0,0.0,0.0,0.0,0.0,0.0,0.0,0.0,3.4499,0.0,0.0,0.0,3.2432,3.1703,3.1307,3.1308,3.1596,3.1994,3.252,3.3565,0.0,0.0,0.0,0.0,0.0,3.6932,0.0,3.7588,0.0,3.9629,0.0,0.0,0.0,0.0,4.1544,4.1826,4.2275,4.2585,4.2706,4.2758,0.0,4.3196,0.0,0.0,0.0,0.0,0.0,0.0,0.0,0.0,0.0,0.0,0.0,0.0,0.0,4.224,0.0,4.224,0.0,0.0,0.0,0.0,0.0,0.0,0.0,4.5203,0.0,0.0,0.0,4.5397,0.0,0.0,0.0,4.5397,4.5397,4.5397,4.5397,4.5397,4.5397,4.5397,4.5397,4.5397,4.5397,4.5397,4.5559,4.5904,4.71,4.7858,4.8179,4.941,5.0003,5.0003,5.0003,5.0003,5.0003,5.0003,5.0003,5.0003,5.0003,5.0003,5.0124,5.1272,5.1927,5.2306,5.3107,5.3873,5.4504,2.7362,0.0,0.0,0.0,0.0,2.842,2.9235,0.0,0.0,0.0,0.0,0.0,3.5368,3.6048,0.0,0.0,0.0,3.5787,0.0,0.0,3.3797,3.3284,3.2566,0.0,0.0,3.2305,3.2602,3.2758,3.3686,0.0,0.0,0.0,0.0,0.0,0.0,3.7894,3.8103,0.0,0.0,4.0036,4.0716,4.1633,4.2558,4.2394,4.2683,4.323,4.3437,4.3506,4.3534,4.3735,4.3798,0.0,4.3798,0.0,0.0,0.0,0.0,0.0,4.3241,0.0,0.0,0.0,0.0,0.0,0.0,0.0,0.0,0.0,0.0,0.0,0.0,0.0,0.0,0.0,0.0,4.5328,0.0,4.5266,0.0,0.0,0.0,0.0,0.0,4.5397,4.5397,4.5397,0.0,4.5397,4.5397,4.5397,4.5397,4.5397,4.5397,4.5397,4.5397,4.6921,4.7703,4.772,4.9255,5.0003,5.0003,5.0003,5.0003,5.0003,5.0003,5.0003,5.0003,5.0003,5.0124,5.0434,5.1703,5.2293,5.2546,5.3385,5.4007,5.444,2.7588,2.8305,0.0,0.0,0.0,0.0,0.0,0.0,0.0,0.0,0.0,0.0,0.0,0.0,0.0,0.0,0.0,3.7556,3.6957,0.0,3.5845,3.525,3.4684,3.4064,0.0,0.0,3.3048,3.2413,0.0,0.0,0.0,0.0,0.0,0.0,0.0,3.9216,3.9388,4.0157,4.0549,4.0737,4.1469,4.2683,4.3963,0.0,4.3178,4.3293,4.4018,0.0,0.0,4.51,4.5328,0.0,0.0,0.0,0.0,0.0,0.0,0.0,0.0,0.0,0.0,4.3196,0.0,0.0,0.0,0.0,4.3196,0.0,0.0,0.0,0.0,0.0,0.0,0.0,0.0,0.0,0.0,0.0,0.0,0.0,0.0,0.0,0.0,4.5397,4.5397,0.0,4.5397,4.5397,4.5397,4.5397,4.5397,4.5397,4.5397,4.5397,4.5397,4.6921,4.7703,4.772,4.9255,5.0003,5.0003,5.0003,5.0003,5.0003,5.0003,5.0003,5.0003,5.0003,5.0417,5.1134,5.191,5.2559,5.3172,5.4121,5.4358,5.4247,2.9054,0.0,0.0,0.0,0.0,0.0,0.0,3.2116,0.0,0.0,0.0,0.0,0.0,3.7488,3.7266,0.0,0.0,3.6231,3.6018,3.5423,0.0,0.0,0.0,3.439,0.0,0.0,0.0,0.0,0.0,0.0,0.0,0.0,0.0,0.0,0.0,3.9272,0.0,0.0,0.0,0.0,0.0,4.3502,4.3943,0.0,0.0,4.442,4.4677,4.4829,0.0,4.5181,4.5338,4.5397,4.5397,4.5397,4.5345,4.51,4.5037,0.0,0.0,0.0,4.4658,4.4658,0.0,0.0,0.0,0.0,0.0,0.0,0.0,0.0,0.0,0.0,0.0,0.0,0.0,0.0,0.0,0.0,0.0,0.0,0.0,0.0,0.0,0.0,0.0,0.0,4.5397,0.0,4.5397,4.5397,4.5397,4.5397,4.5397,4.5397,4.5397,4.6921,4.7703,4.772,4.9255,5.0003,5.0003,5.0003,5.0003,5.0003,5.0003,5.0003,5.0003,5.0003,5.0434,5.1161,5.1804,5.2491,5.3191,5.3995,5.4207,5.4094,2.9296,0.0,0.0,0.0,0.0,0.0,0.0,0.0,0.0,0.0,3.562,0.0,3.772,0.0,3.7739,0.0,3.7387,3.7121,3.69,3.6271,0.0,3.6207,3.5568,0.0,0.0,0.0,0.0,0.0,0.0,3.5799,0.0,0.0,0.0,0.0,0.0,3.9579,3.9692,0.0,4.0968,0.0,0.0,4.3955,0.0,0.0,4.4527,4.5073,0.0,4.516,4.5274,4.5274,4.5338,4.5397,4.5397,4.5397,4.5397,4.5397,4.5397,4.5397,4.5397,4.5397,0.0,4.5397,4.5397,0.0,4.5397,0.0,0.0,0.0,0.0,0.0,0.0,0.0,0.0,4.5397,4.5397,0.0,0.0,4.5397,0.0,0.0,0.0,0.0,0.0,0.0,4.5397,4.5397,4.5397,4.5397,0.0,0.0,4.5397,4.5397,4.5397,4.5397,4.5397,4.6921,4.7703,4.772,4.9255,5.0003,5.0003,5.0003,5.0003,5.0003,5.0003,5.0003,5.0003,5.0003,5.059,5.1533,5.1871,5.2585,5.3473,5.3954,5.4078,5.4005,2.8498,2.9015,0.0,0.0,3.0609,0.0,0.0,0.0,3.4191,0.0,3.5904,3.6072,3.7304,3.8013,3.8423,3.8454,3.9527,0.0,3.9393,3.8762,0.0,0.0,3.6907,3.6253,3.5614,0.0,0.0,0.0,0.0,0.0,0.0,0.0,0.0,0.0,3.9754,0.0,4.0191,4.0899,4.1315,4.1624,4.3073,4.4106,4.4786,4.4647,4.4838,4.517,4.5163,4.5254,4.5371,4.5371,4.5371,4.5384,4.5384,4.5384,4.5384,4.539,4.539,4.5384,4.5397,4.5397,4.539,4.5397,0.0,0.0,0.0,0.0,4.5384,0.0,0.0,0.0,0.0,0.0,0.0,0.0,0.0,0.0,0.0,0.0,0.0,0.0,0.0,0.0,0.0,0.0,4.5397,4.5397,4.5397,4.5397,0.0,0.0,4.5397,4.5397,4.5397,4.5397,4.5397,4.6921,4.7703,4.772,4.9255,5.0003,5.0003,5.0003,5.0003,5.0003,5.0003,5.0003,5.0003,5.0038,5.0893,5.2172,5.2079,5.2825,5.3989,5.3989,5.3989,5.3989,2.9885,3.0024,3.0483,0.0,3.1916,3.2308,0.0,0.0,0.0,0.0,3.6461,3.7281,3.8053,3.8349,3.8659,3.9101,3.9022,0.0,0.0,0.0,0.0,3.8246,3.76,3.7153,3.6992,3.6499,0.0,3.5999,0.0,0.0,3.7774,0.0,0.0,0.0,0.0,0.0,4.0933,4.1113,4.1843,4.297,4.3955,4.447,0.0,0.0,4.473,4.4893,4.4783,4.4838,4.4954,4.4954,4.5022,4.5093,4.5093,4.5093,4.512,4.5227,4.518,4.5157,4.5351,4.5338,4.5274,4.5377,4.5338,4.5254,0.0,0.0,0.0,0.0,0.0,0.0,0.0,0.0,0.0,0.0,0.0,0.0,0.0,0.0,0.0,4.5397,0.0,0.0,0.0,4.5397,4.5397,4.5397,4.5397,4.5397,4.5397,0.0,0.0,4.5397,4.5397,4.5397,4.5397,4.6921,4.7703,4.772,4.9255,5.0003,5.0003,5.0003,5.0003,5.0003,5.0003,5.0003,5.0038,5.059,5.1315,5.2096,5.2449,5.3022,5.3626,5.3626,5.3626,5.3635,3.0402,3.0876,0.0,3.3089,0.0,0.0,3.4252,3.5237,0.0,3.633,3.7292,0.0,3.8403,3.8736,3.9079,3.9409,3.9408,0.0,3.9368,0.0,0.0,3.8938,3.83,3.7938,3.7938,3.7569,0.0,3.6946,0.0,0.0,3.7919,0.0,0.0,0.0,0.0,3.984,0.0,4.1774,4.2838,4.3961,4.4415,0.0,0.0,4.4608,4.464,4.4709,4.4636,4.4713,4.4893,4.4893,4.493,4.4998,4.4998,4.4998,4.5012,4.5093,4.5106,4.5113,4.5204,4.5264,4.5274,4.5244,4.5214,4.5177,4.5133,4.5052,4.4998,0.0,0.0,0.0,0.0,0.0,0.0,0.0,0.0,0.0,0.0,0.0,0.0,0.0,4.5397,0.0,0.0,4.5397,4.5397,4.5397,4.5397,4.5397,4.5397,0.0,0.0,4.5397,4.5397,4.5397,4.5397,4.6921,4.7703,4.772,4.9255,5.0003,5.0003,5.0003,5.0003,5.0003,5.0003,5.0003,5.0048,5.0705,5.1388,5.2078,5.288,5.331,5.3492,5.3492,5.3492,5.3526,3.0931,0.0,0.0,0.0,0.0,0.0,0.0,3.6315,0.0,3.7538,0.0,3.8638,3.8638,3.923,3.963,3.963,0.0,4.0498,4.0498,3.9944,3.963,3.963,3.8984,3.8638,3.8638,3.8538,0.0,0.0,0.0,0.0,0.0,0.0,0.0,0.0,0.0,0.0,0.0,4.2707,4.3961,4.4608,4.4608,4.4608,4.4608,4.4608,4.4608,4.4608,4.4608,4.4758,4.4944,4.4944,4.4944,4.4944,4.4944,4.4944,4.4944,4.4964,4.5046,4.5089,4.5019,4.5164,4.5271,4.5046,4.508,4.512,4.4998,4.4951,4.4944,4.4944,4.4944,4.4944,0.0,0.0,0.0,0.0,0.0,0.0,0.0,0.0,0.0,0.0,0.0,0.0,0.0,4.5397,4.5397,4.5397,4.5397,4.5397,4.5397,0.0,0.0,4.5397,4.5397,4.5397,4.5397,0.0,4.7703,4.772,4.9255,5.0003,5.0003,5.0003,5.0003,5.0003,5.0003,5.0003,5.0041,5.0695,5.147,5.2317,5.3289,5.3601,5.3492,5.3492,5.3492,5.3517,0.0,0.0,0.0,0.0,0.0,3.6699,3.7815,3.76,3.7569,3.8238,3.8907,3.9322,3.9322,3.9914,4.0329,4.0329,4.0428,0.0,0.0,0.0,0.0,4.0329,3.9683,3.9322,3.9322,3.8784,3.8438,0.0,0.0,0.0,0.0,0.0,0.0,0.0,0.0,0.0,4.2135,4.371,0.0,4.4608,4.4608,4.4608,4.4608,4.4608,4.4608,4.4608,4.4608,4.4626,4.4668,4.4668,4.4668,4.4668,4.4668,4.4668,4.4689,4.4803,4.4769,4.4758,4.4954,4.4944,4.492,4.4978,4.4923,4.4865,4.4838,4.4758,4.4668,4.4668,4.4668,4.4709,4.481,0.0,0.0,0.0,0.0,0.0,0.0,0.0,0.0,0.0,0.0,4.5397,0.0,0.0,4.5397,4.5397,4.5397,4.5397,4.5397,0.0,0.0,0.0,4.5397,0.0,0.0,0.0,4.7703,4.772,4.9255,5.0003,5.0003,5.0003,5.0003,5.0003,5.0003,5.0003,5.0092,5.1287,5.2427,5.3409,5.3508,5.3526,5.3492,5.3492,5.3492,5.3501,0.0,0.0,0.0,0.0,0.0,0.0,0.0,3.8738,0.0,3.8977,3.9599,4.003,4.003,4.0313,4.0498,4.0498,4.0498,4.0498,4.0498,4.0498,4.0498,4.0498,4.019,0.0,4.003,3.9707,3.9368,3.9023,0.0,0.0,0.0,0.0,0.0,0.0,0.0,4.1106,0.0,0.0,0.0,4.4563,4.4186,4.4267,4.4608,4.4608,4.4608,4.4549,4.4172,4.4281,4.4608,4.4608,4.4608,4.4608,4.4608,4.4608,4.4605,4.4675,4.4702,4.4723,4.4786,4.4845,4.4893,4.4803,4.4806,4.4776,4.4716,4.464,4.4608,4.4608,4.4608,4.4612,4.4682,4.4803,0.0,0.0,0.0,0.0,0.0,0.0,0.0,0.0,0.0,0.0,0.0,0.0,0.0,0.0,0.0,4.5397,4.5397,0.0,4.5397,0.0,0.0,0.0,0.0,0.0,0.0,4.772,4.9255,5.0003,5.0003,5.0003,5.0003,5.0003,5.0003,5.0227,5.0671,5.1909,5.2884,5.3593,5.3526,5.3492,5.3492,5.3492,5.3492,5.3492,0.0,3.6993,0.0,0.0,3.8394,0.0,3.9538,3.9697,3.9714,3.9714,4.0175,4.0498,4.0498,4.0498,4.0498,4.0498,4.0498,4.0498,4.0498,4.0498,4.0498,4.0498,4.0498,4.0498,4.0498,4.0498,4.0237,0.0,0.0,0.0,0.0,0.0,0.0,0.0,0.0,0.0,0.0,0.0,4.3839,4.4317,4.3728,4.3847,4.4345,4.4217,4.4143,4.4085,4.3506,4.3663,4.4172,4.4317,4.4461,4.457,4.4419,4.4468,4.4608,4.4608,4.4675,4.472,4.4626,4.4748,4.4865,4.4654,4.4682,4.4737,4.4619,4.4608,4.4608,4.4608,4.4608,4.4605,4.4633,4.4709,0.0,0.0,0.0,0.0,0.0,0.0,0.0,0.0,0.0,0.0,4.5397,0.0,0.0,0.0,0.0,4.5397,4.5397,4.5397,4.5397,0.0,0.0,4.5397,4.5397,0.0,4.7703,4.772,4.9226,4.9957,5.0003,4.9957,4.9957,5.0003,5.0003,5.0467,5.1317,5.2327,5.3045,5.3492,5.3492,5.3492,5.3492,5.3492,5.3492,5.3492,0.0,0.0,0.0,0.0,0.0,0.0,4.0106,4.0335,4.0406,4.0406,4.0467,4.0498,4.0498,4.0498,4.0498,4.0498,4.0498,4.0498,4.0498,4.0498,4.0498,4.0498,4.0498,4.0498,4.0498,4.0498,4.0467,0.0,0.0,0.0,0.0,0.0,0.0,0.0,0.0,0.0,0.0,4.2984,4.3534,4.361,4.3527,4.3542,4.3534,4.2931,4.27,4.2692,4.2622,4.2637,4.2792,4.34,4.4054,4.4475,4.3818,4.4069,4.4608,4.4608,4.4605,4.4629,4.4598,4.4612,4.4626,4.4615,4.4605,4.4629,4.4598,4.4608,4.4608,4.4608,4.4608,4.4633,4.4755,4.4689,4.4661,0.0,0.0,0.0,0.0,0.0,0.0,0.0,0.0,0.0,0.0,4.5397,4.5397,0.0,4.5397,4.5397,4.5397,4.5397,4.5397,4.5397,0.0,4.5397,4.5397,4.6921,4.7703,4.772,4.9084,4.9813,4.9996,4.9806,4.9838,5.0003,5.0003,5.0626,5.169,5.2361,5.2964,5.3492,5.3492,5.3492,5.3492,5.3492,5.3492,5.3492,0.0,0.0,0.0,0.0,0.0,0.0,0.0,4.0172,4.0207,4.0207,4.0383,4.0498,4.0498,4.0498,4.0498,4.0498,4.0498,4.0498,4.0498,4.0498,4.0498,4.0498,4.0498,4.0498,4.0498,4.0498,4.0498,0.0,0.0,0.0,0.0,0.0,0.0,0.0,0.0,4.1722,4.2102,4.2245,4.2536,4.2853,4.2466,4.2544,4.2877,4.2606,4.2505,4.245,4.2037,4.2157,4.2426,4.1884,4.2692,4.3965,4.4112,4.436,4.4608,4.4608,4.4608,4.4608,4.4608,4.4608,4.4608,4.4608,4.4608,4.4608,4.4608,4.4608,4.4608,4.4608,4.4608,4.4629,4.4668,4.4633,4.4612,0.0,0.0,0.0,0.0,0.0,0.0,0.0,0.0,0.0,0.0,4.5357,4.5397,4.5397,0.0,4.5397,4.5397,4.5397,4.5397,4.5397,0.0,4.5621,4.6117,4.7169,4.7927,4.8368,4.9387,4.9928,5.0003,4.9921,4.9928,5.0031,5.0855,5.1386,5.1779,5.2839,5.3346,5.3492,5.3492,5.3492,5.3492,5.3492,5.3492,5.3492,3.8927,0.0,3.9616,0.0,3.9655,3.975,3.9889,3.996,4.0011,4.0011,4.0215,4.0375,4.0436,4.0444,4.047,4.0505,4.0498,4.0498,4.0498,4.0498,4.0498,4.0498,4.0498,0.0,4.0498,4.0498,4.0498,4.0498,4.0498,0.0,0.0,0.0,0.0,0.0,4.1209,4.1468,4.1885,4.1616,4.1771,4.2165,4.169,4.1787,4.2181,4.1997,4.1901,4.1852,4.1384,4.1517,4.1804,4.1049,4.1739,4.2999,4.3523,4.3812,4.3982,4.3982,4.3982,4.3982,4.3982,4.4129,4.4222,4.4025,4.4288,4.4542,4.4331,4.444,4.4608,4.4608,4.4608,4.4608,4.4608,4.4608,4.4608,4.4608,0.0,0.0,0.0,0.0,0.0,0.0,4.5127,4.5227,4.5254,4.5334,4.5397,0.0,0.0,4.5397,4.5397,4.5397,0.0,0.0,0.0,0.0,0.0,4.7324,4.8065,4.8817,4.9556,4.9943,5.0003,5.0003,5.0124,5.0385,5.144,5.1947,5.2104,5.319,5.3593,5.3492,5.3492,5.3492,5.3492,5.3492,5.3492,5.3492,3.9391,3.9391,3.9406,3.9406,3.9571,3.969,3.969,3.9872,4.0011,4.0011,4.0011,4.0075,4.0285,4.0303,4.0364,4.0481,4.0498,4.0498,4.0498,4.0498,4.0498,0.0,0.0,4.0498,4.0498,4.0498,4.0498,4.0498,0.0,0.0,3.9507,0.0,3.9876,4.0507,4.0507,4.0515,4.0567,4.1218,4.1509,4.1517,4.1501,4.1509,4.1435,4.0783,4.0524,4.0515,4.0515,4.0515,4.0612,4.1276,4.1509,4.1533,4.1533,4.1989,4.2536,4.2536,4.2536,4.2536,4.2536,4.3007,4.3347,4.2692,4.3567,4.4412,4.3676,4.4083,4.4608,4.4608,4.4608,4.4608,4.4608,4.4608,4.4608,4.4608,0.0,0.0,0.0,0.0,0.0,0.0,4.5127,4.5254,4.5384,4.5397,0.0,0.0,0.0,0.0,0.0,0.0,0.0,4.5397,4.5397,0.0,4.6583,4.7324,4.8065,4.8817,4.9406,4.9806,5.0003,5.0003,5.04,5.1119,5.1525,5.212,5.283,5.3304,5.3492,5.3492,5.3492,5.3492,5.3492,5.3492,5.3492,5.3492,3.9406,3.9406,3.9406,3.9406,3.9445,3.9499,3.9499,3.9559,3.9595,3.9595,3.9595,3.9676,3.9874,4.0007,4.011,0.0,4.0279,4.0357,0.0,4.0453,4.0498,4.0498,4.0498,4.0498,4.0498,4.0498,4.0498,4.0498,0.0,0.0,0.0,4.0175,4.0298,4.0498,4.0498,4.0498,4.0507,4.0732,4.0819,4.0819,4.0819,4.0819,4.0785,4.0584,4.0498,4.0498,4.0498,4.0498,4.0533,4.0758,4.1145,4.1572,4.1572,4.1995,4.2505,4.2505,4.2505,4.2505,4.2505,4.2661,4.2777,4.256,4.2847,4.322,4.3453,4.4076,4.4608,4.4608,4.4608,4.4608,4.4608,4.4608,4.4608,4.4608,4.4608,0.0,0.0,0.0,0.0,0.0,4.4845,4.4988,4.5106,4.5207,0.0,0.0,0.0,0.0,0.0,0.0,0.0,0.0,4.5938,0.0,4.7341,4.8075,4.8841,4.9617,4.9815,4.9943,5.0003,5.0003,5.04,5.1119,5.1532,5.212,5.283,5.3313,5.3492,5.3492,5.3492,5.3492,5.3492,5.3492,5.3492,5.3492,3.9406,3.9406,3.9406,3.9406,3.9406,3.9406,3.9406,3.9406,3.9406,3.9406,3.9406,3.9451,3.9571,3.9913,0.0,4.0008,4.018,4.0303,4.0303,4.0427,4.0498,4.0498,4.0498,4.0498,4.0498,4.0498,0.0,4.0498,4.0498,4.0498,4.0498,4.0498,4.0498,4.0498,4.0498,4.0498,4.0498,4.0498,4.0498,4.0498,4.0498,4.0498,4.0498,4.0498,4.0667,4.0907,4.0907,4.1076,4.1291,4.1291,4.1592,4.1986,4.1986,4.223,4.2541,4.2541,4.2541,4.2477,4.2239,4.2356,4.2406,4.1875,4.2324,4.306,4.3752,4.4281,4.4608,4.4608,4.4608,4.4608,4.4608,4.4608,4.4608,4.4608,4.4608,4.4608,4.4608,0.0,0.0,0.0,0.0,0.0,0.0,4.5127,4.5223,0.0,0.0,0.0,0.0,0.0,0.0,4.5397,4.6186,0.0,4.7679,4.8437,4.9174,4.9882,4.9882,4.9928,5.0003,5.0296,5.0784,5.1467,5.192,5.2507,5.3168,5.3389,5.3492,5.3492,5.3492,5.3492,5.3492,5.3492,5.3492,5.3492,3.9406,3.9406,3.9406,0.0,3.9406,0.0,3.9406,3.9406,3.9406,3.9406,3.9436,3.9466,3.9466,4.0068,4.0379,4.0122,0.0,0.0,0.0,4.051,4.0575,4.0575,4.0529,4.0498,4.0498,4.0498,4.0498,4.0498,4.0498,4.0498,4.0498,4.0498,4.0498,4.0498,4.0498,4.0498,4.0498,4.0498,4.0529,4.0575,4.0575,4.0606,4.0652,4.0652,4.1061,4.1678,4.1678,4.2069,4.2593,4.2593,4.2623,4.267,4.267,4.2709,4.2716,4.2623,4.2593,4.2454,4.1848,4.2117,4.2298,4.0964,4.2045,4.3625,4.4305,4.4483,4.4542,4.4584,4.4608,4.4608,4.4608,4.4608,4.4608,4.4608,4.4608,4.4608,4.4608,0.0,0.0,0.0,0.0,0.0,0.0,4.5103,4.519,0.0,0.0,0.0,0.0,0.0,4.5483,4.5483,4.6255,4.7038,4.7772,4.8506,4.9166,4.9715,4.9715,4.9848,5.009,5.0796,5.1455,5.2094,5.26,5.3133,5.3692,5.3551,5.3492,5.3492,5.3492,5.3492,5.3492,5.3492,5.3492,5.3492,0.0,0.0,3.9406,3.9406,3.9406,3.9406,3.9406,3.9406,3.9406,3.9406,3.9849,4.0163,4.0163,4.0765,4.1141,4.1076,4.1394,4.1602,4.1602,4.1445,4.1331,4.1331,4.0799,4.0498,4.0498,4.0498,4.0498,4.0498,4.0498,4.0498,4.0498,4.0498,4.0498,4.0498,4.0498,4.0498,4.0498,4.0498,4.0821,4.1331,4.1331,4.1654,4.2091,4.2091,4.2208,4.2362,4.2362,4.2479,4.2593,4.2593,4.294,4.3359,4.3359,4.3713,4.3929,4.29,4.2593,4.2562,4.2408,4.2473,4.2525,4.2191,4.2458,4.2848,4.2978,4.3386,4.3922,4.4475,4.4608,4.4608,4.4608,4.4608,4.4608,4.4608,4.4608,4.4608,4.4608,4.4608,0.0,0.0,4.464,4.4744,4.4988,4.5032,4.5127,0.0,0.0,0.0,0.0,4.5972,4.6324,4.6324,4.7048,4.7789,4.8524,4.9324,4.9792,4.9935,4.9935,5.0243,5.0848,5.1013,5.1748,5.284,5.2805,5.3133,5.3692,5.3551,5.3492,5.3492,5.3492,5.3492,5.3492,5.3492,5.3492,5.3492,3.9406,3.9406,3.9496,3.9804,3.9864,3.9954,4.0277,4.0307,4.0307,4.0307,4.0631,4.0855,4.0855,4.1458,4.1862,4.1862,4.1857,4.1897,4.1999,4.1958,4.1958,4.2054,4.1676,4.1461,4.1461,4.1461,4.1307,4.0999,4.0667,4.0498,4.0513,4.0845,4.0999,4.1014,4.1322,4.1461,4.1461,4.1461,4.1691,4.2063,4.2063,4.2279,4.2593,4.2593,4.2786,4.3057,4.3057,4.3257,4.351,4.351,4.3759,4.4061,4.4061,4.4308,4.4452,4.3735,4.351,4.3457,4.315,4.3057,4.3063,4.3063,4.3061,4.3052,4.3009,4.3523,4.4017,4.4085,4.4376,4.4608,4.4608,4.4608,4.4608,4.4608,4.4608,4.4608,4.4608,4.4608,0.0,4.4608,4.4608,4.4654,4.4803,4.4879,4.4985,4.5204,4.5537,0.0,4.5931,4.6625,4.6876,4.66,4.7634,4.8403,4.8799,4.9517,4.9921,5.0003,4.9921,5.03,5.1117,5.1444,5.2098,5.2988,5.3235,5.3458,5.3601,5.3534,5.3492,5.3492,5.3492,5.3492,5.3492,5.3492,5.3492,5.3492,3.969,3.969,3.9879,4.0442,4.0546,4.0735,4.1313,4.1403,4.1403,4.1403,4.1493,4.1553,4.1553,4.2146,4.2536,4.2536,4.2176,4.2031,4.2247,4.2345,4.2478,4.2655,4.2584,4.2547,4.2547,4.2574,4.2316,4.1755,4.1122,4.0821,4.0821,4.1454,4.1755,4.1786,4.2346,4.2593,4.2593,4.2593,4.2654,4.2747,4.2747,4.2817,4.29,4.29,4.3257,4.3753,4.3753,4.4123,4.4591,4.4591,4.4591,4.4591,4.4591,4.4591,4.4591,4.4591,4.4591,4.4477,4.3907,4.3753,4.3732,4.3637,4.3598,4.3601,4.361,4.404,4.433,4.3916,4.4238,4.464,4.4756,4.4675,4.4608,4.4608,4.4608,4.4608,4.4608,0.0,4.4608,4.4608,4.4608,4.4605,4.4626,4.4839,4.5022,4.5166,4.5887,4.6443,4.6731,4.7354,4.7458,4.6945,4.8151,4.8851,4.8972,4.9487,4.9838,5.0003,4.9941,5.0388,5.1289,5.2048,5.2604,5.3016,5.3698,5.38,5.3492,5.3492,5.3492,5.3492,5.3492,5.3492,5.3492,5.3492,5.3492,5.3492,4.1079,4.1079,4.1124,4.1224,4.1244,4.1283,4.1388,4.1403,4.1403,4.1403,4.1892,4.2236,4.2236,4.2791,4.316,4.316,4.309,4.3163,4.3413,4.3096,4.291,4.2928,4.2557,4.2343,4.2343,4.252,4.2546,4.2439,4.2331,4.227,4.2285,4.2393,4.2439,4.2454,4.2546,4.2593,4.2593,4.2593,4.2934,4.3445,4.3445,4.3775,4.4298,4.4298,4.4344,4.4437,4.4437,4.4514,4.4591,4.4591,4.4591,4.4591,4.4591,4.4591,4.4591,4.4591,4.4591,4.4585,4.4468,4.4437,4.432,4.3738,4.3596,4.3601,4.3591,4.3682,4.4065,4.5143,4.4949,4.4801,4.5409,4.5017,4.4608,4.4608,4.4608,4.4608,4.4608,0.0,4.4608,4.4608,4.4608,4.464,4.4755,4.5347,4.5777,4.5931,4.6764,4.7301,4.7367,4.8146,4.8554,4.8455,4.8679,4.9134,4.9814,4.9913,4.9964,5.0003,5.0595,5.1284,5.2065,5.2848,5.3427,5.3818,5.3945,5.38,5.3492,5.3492,5.3492,5.3492,5.3492,5.3492,5.3492,5.3492,5.3492,5.3492,4.1403,4.1403,4.1508,4.1877,4.1937,4.2047,4.2362,4.2422,4.2422,4.2422,4.2701,4.288,4.288,4.313,4.33,4.33,4.33,4.3354,4.3473,4.3418,4.3426,4.3542,4.3333,4.327,4.3368,4.3115,4.3024,4.3134,4.2771,4.2593,4.2608,4.298,4.3134,4.315,4.3519,4.3688,4.3688,4.3688,4.3867,4.4138,4.4138,4.4314,4.4591,4.4591,4.4591,4.4591,4.4591,4.4591,4.4591,4.4591,4.4591,4.4591,4.4591,4.4591,4.4591,4.4591,4.4591,4.4591,4.4591,4.4591,4.4539,4.4215,4.4138,4.4037,4.3671,4.3892,4.4223,4.4506,4.49,4.5296,4.5642,4.5748,4.565,4.5253,4.5186,0.0,0.0,4.4608,4.4743,4.5152,4.5186,4.5367,4.5828,4.6184,4.6474,4.6675,4.7382,4.7898,4.808,4.8784,4.9171,4.9171,4.9348,4.9617,5.0003,5.0003,5.0193,5.0607,5.0934,5.1665,5.2708,5.3069,5.3455,5.3841,5.3841,5.3709,5.3492,5.3492,5.3492,5.3492,5.3492,5.3492,5.3492,5.3492,5.3492,5.3492,4.1833,4.1833,4.2007,4.2526,4.2601,4.2771,4.3225,4.33,4.33,4.33,4.33,4.33,4.33,4.33,4.33,4.33,4.33,4.33,4.33,4.3483,4.3675,4.3826,4.39,4.4055,4.4291,4.3796,4.3624,4.383,4.3319,4.3063,4.3079,4.359,4.383,4.3846,4.436,4.4591,4.4591,4.4591,4.4591,4.4591,4.4591,4.4591,4.4591,4.4591,4.4591,4.4591,4.4591,4.4591,4.4591,4.4591,4.4591,4.4591,4.4591,4.4591,4.4591,4.4591,4.4591,4.4591,4.4591,4.4591,4.4591,4.4591,4.4591,4.4477,4.3953,4.4231,4.4495,4.4155,4.4947,4.5751,4.5925,4.6412,4.6607,4.6058,0.0,0.0,0.0,4.5115,4.5328,4.5889,4.5957,4.6177,4.6742,4.6962,4.7135,4.7345,4.7982,4.8467,4.8736,4.9215,4.95,4.9555,4.9794,4.995,5.0003,5.0176,5.0538,5.1099,5.1414,5.2096,5.3097,5.3247,5.3449,5.3692,5.3692,5.3626,5.3492,5.3492,5.3492,5.3492,5.3492,5.3492,5.3492,5.3492,5.3492,5.3492,4.315,4.315,4.318,4.3225,4.3225,4.3255,4.33,4.33,4.33,4.33,4.33,4.33,4.33,4.33,4.33,4.33,4.33,4.33,4.33,4.3309,4.3329,4.3349,4.3596,4.39,4.4291,4.4255,4.432,4.4539,4.4483,4.4452,4.4452,4.4498,4.4539,4.4539,4.4585,4.4591,4.4591,4.4591,4.4591,4.4591,4.4591,4.4591,4.4591,4.4591,4.4591,4.4591,4.4591,4.4591,4.4591,4.4591,4.4591,4.4591,4.4591,4.4591,4.4591,4.4591,4.4591,4.4591,4.4591,4.4591,4.4591,4.4591,4.4591,4.4591,4.4529,4.4552,4.4775,4.5401,4.5642,4.5912,4.6581,4.6756,4.6776,4.6725,0.0,0.0,4.6641,4.6648,4.6658,4.6708,4.6725,4.6742,4.6793,4.7421,4.7827,4.7849,4.8638,4.9129,4.9152,4.9361,4.9562,4.9679,4.9708,4.9806,5.0003,5.0676,5.1055,5.1117,5.2358,5.2993,5.3114,5.3675,5.3856,5.3692,5.3692,5.3626,5.3492,5.3492,5.3492,5.3492,5.3492,5.3492,5.3492,5.3492,5.3492,5.3492,4.33,4.33,4.33,4.33,4.33,4.33,4.33,4.33,4.33,4.33,4.33,4.33,4.33,4.33,4.33,4.33,4.33,4.33,4.33,4.33,4.33,4.33,4.3404,4.366,4.4098,4.4108,4.4272,4.4591,4.4591,4.4591,4.4591,4.4591,4.4591,4.4591,4.4591,4.4591,4.4591,4.4591,4.4591,4.4591,4.4591,4.4591,4.4591,4.4591,4.4591,4.4591,4.4591,4.4591,4.4591,4.4591,4.4591,4.4591,4.4591,4.4591,4.4591,4.4591,4.4591,4.4591,4.4591,4.4591,4.4591,4.4591,4.4591,4.4591,4.4591,4.4591,4.4685,4.4962,4.5383,4.5792,4.6071,4.6881,4.7337,4.6871,0.0,4.7319,4.6861,4.6793,4.6972,4.7438,4.7472,4.7658,4.8122,4.8419,4.8423,4.8054,4.8752,4.8997,4.8534,4.8952,4.9519,5.0245,5.0252,5.0389,5.0686,5.0969,5.152,5.2341,5.2854,5.3227,5.3488,5.3713,5.3734,5.3584,5.3584,5.3543,5.3492,5.3492,5.3492,5.3492,5.3492,5.3492,5.3492,5.3492,5.3492,5.3433,4.33,4.33,4.33,4.33,4.33,4.33,4.33,4.33,4.33,4.33,4.33,4.33,4.33,4.33,4.33,4.33,4.33,4.33,4.33,4.33,4.33,4.33,4.3384,4.3601,4.3997,4.4065,4.4262,4.4591,4.4591,4.4591,4.4591,4.4591,4.4591,4.4591,4.4591,4.4591,4.4591,4.4591,4.4591,4.4591,4.4591,4.4591,4.4591,4.4591,4.4591,4.4591,4.4591,4.4591,4.4591,4.4591,4.4591,4.4591,4.4591,4.4591,4.4591,4.4591,4.4591,4.4591,4.4591,4.4591,4.4591,4.4591,4.4591,4.4591,4.4591,4.4591,4.4591,4.4591,4.5188,4.5697,4.5697,4.6718,4.7391,4.6889,4.7221,4.7381,4.6863,4.6804,4.698,4.7489,4.754,4.7748,4.8264,4.8314,4.8145,4.7713,4.8385,4.867,4.8392,4.9085,4.9824,5.0512,5.0858,5.1228,5.163,5.1691,5.2192,5.3105,5.3227,5.3435,5.3692,5.3651,5.3593,5.3492,5.3492,5.3492,5.3492,5.3492,5.3492,5.3492,5.3492,5.3357,5.3144,5.3416,5.3178,5.2704,4.33,4.33,4.33,4.33,4.33,4.33,4.33,4.33,4.33,4.33,4.33,4.33,4.33,4.33,4.33,4.33,4.33,4.33,4.33,4.33,4.33,4.33,4.3557,4.3783,4.3997,4.4195,4.4406,4.4591,4.4591,4.4591,4.4591,4.4591,4.4591,4.4591,4.4591,4.4591,4.4591,4.4591,4.4591,4.4591,4.4591,4.4591,4.4591,4.4616,4.4606,4.4606,4.4606,4.4631,4.4631,4.4631,4.4631,4.4631,4.4631,4.4606,4.4606,4.4606,4.4591,4.4591,4.4591,4.4591,4.4591,4.4591,4.4591,4.4591,4.4591,4.4591,4.4591,4.4591,4.5188,4.5688,4.5688,4.6288,4.6786,4.6786,4.681,4.6794,4.6794,4.6794,4.6794,4.6794,4.6794,4.6794,4.6794,4.6794,4.6794,4.6794,4.7489,4.8226,4.8955,5.002,5.0554,5.041,5.1452,5.2256,5.2803,5.3011,5.3097,5.3107,5.3507,5.3692,5.3684,5.3559,5.3492,5.3492,5.3492,5.3492,5.3492,5.3492,5.3492,5.3492,5.3492,5.3006,5.2404,5.3195,5.2468,5.121,4.33,4.33,4.33,4.33,4.33,4.33,4.33,4.33,4.33,4.33,4.33,4.33,4.33,4.33,4.33,4.33,4.33,4.33,4.33,4.33,4.33,4.33,4.3557,4.3783,4.3997,4.4195,4.4406,4.4591,4.4591,4.4591,4.4591,4.4591,4.4591,4.4591,4.4591,4.4591,4.4591,4.4591,4.4591,4.4591,4.4591,4.4591,4.4652,4.513,4.5299,4.5351,4.5828,4.5998,4.5998,4.5998,4.5998,4.5998,4.5998,4.5674,4.5299,4.5299,4.496,4.4591,4.4591,4.4591,4.4591,4.4591,4.4591,4.4591,4.4591,4.4591,4.4591,4.4591,4.478,4.4933,4.4933,4.554,4.6022,4.6022,4.6455,4.6794,4.6794,4.6794,4.6794,4.6794,4.6794,4.6794,4.6794,4.6794,4.6794,4.6794,4.7965,4.8763,4.8984,5.0271,5.1292,5.1916,5.2242,5.2815,5.3622,5.314,5.31,5.3525,5.3639,5.3642,5.3559,5.3526,5.3492,5.3492,5.3492,5.3492,5.3492,5.3492,5.3492,5.345,5.2877,5.2519,5.2263,5.1942,5.1507,5.1051,4.2855,4.3056,4.33,4.33,4.33,4.33,4.33,4.33,4.33,4.33,4.33,4.33,4.33,4.33,4.33,4.33,4.33,4.33,4.33,4.33,4.33,4.33,4.3557,4.3783,4.3997,4.4195,4.4406,4.4591,4.4591,4.4591,4.4591,4.4591,4.4745,4.5006,4.5006,4.5145,4.5391,4.5391,4.5391,4.5391,4.5391,4.5391,4.5438,4.5844,4.5998,4.6044,4.6459,4.6603,4.6603,4.6603,4.6603,4.6603,4.6603,4.6311,4.5998,4.5998,4.5705,4.5391,4.5391,4.5207,4.5006,4.5006,4.4806,4.4591,4.4591,4.4591,4.4591,4.4591,4.4591,4.4591,4.4591,4.4955,4.5255,4.5255,4.5633,4.5931,4.5931,4.5931,4.5931,4.5931,4.5931,4.5931,4.5931,4.5931,4.6168,4.6724,4.7827,4.8611,4.8914,5.0426,5.1496,5.1984,5.2687,5.3283,5.38,5.3324,5.3283,5.3692,5.3642,5.3584,5.3492,5.3492,5.3492,5.3492,5.3492,5.3492,5.3492,5.3492,5.3306,5.2989,5.2492,5.1913,5.132,5.1154,5.0874,5.0527,4.2135,4.2638,4.321,4.329,4.33,4.33,4.33,4.33,4.33,4.33,4.33,4.33,4.33,4.33,4.33,4.33,4.33,4.33,4.33,4.33,4.33,4.33,4.3582,4.3844,4.4044,4.4216,4.4427,4.4655,4.4674,4.4714,4.4776,4.4776,4.5099,4.569,4.569,4.6028,4.6603,4.6603,4.6603,4.6603,4.6603,4.6603,4.6603,4.6675,4.668,4.6696,4.6757,4.6773,4.6773,4.6773,4.6773,4.6773,4.6773,4.6742,4.668,4.668,4.665,4.6603,4.6603,4.6151,4.569,4.569,4.5237,4.4745,4.4622,4.4591,4.4591,4.4591,4.4591,4.4591,4.4591,4.4591,4.4591,4.4591,4.4591,4.4591,4.4591,4.4591,4.4591,4.4591,4.4591,4.4622,4.4683,4.4796,4.5377,4.6601,4.7438,4.8157,4.8776,5.0494,5.1396,5.1204,5.2817,5.3626,5.3492,5.3492,5.3559,5.3684,5.3559,5.3492,5.3492,5.3492,5.3492,5.3509,5.3425,5.3382,5.3391,5.3314,5.286,5.2191,5.2103,5.1229,5.0072,5.073,5.0475,4.9911,4.1883,4.2145,4.2507,4.318,4.33,4.33,4.33,4.33,4.33,4.33,4.33,4.33,4.33,4.33,4.33,4.33,4.33,4.33,4.33,4.33,4.33,4.33,4.3868,4.4253,4.4463,4.4357,4.458,4.5149,4.5304,4.5643,4.6167,4.6167,4.6234,4.6372,4.6372,4.6449,4.6603,4.6603,4.6603,4.6603,4.6603,4.6603,4.6665,4.7188,4.7378,4.745,4.7978,4.8163,4.8163,4.8163,4.8163,4.8163,4.8163,4.7819,4.7378,4.7378,4.7004,4.6603,4.6603,4.6496,4.6372,4.6372,4.6265,4.589,4.4837,4.4591,4.4591,4.4591,4.4591,4.4591,4.4591,4.4591,4.4591,4.4591,4.4591,4.4591,4.4591,4.4591,4.4591,4.4591,4.4591,4.4806,4.532,4.6373,4.692,4.6636,4.8361,4.9243,4.8818,5.0898,5.2078,5.2041,5.3017,5.3534,5.3492,5.3492,5.3517,5.3534,5.3509,5.3492,5.3492,5.3492,5.3492,5.3467,5.2834,5.2563,5.2519,5.1887,5.1524,5.1301,5.0669,5.0536,5.063,5.0173,5.0204,5.0683,4.0742,4.139,4.2135,4.2598,4.3016,4.33,4.33,4.33,4.33,4.33,4.33,4.33,4.33,4.33,4.33,4.33,4.33,4.33,4.33,4.3599,4.3788,4.3788,4.4426,4.4832,4.4919,4.5056,4.5324,4.5784,4.5868,4.6161,4.6603,4.6603,4.6773,4.708,4.708,4.725,4.7558,4.7558,4.7558,4.7558,4.7558,4.7558,4.7588,4.7932,4.8071,4.8117,4.8471,4.8609,4.8609,4.8609,4.8609,4.8609,4.8609,4.8363,4.8071,4.8071,4.7824,4.7558,4.7558,4.7327,4.708,4.708,4.6834,4.6429,4.5705,4.5314,4.5083,4.5083,4.4822,4.4591,4.4591,4.4591,4.4591,4.4591,4.4591,4.4714,4.5037,4.5083,4.5207,4.553,4.5551,4.569,4.6044,4.7025,4.7497,4.7111,4.8451,4.9107,4.8732,5.0269,5.132,5.1724,5.2502,5.311,5.3509,5.3492,5.3492,5.3492,5.3492,5.3492,5.3492,5.3492,5.3492,5.3458,5.2642,5.2298,5.2245,5.1431,5.1056,5.0963,5.0537,5.0548,5.0746,5.0324,5.06,5.1408,3.9486,4.0568,4.18,4.197,4.2719,4.33,4.33,4.33,4.33,4.33,4.33,4.33,4.33,4.33,4.33,4.33,4.3404,4.3479,4.3479,4.4102,4.4471,4.4471,4.511,4.5469,4.5469,4.6003,4.631,4.6427,4.6482,4.6674,4.6942,4.6942,4.7234,4.7763,4.7763,4.8071,4.8609,4.8609,4.8609,4.8609,4.8609,4.8609,4.8609,4.8609,4.8609,4.8609,4.8609,4.8609,4.8609,4.8609,4.8609,4.8609,4.8609,4.8609,4.8609,4.8609,4.8609,4.8609,4.8609,4.8194,4.7763,4.7763,4.7357,4.6942,4.6942,4.6326,4.5767,4.5767,4.533,4.4945,4.4945,4.4945,4.4945,4.4945,4.4945,4.5145,4.569,4.5767,4.5982,4.6526,4.6696,4.6773,4.6773,4.7388,4.7763,4.7763,4.8286,4.8609,4.8609,4.956,5.0419,5.1079,5.2005,5.2834,5.3492,5.3492,5.3492,5.3492,5.3492,5.3492,5.3492,5.3492,5.3425,5.3255,5.244,5.2078,5.2003,5.1198,5.0853,5.0867,5.0867,5.0876,5.0882,5.099,5.139,5.2099,3.9099,4.0062,4.105,4.1867,4.2719,4.33,4.33,4.33,4.33,4.33,4.33,4.33,4.33,4.33,4.33,4.33,4.3833,4.4162,4.4162,4.4796,4.5155,4.5155,4.5802,4.6166,4.6166,4.6975,4.7229,4.6913,4.7242,4.7727,4.8332,4.8332,4.8378,4.8471,4.8471,4.8517,4.8609,4.8609,4.8609,4.8609,4.8609,4.8609,4.8609,4.8609,4.8609,4.8609,4.8609,4.8609,4.8609,4.8609,4.8609,4.8609,4.8609,4.8609,4.8609,4.8609,4.8609,4.8609,4.8609,4.8522,4.8471,4.8471,4.8409,4.8332,4.8332,4.7357,4.6449,4.6449,4.6398,4.6336,4.6336,4.6336,4.6336,4.6336,4.6336,4.6367,4.6459,4.6449,4.6496,4.6588,4.7111,4.7465,4.7465,4.8071,4.8471,4.8471,4.8548,4.8609,4.8609,5.0082,5.0985,5.1098,5.2555,5.3391,5.3492,5.3492,5.3492,5.3492,5.3492,5.3492,5.3492,5.3492,5.3118,5.2414,5.1606,5.1198,5.1039,5.021,5.0224,5.0726,5.0726,5.1067,5.1636,5.2221,5.2487,5.2805,3.8494,3.9621,4.0731,4.1145,4.238,4.33,4.33,4.33,4.33,4.33,4.33,4.33,4.33,4.33,4.3449,4.3833,4.4142,4.4456,4.483,4.5499,4.5862,4.5862,4.6505,4.6865,4.6865,4.7499,4.7743,4.7556,4.7843,4.8203,4.8609,4.8609,4.8609,4.8609,4.8609,4.8609,4.8609,4.8609,4.8609,4.8609,4.8609,4.8609,4.8609,4.8609,4.8609,4.8609,4.8609,4.8609,4.8609,4.8609,4.8609,4.8609,4.8609,4.8609,4.8609,4.8609,4.8609,4.8609,4.8609,4.8609,4.8609,4.8609,4.8609,4.8609,4.8609,4.8132,4.7609,4.7234,4.6865,4.6603,4.6603,4.6603,4.6603,4.6603,4.6603,4.6726,4.7111,4.7157,4.7296,4.7671,4.7978,4.8163,4.8163,4.8425,4.8609,4.8609,4.8609,4.8609,4.8609,4.9309,5.0131,5.107,5.1357,5.2139,5.3484,5.3058,5.3058,5.3492,5.305,5.3067,5.3484,5.3032,5.2633,5.2243,5.1374,5.095,5.0862,5.0437,5.0662,5.1267,5.1267,5.1667,5.2287,5.2595,5.2702,5.294]},{"header":{"parameterUnit":"m.s-1","parameterCategory":1,"la1":30.6,"la2":28.766,"lo1":-90.7593,"lo2":-88.6598,"dy":0.0162,"dx":0.0183,"nx":116,"ny":114,"refTime":"2024-02-08T18:00:00:Z","depth":0,"parameterNumber":3,"parameterNumberName":"V-component_of_WINDS"},"data":[0.0,0.0,0.0,0.0,0.0,0.0,0.0,0.0,0.0,0.0,0.0,0.0,0.0,0.0,0.0,0.0,0.0,0.0,0.0,0.0,0.0,0.0,0.0,0.0,0.0,0.0,0.0,0.0,0.0,0.0,0.0,0.0,0.0,0.0,0.0,0.0,0.0,0.0,0.0,0.0,0.0,0.0,0.0,0.0,0.0,0.0,0.0,0.0,0.0,0.0,0.0,0.0,0.0,0.0,0.0,0.0,0.0,0.0,0.0,0.0,0.0,0.0,0.0,0.0,0.0,0.0,0.0,0.0,0.0,0.0,0.0,0.0,0.0,0.0,0.0,0.0,0.0,0.0,0.0,0.0,0.0,0.0,0.0,0.0,0.0,0.0,0.0,0.0,0.0,0.0,0.0,0.0,0.0,0.0,0.0,0.0,0.0,0.0,0.0,0.0,0.0,0.0,0.0,0.0,0.0,0.0,0.0,0.0,0.0,0.0,0.0,0.0,0.0,0.0,0.0,0.0,0.0,0.0,0.0,0.0,0.0,0.0,0.0,0.0,0.0,0.0,0.0,0.0,0.0,0.0,0.0,0.0,0.0,0.0,0.0,0.0,0.0,0.0,0.0,0.0,0.0,0.0,0.0,0.0,0.0,0.0,0.0,0.0,0.0,0.0,0.0,0.0,0.0,0.0,0.0,0.0,0.0,0.0,0.0,0.0,0.0,0.0,0.0,0.0,0.0,0.0,0.0,0.0,0.0,0.0,0.0,0.0,0.0,0.0,0.0,0.0,0.0,0.0,0.0,0.0,0.0,0.0,0.0,0.0,0.0,0.0,0.0,0.0,0.0,0.0,0.0,0.0,0.0,0.0,0.0,0.0,0.0,0.0,0.0,0.0,0.0,0.0,0.0,0.0,0.0,0.0,0.0,0.0,0.0,0.0,0.0,0.0,0.0,0.0,0.0,0.0,0.0,0.0,0.0,0.0,0.0,0.0,0.0,0.0,0.0,0.0,0.0,0.0,0.0,0.0,0.0,0.0,0.0,0.0,0.0,0.0,0.0,0.0,0.0,0.0,0.0,0.0,0.0,0.0,0.0,0.0,0.0,0.0,0.0,0.0,0.0,0.0,0.0,0.0,0.0,0.0,0.0,0.0,0.0,0.0,0.0,0.0,0.0,0.0,0.0,0.0,0.0,0.0,0.0,0.0,0.0,0.0,0.0,0.0,0.0,0.0,0.0,0.0,0.0,0.0,0.0,0.0,0.0,0.0,0.0,0.0,0.0,0.0,0.0,0.0,0.0,0.0,0.0,0.0,0.0,0.0,0.0,0.0,0.0,0.0,0.0,0.0,0.0,0.0,0.0,0.0,0.0,0.0,0.0,0.0,0.0,0.0,0.0,0.0,0.0,0.0,0.0,0.0,0.0,0.0,0.0,0.0,0.0,0.0,0.0,0.0,0.0,0.0,0.0,0.0,0.0,0.0,0.0,0.0,0.0,0.0,0.0,0.0,0.0,0.0,0.0,0.0,0.0,0.0,0.0,0.0,0.0,0.0,0.0,0.0,0.0,0.0,0.0,0.0,0.0,0.0,0.0,0.0,0.0,0.0,0.0,0.0,0.0,0.0,0.0,0.0,0.0,0.0,0.0,0.0,0.0,0.0,0.0,0.0,0.0,0.0,0.0,0.0,0.0,0.0,0.0,0.0,0.0,0.0,0.0,0.0,0.0,0.0,0.0,0.0,0.0,0.0,0.0,0.0,0.0,0.0,0.0,0.0,0.0,0.0,0.0,0.0,0.0,0.0,0.0,0.0,0.0,0.0,0.0,0.0,0.0,0.0,0.0,0.0,0.0,0.0,0.0,0.0,0.0,0.0,0.0,0.0,0.0,0.0,0.0,0.0,0.0,0.0,0.0,0.0,0.0,0.0,0.0,0.0,0.0,0.0,0.0,0.0,0.0,0.0,0.0,0.0,0.0,0.0,0.0,0.0,0.0,0.0,0.0,0.0,0.0,0.0,0.0,0.0,0.0,0.0,0.0,0.0,0.0,0.0,0.0,0.0,0.0,0.0,0.0,0.0,0.0,0.0,0.0,0.0,0.0,0.0,0.0,0.0,0.0,0.0,0.0,0.0,0.0,0.0,0.0,0.0,0.0,0.0,0.0,0.0,0.0,0.0,0.0,0.0,0.0,0.0,0.0,0.0,0.0,0.0,0.0,0.0,0.0,0.0,0.0,0.0,0.0,0.0,0.0,0.0,0.0,0.0,0.0,0.0,0.0,0.0,0.0,0.0,0.0,0.0,0.0,0.0,0.0,0.0,0.0,0.0,0.0,0.0,0.0,0.0,0.0,0.0,0.0,0.0,0.0,0.0,0.0,0.0,0.0,0.0,0.0,0.0,0.0,0.0,0.0,0.0,0.0,0.0,0.0,0.0,0.0,0.0,0.0,0.0,0.0,0.0,0.0,0.0,0.0,0.0,0.0,0.0,0.0,0.0,0.0,0.0,0.0,0.0,0.0,0.0,0.0,0.0,0.0,0.0,0.0,0.0,0.0,0.0,0.0,0.0,0.0,0.0,0.0,0.0,0.0,0.0,0.0,0.0,0.0,0.0,0.0,0.0,0.0,0.0,0.0,0.0,0.0,0.0,0.0,0.0,0.0,0.0,0.0,0.0,0.0,0.0,0.0,0.0,0.0,0.0,0.0,0.0,0.0,0.0,0.0,0.0,0.0,0.0,0.0,0.0,0.0,0.0,0.0,0.0,0.0,0.0,0.0,0.0,0.0,0.0,0.0,0.0,0.0,0.0,0.0,0.0,0.0,0.0,0.0,0.0,0.0,0.0,0.0,0.0,0.0,0.0,0.0,0.0,0.0,0.0,0.0,0.0,0.0,0.0,0.0,0.0,0.0,0.0,0.0,0.0,0.0,0.0,0.0,0.0,0.0,0.0,0.0,0.0,0.0,0.0,0.0,0.0,0.0,0.0,0.0,0.0,0.0,0.0,0.0,0.0,0.0,0.0,0.0,0.0,0.0,0.0,0.0,0.0,0.0,0.0,0.0,0.0,0.0,0.0,0.0,0.0,0.0,0.0,0.0,0.0,0.0,0.0,0.0,0.0,0.0,0.0,0.0,0.0,0.0,0.0,0.0,0.0,0.0,0.0,0.0,0.0,0.0,0.0,0.0,0.0,0.0,0.0,0.0,0.0,0.0,0.0,0.0,0.0,0.0,0.0,0.0,0.0,0.0,0.0,0.0,0.0,0.0,0.0,0.0,0.0,0.0,0.0,0.0,0.0,0.0,0.0,0.0,0.0,0.0,0.0,0.0,0.0,0.0,0.0,0.0,0.0,0.0,0.0,0.0,0.0,0.0,0.0,0.0,0.0,0.0,0.0,0.0,0.0,0.0,0.0,0.0,0.0,0.0,0.0,0.0,0.0,0.0,0.0,0.0,0.0,0.0,0.0,0.0,0.0,0.0,0.0,0.0,0.0,0.0,0.0,0.0,0.0,0.0,0.0,0.0,0.0,0.0,0.0,0.0,0.0,0.0,0.0,0.0,0.0,0.0,0.0,0.0,0.0,0.0,0.0,0.0,0.0,0.0,0.0,0.0,0.0,0.0,0.0,0.0,0.0,0.0,0.0,0.0,0.0,0.0,0.0,0.0,0.0,0.0,0.0,0.0,0.0,0.0,0.0,0.0,0.0,0.0,0.0,0.0,0.0,0.0,0.0,0.0,0.0,0.0,0.0,0.0,0.0,0.0,0.0,0.0,0.0,0.0,0.0,0.0,0.0,0.0,0.0,0.0,0.0,0.0,0.0,0.0,0.0,0.0,0.0,0.0,0.0,0.0,0.0,0.0,0.0,0.0,0.0,0.0,0.0,0.0,0.0,0.0,0.0,0.0,0.0,0.0,0.0,0.0,0.0,0.0,0.0,0.0,0.0,0.0,0.0,0.0,0.0,0.0,0.0,0.0,0.0,0.0,0.0,0.0,0.0,0.0,0.0,0.0,0.0,0.0,0.0,0.0,0.0,0.0,0.0,0.0,0.0,0.0,0.0,0.0,0.0,0.0,0.0,0.0,0.0,0.0,0.0,0.0,0.0,0.0,0.0,0.0,0.0,0.0,0.0,0.0,0.0,0.0,0.0,0.0,0.0,0.0,0.0,0.0,0.0,0.0,0.0,0.0,0.0,0.0,0.0,0.0,0.0,0.0,0.0,0.0,0.0,0.0,0.0,0.0,0.0,0.0,0.0,0.0,0.0,0.0,0.0,0.0,0.0,0.0,0.0,0.0,0.0,0.0,0.0,0.0,0.0,0.0,0.0,0.0,0.0,0.0,0.0,0.0,0.0,0.0,0.0,0.0,0.0,0.0,0.0,0.0,0.0,0.0,0.0,0.0,0.0,0.0,0.0,0.0,0.0,0.0,0.0,0.0,0.0,0.0,0.0,0.0,0.0,0.0,0.0,0.0,0.0,0.0,0.0,0.0,0.0,0.0,0.0,0.0,0.0,0.0,0.0,0.0,0.0,0.0,0.0,0.0,0.0,0.0,0.0,0.0,0.0,0.0,0.0,0.0,0.0,0.0,0.0,0.0,0.0,0.0,0.0,0.0,0.0,0.0,0.0,0.0,0.0,0.0,0.0,0.0,0.0,0.0,0.0,0.0,0.0,0.0,0.0,0.0,0.0,0.0,0.0,0.0,0.0,0.0,0.0,0.0,0.0,0.0,0.0,0.0,0.0,0.0,0.0,0.0,0.0,0.0,0.0,0.0,0.0,0.0,0.0,0.0,0.0,0.0,0.0,0.0,0.0,0.0,0.0,0.0,0.0,0.0,0.0,0.0,0.0,0.0,0.0,0.0,0.0,0.0,0.0,0.0,0.0,0.0,0.0,0.0,0.0,0.0,0.0,0.0,0.0,0.0,0.0,0.0,0.0,0.0,0.0,0.0,0.0,0.0,0.0,0.0,0.0,0.0,0.0,0.0,0.0,0.0,0.0,0.0,0.0,0.0,0.0,0.0,0.0,0.0,0.0,0.0,0.0,0.0,0.0,0.0,0.0,0.0,0.0,0.0,0.0,0.0,0.0,0.0,0.0,0.0,0.0,0.0,0.0,0.0,0.0,0.0,0.0,0.0,0.0,0.0,0.0,0.0,0.0,0.0,0.0,0.0,0.0,0.0,0.0,0.0,0.0,0.0,0.0,0.0,0.0,0.0,0.0,0.0,0.0,0.0,0.0,0.0,0.0,0.0,0.0,0.0,0.0,0.0,0.0,0.0,0.0,0.0,0.0,0.0,0.0,0.0,0.0,0.0,0.0,0.0,0.0,0.0,0.0,0.0,0.0,0.0,0.0,0.0,0.0,0.0,0.0,0.0,0.0,0.0,0.0,0.0,0.0,0.0,0.0,0.0,0.0,0.0,0.0,0.0,0.0,0.0,0.0,0.0,0.0,0.0,0.0,0.0,0.0,0.0,0.0,0.0,0.0,0.0,0.0,0.0,0.0,0.0,0.0,0.0,0.0,0.0,0.0,0.0,0.0,0.0,0.0,0.0,0.0,0.0,0.0,0.0,0.0,0.0,0.0,0.0,0.0,0.0,0.0,0.0,0.0,0.0,0.0,0.0,0.0,0.0,0.0,0.0,0.0,0.0,0.0,0.0,0.0,0.0,0.0,0.0,0.0,0.0,0.0,0.0,0.0,0.0,0.0,0.0,0.0,0.0,0.0,0.0,0.0,0.0,0.0,0.0,0.0,0.0,0.0,0.0,0.0,0.0,0.0,0.0,0.0,0.0,0.0,0.0,0.0,0.0,0.0,0.0,0.0,0.0,0.0,0.0,0.0,0.0,0.0,0.0,0.0,0.0,0.0,0.0,0.0,0.0,0.0,0.0,0.0,0.0,0.0,0.0,0.0,0.0,0.0,0.0,0.0,0.0,0.0,0.0,0.0,0.0,0.0,0.0,0.0,0.0,0.0,0.0,0.0,0.0,0.0,0.0,0.0,0.0,0.0,0.0,0.0,0.0,0.0,0.0,0.0,0.0,0.0,0.0,0.0,0.0,0.0,0.0,0.0,0.0,0.0,0.0,0.0,0.0,0.0,0.0,0.0,0.0,0.0,0.0,0.0,0.0,0.0,1.0111,0.0,0.0,0.0,0.0,0.0,0.0,0.0,0.0,0.0,0.0,0.0,0.0,0.0,0.0,0.0,0.0,0.0,0.0,0.0,0.0,0.0,0.0,0.0,0.0,0.0,0.0,0.0,0.0,0.0,0.0,0.0,0.0,0.0,0.0,0.0,0.0,0.0,0.921,0.9878,1.0221,1.0812,1.1617,0.0,0.0,0.0,0.0,0.0,0.0,0.0,0.0,0.0,0.0,0.0,0.0,0.0,0.0,0.0,0.0,0.0,0.0,0.0,0.0,0.0,0.0,0.0,0.0,0.0,0.0,0.0,0.0,0.0,0.0,0.0,0.0,0.0,0.0,0.0,0.0,0.0,0.0,0.0,0.0,0.0,0.0,0.0,0.0,0.0,0.0,0.0,0.0,0.0,0.0,0.0,0.0,0.0,0.0,0.0,0.0,0.0,0.0,0.0,0.0,0.0,0.0,0.0,0.0,0.0,0.0,0.0,0.0,0.0,0.0,0.0,0.0,0.0,0.0,1.0512,0.0,0.0,0.0,0.0,0.0,0.0,0.0,0.0,0.0,0.0,0.0,0.0,0.0,0.0,0.0,0.0,0.0,0.0,0.0,0.0,0.0,0.0,0.0,0.7474,0.7672,0.8047,0.8114,0.8229,0.8466,0.8555,0.8611,0.8638,0.8716,0.8998,0.95,0.9508,0.991,1.0727,1.1032,1.1702,1.2688,0.0,0.0,0.0,0.0,0.0,0.0,0.0,0.0,0.0,0.0,0.0,0.0,0.0,0.0,0.0,0.0,0.0,0.0,0.0,0.0,0.0,0.0,0.0,0.0,0.0,0.0,0.0,0.0,0.0,0.0,0.0,0.0,0.0,0.0,0.0,0.0,0.0,0.0,0.0,0.0,0.0,0.0,0.0,0.0,0.0,0.0,0.0,0.0,0.0,0.0,0.0,0.0,0.0,0.0,0.0,0.0,0.0,0.0,0.0,0.0,0.0,0.0,0.0,0.0,0.0,0.0,0.0,1.1689,1.1911,1.2064,1.2057,1.2174,1.2322,1.1364,1.1062,1.1247,1.1247,0.0,0.0,0.0,0.0,0.0,0.0,0.0,0.0,0.0,0.0,0.0,0.0,0.0,0.0,0.0,0.0,0.0,0.0,0.0,0.0,0.0,0.7759,0.8327,0.9122,0.9351,0.9486,0.9586,0.9972,0.9896,0.9226,0.9582,0.9967,1.0332,1.034,1.0758,1.1632,1.2351,1.2934,1.3366,1.3465,1.3412,1.3237,0.0,0.0,0.0,0.0,0.0,0.0,0.0,0.0,0.0,0.0,0.0,0.0,0.0,0.0,0.0,0.0,0.0,0.0,0.0,0.0,0.0,0.0,0.0,0.0,0.0,0.0,0.0,0.0,0.0,0.0,0.0,0.0,0.0,0.0,0.0,0.0,0.0,0.0,0.0,0.0,0.0,0.0,0.0,0.0,0.975,1.0123,0.0,0.0,0.0,0.0,0.0,0.0,0.0,0.0,0.0,0.0,0.0,0.0,0.0,1.1505,1.1743,1.2864,1.3417,1.3434,1.455,1.5082,1.509,1.4244,1.3994,1.4193,1.3188,0.0,1.1798,1.1798,0.0,0.0,0.0,0.0,0.0,0.0,0.0,0.0,0.0,0.0,0.0,0.0,0.0,0.0,0.0,0.0,0.0,0.0,0.0,0.0,0.0,0.8989,0.9355,1.0216,1.0381,1.0442,1.0468,1.049,1.0434,1.0261,1.0268,1.0577,1.122,1.1228,1.1752,1.2806,1.3347,1.3807,1.417,1.417,1.417,1.417,1.417,1.3922,1.348,1.3192,0.0,0.0,0.0,0.0,0.0,0.0,0.0,0.0,0.0,0.0,0.0,0.0,0.0,0.0,0.0,0.0,0.0,0.0,0.0,0.0,0.0,0.0,0.0,0.0,0.0,0.0,0.0,0.0,0.0,0.0,0.0,0.0,0.0,0.0,0.0,0.0,0.0,0.0,0.0,1.02,1.0612,1.0332,1.0701,1.0861,0.0,0.0,0.0,0.0,0.0,0.0,0.0,0.0,0.0,1.3517,1.3888,1.4138,1.4258,1.4965,1.5315,1.5315,1.588,1.6268,1.6471,1.6031,1.5995,1.6257,1.5822,1.5437,1.4984,1.3437,1.3043,1.3363,0.0,0.0,0.0,0.0,1.3325,1.3862,0.0,0.0,0.0,0.0,0.0,0.0,0.0,0.0,0.0,0.0,0.0,0.0,0.9941,1.0084,1.0441,1.1261,1.1361,1.1369,1.1329,1.1205,1.1165,1.1205,1.1079,1.136,1.2089,1.229,1.2877,1.3879,1.422,1.453,1.4829,1.4932,1.4983,1.4983,1.4983,1.4546,1.381,1.381,1.375,0.0,0.0,0.0,0.0,0.0,0.0,0.0,0.0,0.0,0.0,0.0,0.0,0.0,0.0,0.0,0.0,0.0,0.0,0.0,0.0,0.0,0.0,0.0,0.0,0.0,0.0,0.0,0.0,0.0,0.0,0.0,0.0,0.0,0.0,0.0,0.0,0.0,0.0,1.079,1.1122,1.0661,1.1351,1.173,0.0,0.0,0.0,0.0,0.0,0.0,1.4939,1.5223,1.5394,1.5465,1.6042,1.6357,1.6357,1.6958,1.7262,1.7262,1.7601,1.7905,1.8191,1.7938,1.7952,1.8171,1.7923,1.7798,1.7635,1.5455,1.4703,1.4881,1.4135,1.4408,1.5095,1.3816,1.3765,1.4415,0.0,0.0,0.0,0.0,0.0,0.0,0.0,0.0,0.0,0.0,0.0,0.9423,0.9698,1.062,1.1494,1.2181,1.2351,1.2374,1.2243,1.2643,1.2536,1.1788,1.2166,1.2567,1.2927,1.363,1.42,1.4633,1.4984,1.5163,1.518,1.5574,1.5745,1.5745,1.5745,1.5326,1.464,1.464,1.4418,1.4067,0.0,0.0,0.0,0.0,0.0,0.0,0.0,0.0,0.0,0.0,0.0,0.0,0.0,0.0,0.0,0.0,0.0,0.0,0.0,0.0,0.0,0.0,0.0,0.0,0.0,0.0,0.0,0.0,0.0,0.0,0.0,0.0,0.0,0.0,0.0,0.0,0.0,0.0,0.0,1.1378,1.2263,0.0,0.0,0.0,0.0,1.4961,1.4998,1.5316,1.599,1.6042,1.6169,1.6418,1.6829,1.7045,1.7045,1.8578,1.935,1.9358,2.0581,2.1159,2.1152,2.0192,1.9769,1.9724,1.8772,1.8356,1.8311,1.7658,1.6821,1.5917,1.587,1.5092,1.4083,1.4816,1.4947,1.503,0.0,0.0,0.0,0.0,0.0,0.0,0.0,0.0,0.838,0.9202,0.9626,1.035,1.1676,1.1966,1.2343,1.3009,1.3123,1.3115,1.3085,1.3033,1.3087,1.327,1.3231,1.3496,1.408,1.4559,1.5001,1.5412,1.5745,1.6035,1.6301,1.6438,1.6515,1.6515,1.6636,1.6554,1.6259,1.5531,1.5133,1.4985,1.4856,1.4503,0.0,0.0,0.0,0.0,0.0,0.0,0.0,0.0,0.0,0.0,0.0,0.0,0.0,0.0,0.0,0.0,0.0,0.0,0.0,0.0,0.0,0.0,0.0,0.0,0.0,0.0,0.0,0.0,0.0,0.0,0.0,0.0,0.0,0.0,0.0,0.0,0.0,1.3502,1.4438,0.0,1.4739,1.5233,1.592,1.6772,1.7077,1.7568,1.8374,1.8908,1.923,1.933,1.9677,1.9869,1.9869,2.044,2.0811,2.0998,2.1444,2.1878,2.2288,2.1931,2.1914,2.2128,2.1773,2.1624,2.1586,2.1228,2.0063,1.8449,1.7797,1.8126,1.8855,1.7879,1.7976,1.8695,0.0,0.0,0.0,0.0,0.0,0.0,0.0,0.0,0.8772,0.9891,1.0309,1.1106,1.2665,1.2826,1.3024,1.3465,1.3503,1.3563,1.3691,1.3493,1.3655,1.4281,1.42,1.4428,1.506,1.5403,1.5771,1.6173,1.6642,1.701,1.7284,1.7551,1.771,1.778,1.792,1.8028,1.8055,1.7224,1.6536,1.5973,1.5705,1.5441,1.5158,0.0,0.0,0.0,0.0,0.0,0.0,0.0,0.0,0.0,0.0,0.0,0.0,0.0,0.0,0.0,0.0,0.0,0.0,0.0,0.0,0.0,0.0,0.0,0.0,0.0,0.0,0.0,0.0,0.0,0.0,0.0,0.0,0.0,0.0,0.0,1.51,1.4917,1.5957,1.6622,1.6496,1.6984,1.7743,1.8771,1.9086,1.9544,2.0244,2.0788,2.1101,2.1204,2.1545,2.1779,2.1876,2.2009,2.2118,2.2203,2.23,2.2526,2.2876,2.2962,2.3095,2.3272,2.3359,2.3347,2.3259,2.3172,2.2322,2.0962,1.9712,1.9884,2.063,1.9295,1.9279,1.9994,0.0,0.0,0.0,0.0,0.0,0.0,0.0,0.8253,0.8799,0.9629,1.0658,1.1617,1.2435,1.3108,1.3503,1.3503,1.3503,1.3666,1.4067,1.4093,1.4289,1.4717,1.506,1.542,1.5831,1.6181,1.654,1.6934,1.7676,1.8044,1.8042,1.8838,1.9301,1.9484,1.9495,1.9655,1.9892,1.9697,1.8655,1.7071,1.6643,1.6225,1.5799,0.0,0.0,0.0,0.0,0.0,0.0,0.0,0.0,0.0,0.0,0.0,0.0,0.0,0.0,0.0,0.0,0.0,0.0,0.0,0.0,0.0,0.0,0.0,0.0,0.0,0.0,0.0,0.0,0.0,0.0,0.0,0.0,0.0,1.4279,1.4739,1.5306,1.5597,1.6724,1.7752,1.8407,1.9248,2.0081,2.0863,2.0932,2.1074,2.1437,2.1451,2.1571,2.1842,2.223,2.2553,2.2821,2.321,2.3272,2.3021,2.3284,2.3272,2.3046,2.3309,2.3293,2.3064,2.3327,2.3298,2.3094,2.3354,2.3445,2.3277,2.162,2.015,1.8957,1.8957,1.88,1.8757,0.0,0.0,0.0,0.0,0.0,0.0,0.0,0.8448,0.9142,1.0535,1.1135,1.1904,1.3092,1.3389,1.3503,1.3503,1.3503,1.3666,1.4067,1.4093,1.4521,1.5463,1.5866,0.0,1.6583,1.7206,1.7591,1.7702,1.8475,1.8872,1.887,1.9097,1.9224,1.9299,1.9598,1.9757,1.9855,2.0129,1.9986,1.9453,1.8461,1.7741,1.7162,0.0,0.0,0.0,0.0,0.0,0.0,0.0,0.0,0.0,0.0,0.0,0.0,0.0,0.0,0.0,0.0,0.0,0.0,0.0,0.0,0.0,0.0,0.0,0.0,0.0,0.0,0.0,0.0,0.0,0.0,0.0,1.6701,1.6647,1.6868,1.7065,1.7536,1.8446,1.9109,1.9684,2.0173,2.0646,2.1095,2.1524,2.1633,2.1912,2.2393,2.2509,2.2682,2.2954,2.3072,2.3162,2.3233,2.3331,2.3459,2.3571,2.3646,2.3746,2.387,2.3954,2.4105,2.4311,2.4383,2.4537,2.4724,2.4608,2.4394,2.403,2.3088,2.2583,2.2426,2.2426,2.2494,2.2634,0.0,0.0,0.0,0.0,0.0,0.0,0.0,0.8563,0.9298,1.0968,1.1368,1.2012,1.3351,1.3503,1.3503,1.3503,1.3649,1.3922,1.4332,1.477,0.0,0.0,0.0,1.7014,1.7352,1.7953,1.8473,1.8917,1.9568,2.0108,2.0593,2.0754,2.0982,2.1268,2.1732,2.1743,2.1454,2.1774,2.1573,2.093,2.0061,1.9186,1.835,1.7669,1.7225,1.6902,1.6198,1.5942,1.5864,1.5578,0.0,0.0,0.0,0.0,0.0,0.0,0.0,0.0,0.0,0.0,0.0,0.0,0.0,0.0,0.0,0.0,0.0,0.0,0.0,0.0,0.0,0.0,0.0,0.0,1.7909,1.8317,1.903,1.9035,1.9209,1.9876,2.0426,2.0917,2.1323,2.1642,2.1943,2.2278,2.2481,2.2723,2.3031,2.3132,2.3284,2.3559,2.3568,2.3698,2.3982,2.3991,2.4088,2.4302,2.4425,2.4492,2.4539,2.4653,2.4768,2.4882,2.5007,2.5122,2.5228,2.5189,2.5027,0.0,0.0,0.0,0.0,0.0,2.3733,2.3842,0.0,0.0,0.0,0.0,0.0,0.0,0.0,0.8747,0.9488,1.1111,1.1493,1.2089,1.3359,1.3503,1.3503,1.3503,1.387,1.4289,1.4726,1.5737,0.0,1.6369,1.709,1.7682,1.8061,1.8542,1.9269,2.0271,2.0799,2.1572,2.2576,2.304,2.3581,2.4177,2.4721,2.457,2.3923,2.4073,2.3348,2.2048,2.16,2.0617,1.9373,1.874,1.8283,1.7884,1.7323,1.7062,1.691,1.651,0.0,0.0,0.0,0.0,0.0,0.0,0.0,0.0,0.0,0.0,0.0,0.0,0.0,0.0,0.0,0.0,0.0,0.0,0.0,0.0,0.0,0.0,0.0,0.0,1.9134,2.0016,2.0724,2.0626,2.0492,2.0526,2.1094,2.1639,2.207,2.2326,2.2638,2.3058,2.3272,2.3431,2.3493,0.0,0.0,0.0,0.0,2.4263,2.4862,2.4874,2.4933,2.5059,2.5293,2.528,2.505,2.5293,2.5286,2.5135,2.5357,2.5359,2.5208,2.5444,2.5508,2.5386,2.4494,2.3939,2.363,2.363,2.363,2.363,0.0,0.0,0.0,0.0,0.0,0.0,0.0,0.9557,1.0529,1.1351,1.195,1.2611,1.3411,1.3503,1.3503,1.3503,1.387,1.4392,1.5061,0.0,1.6436,1.6771,1.7236,1.7812,1.8468,1.9403,2.0151,2.0683,2.2011,2.2773,2.2994,2.3838,2.4299,2.4447,2.5146,2.5384,2.5248,2.5484,2.5185,2.4447,2.3678,2.2128,2.0179,1.9427,1.9078,1.8903,1.8162,1.767,1.7333,1.6973,1.6608,1.6246,1.5982,0.0,0.0,0.0,0.0,0.0,0.0,0.0,0.0,0.0,0.0,0.0,0.0,0.0,0.0,0.0,0.0,0.0,0.0,0.0,0.0,1.9943,2.0178,2.0511,2.145,2.1633,2.1746,2.1964,2.1933,2.2128,2.2748,2.2854,2.3101,2.3609,2.3484,2.3593,2.4016,2.4146,2.4327,2.4593,2.4917,2.5153,2.5287,2.5287,2.5298,2.532,0.0,0.0,2.532,2.5385,2.5546,2.5813,2.5862,2.6041,2.6299,2.6353,2.6178,2.5829,2.533,2.5077,2.5017,2.5017,2.5017,2.5017,0.0,0.0,0.0,0.0,0.0,0.0,0.0,0.9155,1.0048,1.1156,1.1706,1.2381,1.3389,1.3503,1.3503,1.3503,1.405,1.4709,0.0,1.619,1.6685,1.6891,1.7458,1.8108,1.8872,1.975,2.0657,2.1599,2.2982,2.406,2.4865,2.5571,2.6151,2.6633,2.7265,2.7265,2.6807,2.6976,2.6447,2.5439,2.4812,2.3724,2.2329,2.0785,1.9951,1.952,1.8925,1.8439,1.8036,1.7669,1.7189,1.6723,1.6545,1.6245,1.5981,0.0,0.0,0.0,0.0,0.0,0.0,0.0,0.0,0.0,0.0,0.0,0.0,0.0,0.0,1.7959,1.8628,0.0,1.9648,2.0546,2.1073,2.1573,2.2208,2.2423,2.2474,2.2414,2.2455,2.2675,2.3154,2.3322,2.3598,2.4056,2.4099,2.4307,2.4783,2.4856,2.4962,2.5104,2.5297,2.5489,2.5704,2.5704,2.5792,2.6003,2.6003,2.6003,2.6003,2.6003,2.6114,2.6297,2.6297,2.6403,2.6605,2.6605,2.6476,2.6279,2.6086,2.5756,2.5398,2.5398,2.5398,2.5398,0.0,0.0,0.0,0.0,0.0,0.0,0.0,0.8737,0.9555,1.0922,1.1448,1.2158,1.3366,1.3503,1.3529,1.3606,1.4281,0.0,0.0,1.6396,1.6832,1.6899,1.754,1.8304,1.9174,1.9996,2.107,2.2394,2.3734,2.5153,2.6616,2.7187,2.7956,2.8875,2.9394,2.9186,2.8423,2.8382,2.7597,2.6309,2.5712,2.5174,2.4532,2.2521,2.1147,2.0214,1.9637,1.9108,1.864,1.8273,1.7778,1.7297,1.7215,1.683,1.6429,1.6608,1.6612,0.0,0.0,0.0,0.0,0.0,0.0,0.0,0.0,0.0,1.7794,1.8063,1.8473,1.8973,1.9613,2.026,2.0792,2.1053,2.1826,2.2525,2.2865,2.3003,2.2982,2.2709,2.2912,2.3184,2.3447,2.3743,2.407,2.4443,2.4747,2.5058,2.5379,2.5471,2.5521,2.5521,2.559,2.5783,2.6104,2.6118,2.6279,2.6605,2.6605,2.6605,2.6605,2.6605,2.6605,2.6605,2.6605,2.6605,2.6605,2.6605,2.6605,2.6605,2.6605,2.6201,2.5636,2.5636,2.5636,2.5636,0.0,0.0,0.0,0.0,0.0,0.0,0.0,0.0,1.0567,1.1034,1.1851,1.2673,1.3419,1.3503,1.364,1.3999,0.0,0.0,1.524,1.6012,1.6595,1.6891,1.7322,1.8069,1.9185,2.0503,2.1581,2.2394,2.4207,2.5607,2.6616,2.7571,2.8505,2.9439,2.9909,3.0057,2.9932,2.9521,2.8974,2.8265,2.6964,2.6129,2.5547,2.4511,2.3102,2.1513,2.0285,1.9346,1.8667,1.844,1.8074,1.7674,1.7311,1.7312,1.7359,1.6982,0.0,1.7085,1.6939,1.7177,1.7591,1.8134,1.8092,1.7972,0.0,0.0,1.8497,1.853,1.8996,1.9641,2.0426,2.0638,2.1109,2.2359,2.2472,2.2612,2.3231,2.3345,2.3438,2.3617,2.347,2.3459,2.373,2.4114,2.445,2.4725,2.5106,2.5352,2.5398,2.5741,2.5934,2.5934,2.6288,2.6485,2.6531,2.6531,2.6559,2.6605,2.6605,2.6605,2.6605,2.6605,2.6605,2.6605,2.6605,2.6605,2.6605,2.6605,2.6605,2.6605,2.6605,2.655,2.6467,2.6467,2.6467,2.6467,0.0,0.0,0.0,0.0,0.0,0.0,0.0,0.0,0.0,1.0748,1.1481,1.232,1.3374,1.3503,1.3657,1.4059,0.0,0.0,1.5155,1.5737,1.6293,1.6874,1.7297,1.7914,1.8832,2.0195,2.1287,2.2107,2.3911,2.5406,2.6628,2.7314,2.8144,2.9045,2.9244,2.9332,2.9309,2.9125,2.8746,2.8243,2.7644,2.7092,2.6484,2.5308,2.3959,2.2595,2.1727,2.0321,0.0,0.0,1.8688,1.7973,1.7908,1.7652,1.7368,1.7414,1.7407,0.0,1.7705,1.7898,1.8073,0.0,1.8457,1.8519,1.8521,1.8835,1.9194,1.9428,1.9981,2.0587,2.1129,2.1605,2.2048,0.0,2.2781,2.3083,2.3366,2.3534,2.3733,2.4003,2.4147,2.4267,2.4368,2.4523,2.4866,2.5449,2.5645,2.5847,2.6095,2.626,2.6352,2.6352,2.6504,2.6605,2.6605,2.6605,2.6605,2.6605,2.6605,2.6605,2.6605,2.6605,2.6724,2.6944,2.6944,2.7073,2.7298,2.7298,2.7298,2.7298,2.7298,2.7298,2.7243,2.677,2.6605,2.6605,0.0,0.0,0.0,0.0,0.0,0.0,0.0,0.0,0.0,0.0,1.0988,1.1936,1.335,1.3503,1.3622,0.0,0.0,0.0,0.0,1.536,1.5925,1.6566,1.7073,1.7682,1.8417,1.9973,2.1013,2.1509,2.3327,2.4848,2.6087,2.6584,2.7447,2.8539,2.8646,2.87,2.8689,2.8551,2.8309,2.7987,2.7699,2.7211,2.6528,2.5363,2.4028,2.2685,2.22,2.0732,0.0,0.0,1.8996,1.8277,1.8366,1.8044,1.7645,1.7807,1.7835,1.7894,1.834,1.8546,0.0,1.8475,1.8724,1.8958,1.8868,1.9276,1.9785,2.0177,2.0785,2.1368,2.1758,2.2281,2.2647,2.2617,2.3049,2.3431,2.3497,2.3742,2.3978,2.4177,2.4566,2.4834,2.4944,2.5067,2.537,2.5952,2.6095,2.6297,2.6586,2.6605,2.6605,2.6605,2.6605,2.6605,2.6605,2.6605,2.6605,2.6605,2.6605,2.666,2.677,2.688,2.7082,2.7371,2.7371,2.7527,2.7793,2.7793,2.7793,2.7793,2.7793,2.7793,2.772,2.7151,2.6862,2.6752,0.0,0.0,0.0,0.0,0.0,0.0,0.0,0.0,0.0,0.0,0.0,0.0,0.0,0.0,0.0,0.0,0.0,0.0,0.0,1.4812,1.5394,1.5814,1.6532,1.7258,1.8,2.01,2.0971,2.0539,2.2483,2.3884,2.4775,2.5376,2.653,2.8138,2.8528,2.87,2.8666,2.8217,2.8011,2.7918,2.694,2.6024,2.521,2.4706,2.32,2.1311,2.097,0.0,0.0,0.0,1.871,1.8644,1.8455,1.8525,0.0,1.8124,1.8271,1.8574,1.8592,0.0,1.9082,1.8686,1.8892,1.9239,1.9424,1.9791,2.0206,2.0603,2.1159,2.1752,2.2275,2.2338,2.2542,2.3242,2.3397,2.3484,2.3746,2.4016,2.4189,2.4202,2.4566,2.4944,0.0,2.5732,2.5971,2.5998,2.6361,2.6586,2.6605,2.6605,2.6605,2.6605,2.6605,2.6605,2.6605,2.6605,2.6605,2.6605,2.6605,2.6797,2.7197,2.7582,2.7766,2.7775,2.7775,2.7784,2.7793,2.7793,2.7793,2.7793,2.7793,2.7793,2.7807,2.7766,2.7518,2.7132,0.0,0.0,0.0,0.0,0.0,0.0,0.0,0.0,0.0,0.0,0.0,0.0,0.0,0.0,0.0,0.0,0.0,0.0,0.0,1.4333,1.4872,1.5762,1.6036,1.6673,1.7781,1.894,1.9799,2.0299,2.1935,2.2929,2.3319,2.4063,2.4593,2.4918,2.5052,2.5114,2.5144,2.5522,2.5375,2.4895,2.5091,2.468,2.3885,2.3368,2.2307,2.1023,0.0,0.0,0.0,0.0,1.8834,1.8513,1.8581,0.0,1.8495,1.8423,1.8684,1.9003,1.9003,0.0,1.92,1.92,1.9492,1.9852,2.0113,2.0782,2.1356,2.131,2.213,2.2751,2.2401,2.2864,2.3258,2.3154,2.3434,2.3696,2.3792,2.4028,2.4299,2.4575,2.4957,0.0,0.0,0.0,0.0,2.6389,2.6522,2.6605,2.6605,2.6605,2.6605,2.6605,2.6605,2.6605,2.6605,2.6605,2.6605,2.6605,2.6871,2.7215,2.76,2.7738,2.7949,2.8201,2.8201,2.8348,2.8601,2.8601,2.8601,2.8601,2.8601,2.8601,2.8559,2.8293,2.8109,2.7935,0.0,0.0,0.0,0.0,0.0,0.0,0.0,0.0,0.0,0.0,0.0,0.0,0.0,0.0,0.0,0.0,0.0,0.0,0.0,0.0,1.4435,1.5163,1.5583,1.618,1.6996,1.8079,1.8857,1.9345,2.0797,2.1749,2.2221,2.3049,2.3604,2.3914,2.4083,2.4004,2.3764,2.4281,2.413,2.3522,2.3554,2.3183,2.2501,2.1667,2.0867,0.0,0.0,0.0,0.0,0.0,1.8573,1.8282,1.8411,1.8458,1.852,1.8745,1.9087,1.9397,1.9495,1.9622,1.9756,1.9845,2.0143,2.0488,2.0762,2.1363,2.1841,2.1798,2.2473,2.294,2.2492,2.3017,2.3434,2.3184,2.3509,2.382,2.3929,2.409,2.4303,2.4553,2.5067,2.5499,0.0,0.0,0.0,2.6577,2.6605,2.6605,2.6605,2.6605,2.6605,2.6605,2.6605,2.6605,2.6605,2.6605,2.6669,2.6825,2.7366,2.7761,2.8023,2.816,2.8372,2.8599,2.8599,2.8761,2.8999,2.8999,2.8999,2.8999,2.8999,2.8999,2.8962,2.8715,2.8599,2.854,0.0,0.0,0.0,0.0,0.0,0.0,0.0,0.0,0.0,0.0,0.0,0.0,0.0,0.0,0.0,0.0,0.0,0.0,0.0,0.0,0.0,1.4093,1.5146,1.5737,1.5781,1.7488,1.8163,1.7747,1.9163,2.0341,2.1322,2.2191,2.3327,2.4649,2.5099,2.4884,2.4178,2.4217,2.3991,2.3505,2.2268,2.1519,2.1007,1.9707,0.0,0.0,0.0,0.0,0.0,0.0,0.0,1.8,1.802,1.8288,1.8675,1.908,1.9444,1.9755,2.0048,2.0406,2.0646,2.0552,2.0762,2.1042,2.1325,2.1503,2.1721,2.202,2.2236,2.2412,0.0,0.0,2.3122,2.3359,2.3634,2.3916,2.4164,2.4202,2.4211,0.0,0.0,0.0,0.0,0.0,0.0,2.6605,0.0,2.6605,2.6605,2.6605,2.6605,2.6605,2.6605,2.6605,2.6605,2.6623,2.6843,2.7265,2.8036,2.8407,2.8434,2.8825,2.8999,2.8999,2.8999,2.8999,2.8999,2.8999,2.8999,2.8999,2.8999,2.8999,2.8999,2.8999,2.8999,2.8889,0.0,0.0,0.0,0.0,0.0,0.0,0.0,0.0,0.0,0.0,0.0,0.0,0.0,0.0,0.0,0.0,0.0,0.0,0.0,0.0,0.0,0.0,0.0,0.0,0.0,0.0,0.0,0.0,0.0,1.8911,1.8606,1.944,1.9752,1.9638,1.9761,1.978,1.9761,2.037,2.0215,1.9593,0.0,1.9546,1.8854,0.0,0.0,0.0,0.0,0.0,0.0,0.0,0.0,0.0,1.8241,1.8441,1.8675,1.908,1.9444,1.9826,2.0391,2.0483,2.0481,2.0792,2.0823,2.0826,2.1051,2.1596,2.2005,2.1909,2.2543,2.3007,0.0,0.0,0.0,2.3422,2.3783,0.0,2.4189,2.4202,0.0,2.4608,0.0,2.5517,2.5824,2.6293,0.0,0.0,2.6605,2.6605,2.6605,2.6605,2.6605,2.6605,2.6605,2.6605,2.6605,2.6903,2.7394,2.81,2.8297,2.8568,2.8852,2.8953,2.8999,2.8999,2.8999,2.8999,2.8999,2.8999,2.8999,2.8999,2.8999,2.8999,2.8999,2.8999,2.8999,2.8962,0.0,0.0,0.0,0.0,0.0,0.0,0.0,0.0,0.0,0.0,0.0,0.0,0.0,0.0,0.0,0.0,0.0,0.0,0.0,0.0,0.0,0.0,0.0,0.0,0.0,0.0,0.0,0.0,0.0,0.0,0.0,1.828,1.862,1.8773,1.8773,1.8636,1.8443,0.0,0.0,0.0,0.0,0.0,0.0,0.0,0.0,0.0,0.0,0.0,0.0,0.0,0.0,1.8312,1.8382,1.8552,1.8799,1.9101,0.0,1.9843,2.0516,2.0645,2.0668,2.093,2.0995,2.1057,2.1228,2.1519,2.1804,2.1982,2.2434,0.0,2.2619,2.3159,0.0,0.0,0.0,0.0,2.4202,2.4202,2.4281,0.0,2.5049,0.0,2.571,2.6256,2.6605,0.0,2.6605,2.6605,2.6605,2.6605,2.6605,2.6605,2.6605,2.6687,2.6862,2.743,2.7953,2.8397,2.8586,2.8779,2.8999,2.8999,2.8999,2.8999,0.0,2.8999,2.8999,2.8999,2.8999,2.8999,2.8999,2.8999,2.8999,2.8999,2.8999,2.8999,0.0,0.0,0.0,0.0,0.0,0.0,0.0,0.0,0.0,0.0,0.0,0.0,0.0,0.0,0.0,0.0,0.0,0.0,0.0,0.0,0.0,0.0,0.0,0.0,0.0,0.0,0.0,0.0,0.0,0.0,0.0,0.0,0.0,0.0,0.0,0.0,0.0,0.0,0.0,0.0,0.0,0.0,0.0,0.0,0.0,0.0,0.0,0.0,0.0,0.0,1.8513,1.8632,1.8462,1.8599,1.8884,1.9135,1.941,1.9794,2.0507,2.0803,2.0918,2.0952,2.1105,2.127,2.1403,2.1287,2.1339,2.1974,0.0,2.2034,2.2376,2.292,2.3326,2.3326,0.0,2.4202,2.4202,2.4202,2.4202,2.4202,2.4915,2.5398,2.5398,2.6132,2.6605,2.6605,2.6605,2.6605,2.6605,2.6605,2.6605,2.6605,2.6651,2.6871,2.7279,2.8027,2.844,2.8471,2.8834,2.8999,2.8999,2.8999,2.8999,2.8999,2.8999,0.0,2.8999,2.8999,2.8999,2.8999,2.8999,2.8999,2.8999,2.8999,2.8999,2.8999,0.0,0.0,0.0,0.0,0.0,0.0,0.0,0.0,0.0,0.0,0.8619,0.9109,0.0,0.0,0.0,0.0,0.0,0.0,0.0,0.0,0.0,0.0,0.0,0.0,0.0,0.0,0.0,0.0,0.0,0.0,0.0,0.0,0.0,0.0,0.0,0.0,0.0,0.0,0.0,0.0,0.0,0.0,0.0,0.0,0.0,0.0,0.0,0.0,0.0,0.0,1.8422,1.8452,1.8412,1.8436,1.8577,1.9058,1.9243,1.9494,2.044,2.0555,2.0464,2.0702,2.062,2.0502,2.0525,2.0747,0.0,0.0,2.1346,2.1533,2.1593,2.2318,2.2901,2.2901,2.3634,2.4202,2.4202,2.4202,2.4202,0.0,2.4915,2.5398,2.5398,2.6132,0.0,0.0,2.6605,2.6605,2.6605,2.6605,2.6605,2.6605,2.6917,2.7288,2.7683,2.8164,2.8577,2.8898,2.8962,2.8999,2.8999,2.8999,2.8999,2.8999,2.8999,0.0,2.8999,2.8999,2.8999,2.8999,2.8999,2.8999,2.8999,2.8999,2.8999,2.8999,0.0,0.0,0.0,0.0,0.0,0.0,0.0,0.72,0.7267,0.7459,0.7707,0.8102,0.8705,0.9546,1.0161,0.0,0.0,0.0,0.0,0.0,0.0,0.0,0.0,0.0,0.0,0.0,0.0,0.0,0.0,0.0,0.0,0.0,0.0,0.0,0.0,0.0,0.0,0.0,0.0,0.0,0.0,0.0,0.0,0.0,0.0,0.0,0.0,0.0,0.0,0.0,1.8282,1.8402,1.8402,1.8402,1.8457,1.8791,1.9048,1.9342,1.9999,2.0337,2.0507,2.0496,2.0496,2.0525,2.0595,0.0,0.0,0.0,2.1148,2.1191,2.1379,2.1872,0.0,2.2744,2.3294,2.3803,2.4149,2.4202,0.0,2.4202,2.4915,2.5398,0.0,2.6132,2.6605,2.6605,2.6605,2.6605,2.6605,2.6605,2.6696,2.6912,2.7307,2.7711,2.8109,2.8513,2.8807,2.8999,2.8999,2.8999,2.8999,2.8999,2.8999,2.8999,2.8999,0.0,2.8999,2.8999,2.8999,2.8999,2.8999,2.8999,2.8999,2.8999,2.8999,2.8999,0.0,0.0,0.0,0.0,0.0,0.0,0.0,0.704,0.7067,0.7093,0.7098,0.7304,0.7826,0.9002,0.9572,0.0,0.0,0.0,0.0,0.0,0.0,0.0,0.0,0.0,0.0,0.0,0.0,0.0,0.0,0.0,0.0,0.0,0.0,0.0,0.0,0.0,0.0,0.0,0.0,0.0,0.0,0.0,0.0,0.0,0.0,0.0,0.0,0.0,0.0,0.0,1.8082,1.8303,1.8303,1.8343,1.8432,1.8559,1.8872,1.9267,1.9608,2.0143,2.0564,2.0348,2.0462,2.0639,2.0755,2.0526,0.0,0.0,2.0951,2.0851,2.1122,0.0,2.1912,0.0,2.2969,2.3426,2.4109,2.4202,2.4202,0.0,2.4915,0.0,2.5398,2.6132,0.0,2.6605,2.6605,2.6605,2.6605,2.6605,2.6779,2.7197,2.7591,2.7981,2.8403,2.8797,2.8999,2.8999,2.8999,2.8999,2.8999,2.8999,2.8999,2.8999,2.8999,0.0,0.0,2.8999,2.8999,2.8999,2.8999,2.8999,2.8999,2.8999,2.8999,2.8999,0.0,0.0,0.0,0.0,0.0,0.0,0.0,0.684,0.6959,0.7086,0.7098,0.7124,0.7179,0.7487,0.8207,0.0,0.0,0.0,0.0,0.0,0.0,0.0,0.0,0.0,0.0,0.0,0.0,0.0,0.0,0.0,0.0,0.0,0.0,0.0,0.0,0.0,0.0,0.0,0.0,0.0,0.0,0.0,0.0,0.0,0.0,0.0,0.0,0.0,0.0,0.0,0.0,1.804,1.804,1.8201,1.8432,1.8559,0.0,0.0,1.9608,2.0009,2.0337,2.0303,2.0326,2.0346,2.0346,0.0,2.032,2.0389,2.038,2.0352,2.0397,2.0917,0.0,0.0,0.0,2.3426,2.4109,2.4202,2.4202,2.4202,0.0,0.0,2.5398,2.6132,2.6605,2.6605,2.6605,2.6605,2.6605,2.6605,2.6779,2.7197,2.7591,2.7981,2.8403,2.8797,2.8999,2.8999,2.8999,2.8999,2.8999,2.8999,2.8999,2.8999,2.8999,0.0,0.0,2.8999,2.8999,2.8999,2.8999,2.8999,2.8999,2.8999,2.8999,2.8999,0.0,0.0,0.0,0.0,0.0,0.0,0.6675,0.6744,0.6857,0.7076,0.7098,0.7098,0.7098,0.7171,0.7519,0.8247,0.0,0.0,0.0,0.0,0.0,0.0,0.0,0.0,0.0,0.0,0.0,0.0,0.0,0.0,0.0,0.0,0.0,0.0,0.0,0.0,0.0,0.0,0.0,0.0,0.0,0.0,0.0,0.0,0.0,0.0,0.0,0.0,0.0,0.0,0.0,0.0,1.8,1.8062,0.0,0.0,1.8519,1.8864,1.8997,1.9485,1.9944,1.9944,2.0118,2.0303,2.0303,0.0,2.0303,2.0303,2.0303,2.0303,2.0303,2.0523,2.0974,0.0,0.0,0.0,2.3615,2.4003,2.414,2.3978,2.4602,0.0,0.0,0.0,2.6343,2.6577,2.6605,2.6605,2.6605,2.6605,2.6903,2.7536,2.7711,2.8115,2.8751,2.8917,2.8999,2.8999,2.8999,2.8999,2.8999,2.8999,2.8999,2.8999,2.8999,0.0,0.0,2.8999,2.8999,2.8999,2.8999,2.8999,2.8999,2.8999,2.8999,2.8999,0.0,0.0,0.0,0.0,0.0,0.6422,0.6664,0.6683,0.6771,0.706,0.7098,0.7098,0.7098,0.7098,0.7155,0.7299,0.8009,0.0,0.0,0.0,0.0,0.0,0.0,0.0,0.0,0.0,0.0,0.0,0.0,0.0,0.0,0.0,0.0,0.0,0.0,0.0,0.0,0.0,0.0,0.0,0.0,0.0,0.0,0.0,0.0,0.0,0.0,0.0,0.0,0.0,0.0,0.0,0.0,0.0,0.0,0.0,1.8276,1.8598,1.8598,1.9142,1.97,1.97,1.9995,2.0303,0.0,0.0,2.0303,2.0303,2.0303,2.0303,2.0303,2.0303,2.0597,2.1502,2.1963,2.2443,2.3127,2.3794,2.4102,2.382,0.0,2.5095,0.0,2.5866,2.6297,2.6577,2.6605,2.6605,2.6605,2.6605,2.6907,2.7591,2.7738,2.8133,2.8816,2.8935,2.8999,2.8999,2.8999,2.8999,2.8999,2.8999,2.8999,2.8999,2.8999,0.0,0.0,2.8999,2.8999,2.8999,2.8999,2.8999,2.8999,2.8999,2.8999,2.8999,0.0,0.0,0.0,0.0,0.0,0.0,0.6652,0.664,0.672,0.7053,0.7098,0.7098,0.7098,0.7098,0.7105,0.7098,0.7295,0.0,0.0,0.0,0.0,0.0,0.0,0.0,0.0,0.0,0.0,0.0,0.0,0.0,0.0,0.0,0.0,0.0,0.0,0.0,0.0,0.0,0.0,0.0,0.0,0.0,0.0,0.0,0.0,0.0,0.0,0.0,0.0,0.0,0.0,0.0,0.0,0.0,0.0,0.0,1.8276,1.8598,1.8598,1.9142,1.97,1.97,1.9995,2.0303,0.0,0.0,2.0303,2.0303,2.0303,2.0303,2.0303,2.0303,2.0523,2.1206,2.1808,2.2342,2.275,2.361,2.4102,0.0,0.0,2.5401,2.5398,2.6119,2.6596,2.6605,2.6605,0.0,2.6605,2.6605,2.6788,2.7183,2.7591,2.7995,2.8397,2.8807,2.8999,2.8999,2.8999,2.8999,2.8999,2.8999,2.8999,2.8999,0.0,0.0,0.0,2.8999,2.8999,2.8999,2.8999,2.8999,2.8999,2.8999,2.8999,2.8999,0.0,0.0,0.0,0.0,0.0,0.0,0.0,0.6593,0.6709,0.6811,0.6988,0.7098,0.7098,0.7098,0.7098,0.7098,0.7283,0.0,0.0,0.0,0.0,0.0,0.0,0.0,0.0,0.0,0.0,1.3503,1.3503,0.0,0.0,0.0,0.0,0.0,0.0,0.0,0.0,0.0,0.0,0.0,0.0,0.0,0.0,0.0,0.0,0.0,0.0,0.0,0.0,0.0,0.0,0.0,0.0,0.0,0.0,1.8,1.8095,1.8191,1.8191,1.8757,1.9369,1.9369,1.9829,2.0303,2.0303,2.0303,2.0303,2.0303,2.0303,2.0303,2.0303,2.0303,2.05,2.1131,2.1775,2.2321,0.0,0.0,0.0,2.382,2.4752,2.5398,0.0,0.0,2.6605,2.6605,2.6605,2.6605,2.6605,2.6605,2.6779,2.7197,2.7591,2.7981,2.8403,2.8797,2.8999,2.8999,2.8999,2.8999,2.8999,2.8999,2.8999,0.0,0.0,0.0,0.0,2.8999,2.8999,2.8999,2.8999,2.8999,2.8999,2.8999,2.8999,2.8999,0.0,0.0,0.0,0.0,0.0,0.0,0.0,0.6521,0.663,0.6756,0.6924,0.7042,0.7094,0.7098,0.7098,0.7098,0.7218,0.0,0.0,0.0,0.0,0.0,0.0,0.0,0.0,0.0,1.2627,1.3055,1.31,1.3252,1.3487,1.3245,0.0,0.0,0.0,0.0,0.0,0.0,0.0,0.0,0.0,0.0,1.5805,0.0,0.0,0.0,0.0,0.0,0.0,0.0,0.0,0.0,0.0,0.0,0.0,0.0,1.8,1.8,0.0,1.8586,1.9192,1.9192,1.9746,2.0303,0.0,0.0,2.0303,2.0303,2.0303,2.0303,2.0303,2.0303,2.0511,2.1142,2.1775,2.2333,0.0,0.0,0.0,2.4184,0.0,0.0,0.0,2.6224,2.6605,2.6605,2.6605,2.6605,2.6605,2.6605,2.6715,2.6976,2.7362,2.7766,2.8164,2.8568,2.8852,2.8999,2.8999,2.8999,2.8999,2.8999,2.8999,0.0,0.0,0.0,0.0,2.8999,2.8999,2.8999,2.8999,2.8999,2.8999,2.8999,2.8999,2.8999,0.0,0.0,0.0,0.0,0.0,0.0,0.0,0.6441,0.6515,0.6824,0.6881,0.6946,0.7076,0.7094,0.7098,0.7098,0.0,0.0,0.0,0.0,0.0,0.0,0.0,0.0,0.0,1.1726,1.2197,1.2297,1.2435,1.2818,1.3419,1.2787,1.2833,0.0,0.0,0.0,0.0,0.0,0.0,0.0,0.0,1.5137,0.0,0.0,0.0,0.0,0.0,0.0,0.0,0.0,0.0,0.0,0.0,0.0,0.0,0.0,0.0,0.0,0.0,1.8586,1.9192,1.9192,1.9746,2.0303,2.0303,0.0,0.0,2.0303,2.0303,2.0303,2.0303,2.0326,2.0546,2.1209,2.1834,2.2369,0.0,2.3625,0.0,0.0,2.5159,0.0,2.5962,2.6357,2.6605,2.6605,2.6605,2.6605,2.6605,2.6605,2.6605,2.6605,2.6953,2.7353,2.7747,2.8183,2.8596,2.8953,2.8981,2.8999,2.8999,2.8999,2.8999,0.0,0.0,0.0,0.0,2.8999,2.8999,2.8999,2.8999,2.8999,2.8999,2.8999,2.8999,2.8999,0.0,0.0,0.0,0.0,0.0,0.0,0.0,0.0,0.0,0.0,0.6739,0.6912,0.6942,0.7038,0.7098,0.0,0.0,0.0,0.0,0.0,0.0,0.0,0.0,0.0,0.0,1.0529,1.1267,1.2297,1.2435,1.2581,1.2726,1.2573,1.2581,1.2734,1.2734,0.0,0.0,0.0,0.0,0.0,1.47,1.5137,0.0,0.0,0.0,0.0,1.5805,1.6087,0.0,0.0,0.0,0.0,0.0,0.0,0.0,0.0,1.8,1.8,1.8,0.0,1.9192,1.9192,1.9746,2.0303,0.0,0.0,0.0,0.0,0.0,2.0303,2.0303,2.0473,2.0807,2.1431,2.208,2.2702,2.3263,0.0,0.0,2.4755,2.5159,2.5567,2.5962,2.6357,2.6605,2.6605,2.6605,2.6605,2.6605,2.6605,2.6605,2.6605,2.6696,2.6926,2.7343,2.8054,2.8443,2.8535,2.8852,2.8999,2.8999,2.8999,2.8999,0.0,0.0,0.0,2.8999,2.8999,2.8999,2.8999,2.8999,2.8999,2.8999,2.8999,2.8999,2.8999,0.0,0.0,0.0,0.0,0.0,0.0,0.0,0.0,0.0,0.0,0.0,0.0,0.0,0.0,0.0,0.0,0.0,0.0,0.0,0.0,0.0,0.0,0.0,0.0,0.0,1.034,1.1173,1.2297,1.2135,1.2197,1.2489,1.2189,1.2205,1.2504,1.2818,0.0,0.0,0.0,0.0,0.0,1.47,0.0,0.0,0.0,0.0,0.0,1.5805,1.6045,0.0,1.6771,1.7176,1.7564,0.0,0.0,0.0,0.0,1.8,1.8,1.8,1.8586,1.9192,1.9192,1.9746,2.0303,2.0303,0.0,0.0,0.0,0.0,0.0,2.0462,2.0745,2.1161,2.1781,2.2431,0.0,0.0,0.0,2.4345,2.4755,2.5159,2.5567,0.0,2.6357,2.6605,2.6605,2.6605,2.6605,2.6605,2.6605,2.6605,2.6605,2.6605,2.6788,2.7197,2.7632,2.8022,2.8397,2.8623,2.8825,2.8999,2.8999,2.8999,0.0,0.0,0.0,2.8999,2.8999,2.8999,2.8999,2.8999,2.8999,2.8999,2.8999,2.8999,2.8999,0.0,0.0,0.0,0.0,0.0,0.0,0.0,0.0,0.0,0.0,0.0,0.0,0.0,0.0,0.0,0.0,0.0,0.0,0.0,0.0,0.0,0.0,0.0,0.884,0.9815,1.0631,1.1462,1.2297,1.1801,1.1909,1.2576,1.1954,1.1993,1.2622,1.3232,0.0,0.0,0.0,0.0,0.0,1.47,0.0,0.0,0.0,0.0,0.0,0.0,0.0,0.0,1.6773,1.7132,1.7477,1.7864,0.0,0.0,0.0,0.0,0.0,1.8,1.8543,1.9123,1.9183,1.9746,2.0303,2.0303,0.0,0.0,0.0,0.0,0.0,0.0,2.1123,0.0,0.0,0.0,0.0,2.4119,2.4202,2.4373,2.4838,2.5196,0.0,2.6053,2.6407,2.6605,2.6605,2.6605,2.6605,2.6605,2.6605,2.6605,2.6605,2.6605,2.6761,2.7114,2.7169,2.754,2.8229,2.8284,2.8522,2.8907,2.8907,2.8935,2.8999,0.0,0.0,2.8999,2.8999,2.8999,2.8999,2.8999,2.8999,2.8999,2.8999,2.8999,2.8999,0.0,0.0,0.0,0.0,0.0,0.0,0.0,0.0,0.0,0.0,0.0,0.0,0.0,0.0,0.0,0.0,0.0,0.0,0.0,0.0,0.0,0.0,0.9168,0.9456,0.9959,1.0812,1.1594,1.2297,1.1985,1.2238,1.3004,1.2548,1.2583,1.302,1.3349,1.3503,1.3503,1.3503,1.3964,1.47,1.47,0.0,0.0,0.0,0.0,0.0,0.0,0.0,0.0,1.6669,1.6942,1.7105,1.7787,0.0,0.0,0.0,0.0,0.0,1.8,1.8338,1.877,1.9114,1.9746,2.0303,0.0,0.0,0.0,0.0,0.0,0.0,0.0,2.1585,2.2152,0.0,0.0,2.4079,0.0,0.0,2.4486,2.5214,0.0,2.5691,2.643,2.6568,2.6605,2.6605,2.6605,2.6605,2.6605,2.6605,2.6605,2.6605,2.6605,2.6632,2.6696,2.7027,2.7256,2.7399,2.7729,2.8091,2.8489,2.8489,2.8678,2.8999,0.0,2.8999,2.8999,2.8999,2.8999,2.8999,2.8999,2.8999,2.8999,2.8999,2.8999,2.8999,0.0,0.0,0.0,0.0,0.0,0.0,0.0,0.0,0.0,0.0,0.0,0.0,0.0,0.0,0.0,0.0,0.0,0.0,0.0,0.0,0.0,0.9356,0.9925,1.0526,1.1229,1.164,1.2305,1.3267,1.279,1.2849,1.342,1.3012,1.3114,1.3641,1.3536,1.3503,1.3504,1.3733,1.4161,1.4717,0.0,0.0,0.0,0.0,0.0,0.0,0.0,0.0,0.0,0.0,1.6899,1.7028,1.777,0.0,0.0,0.0,0.0,0.0,1.8,1.8449,1.8969,1.9149,1.959,0.0,0.0,0.0,0.0,0.0,0.0,0.0,0.0,0.0,2.2891,2.3627,0.0,2.4028,2.4177,2.4202,2.4505,0.0,0.0,2.5719,2.6522,2.6605,2.6605,2.6605,2.6605,2.6605,2.6605,2.6605,2.6605,2.6605,2.6605,2.6605,2.6605,2.6779,2.6981,2.7206,2.7389,2.7692,2.8082,2.8302,2.8504,2.8696,0.0,2.8999,2.8999,2.8999,2.8999,2.8999,2.8999,2.8999,2.8999,2.8999,2.8999,2.8999,0.0,0.0,0.0,0.0,0.0,0.0,0.0,0.0,0.0,0.0,0.0,0.0,0.0,0.0,0.0,0.0,0.0,0.0,0.0,0.0,0.872,0.9942,1.0762,1.1548,1.2328,1.2504,1.3083,1.4093,1.3485,1.3443,1.3915,1.3687,1.3825,1.4221,1.3819,1.3589,1.3536,1.393,1.4332,1.4734,0.0,0.0,0.0,0.0,0.0,0.0,0.0,0.0,0.0,0.0,0.0,0.0,0.0,0.0,0.0,1.8,1.8,1.8,1.8,1.8449,1.8958,1.9149,0.0,0.0,0.0,0.0,0.0,0.0,0.0,0.0,0.0,2.2907,0.0,2.4119,2.4028,2.3966,2.4177,2.4202,2.4505,2.5297,2.5398,2.5719,2.6522,2.6605,2.6605,2.6605,2.6605,2.6605,2.6605,2.6605,2.6605,2.6605,2.6605,2.6605,2.6605,2.6605,2.6752,2.7068,2.7068,2.727,2.7665,2.7981,2.8174,2.8284,2.8687,2.8862,2.8871,2.8962,2.8999,2.8999,2.8999,2.8999,2.8999,2.8999,2.8999,2.8999,0.0,0.0,0.0,0.0,0.0,0.0,0.0,0.0,0.0,0.0,0.0,0.0,0.0,0.0,0.0,0.0,0.0,0.0,0.0,0.0,0.9743,1.1381,1.1814,1.2162,1.2481,1.31,1.3638,1.4093,1.368,1.3844,1.454,1.4897,1.4907,1.464,1.4238,1.3853,1.3536,1.393,1.4332,1.4734,1.5069,0.0,0.0,0.0,0.0,0.0,0.0,0.0,0.0,0.0,0.0,0.0,0.0,0.0,1.8,1.8,1.8,1.8,1.8,1.8034,1.8268,1.901,0.0,0.0,0.0,0.0,0.0,0.0,0.0,0.0,0.0,2.3675,2.414,2.4192,2.4177,2.4177,2.4202,0.0,2.4505,2.5297,2.5398,2.5719,2.6522,2.6605,2.6605,2.6605,2.6605,2.6605,2.6605,2.6605,2.6605,2.6605,2.6605,2.6605,2.6605,2.6605,2.66,2.6641,2.6641,2.6852,2.7243,2.7265,2.749,2.7867,2.8265,2.8434,2.8462,2.8852,2.8999,2.8999,2.8999,2.8999,2.8999,2.8999,2.8999,2.8999,0.0,0.0,0.0,0.0,0.0,0.0,0.0,0.0,0.0,0.0,0.0,0.0,0.0,0.0,0.0,0.0,0.0,0.0,0.0,0.0,1.0497,1.1544,1.2079,1.2589,1.3108,1.3366,1.3819,1.4469,1.4782,1.5071,1.5338,1.5248,1.5018,1.4683,1.4281,1.4024,1.3905,1.4298,1.4675,1.5035,1.542,1.566,0.0,0.0,0.0,0.0,0.0,0.0,0.0,0.0,1.7176,1.7564,1.789,1.8,1.8,1.8,1.8,1.8,1.8,1.8182,1.8502,1.9063,0.0,0.0,0.0,0.0,0.0,0.0,0.0,0.0,0.0,0.0,2.4202,2.4202,2.4202,2.4202,2.4202,2.4202,2.4505,2.5297,2.5398,2.5719,2.6522,2.6605,2.6605,2.6605,2.6605,2.6605,2.6605,2.6605,2.6605,2.6605,2.6605,2.6605,2.6605,2.6605,2.6605,2.6605,2.6605,2.6678,2.6834,2.7096,2.7288,2.7454,2.7858,2.8164,2.8407,2.8553,2.8779,2.8999,2.8999,2.8999,2.8999,2.8999,2.8999,2.8999,0.0,0.0,0.0,0.0,0.0,0.0,0.0,0.0,0.0,0.0,0.0,0.0,0.0,0.0,0.0,0.0,0.0,0.0,0.0,1.0391,1.1253,1.2012,1.2539,1.3032,1.3487,1.3503,1.3888,1.47,1.5446,1.5805,1.5788,1.5523,1.5206,1.4846,1.4572,1.4393,1.4307,1.47,1.4992,1.524,1.5634,1.5805,0.0,0.0,0.0,0.0,0.0,0.0,0.0,0.0,1.7234,1.7699,1.7924,1.8,1.8,1.8,1.8,1.8,1.8,1.8285,1.8713,0.0,0.0,0.0,0.0,0.0,0.0,0.0,0.0,0.0,0.0,0.0,0.0,0.0,2.4202,2.4202,2.4202,2.4309,2.4648,2.5315,2.5508,2.5857,2.6531,2.6605,2.6605,2.6605,2.6605,2.6605,2.6605,2.6605,2.6605,2.6605,2.6605,2.6605,2.6605,2.6605,2.6605,2.6605,2.6605,2.6605,2.6614,2.6894,2.6999,2.7027,2.7435,2.7775,2.8036,2.8164,2.8449,2.8825,2.8953,2.8999,2.8999,2.8999,2.8999,2.8999,0.0,0.0,0.0,0.0,0.0,0.0,0.0,0.0,0.0,0.0,0.0,0.0,0.0,0.0,0.0,0.0,0.0,0.0,0.0,1.1387,1.2033,1.2963,1.3322,1.3503,1.3503,1.3496,1.3905,1.47,1.5446,1.5805,1.5805,1.5805,1.5591,0.0,1.5198,1.5018,1.4734,1.5061,1.5198,1.524,1.5634,1.5805,1.5805,0.0,0.0,0.0,0.0,0.0,0.0,0.0,1.7394,1.8,1.8,1.8,1.8,1.8,1.8,1.8,1.8,1.8295,1.8747,0.0,0.0,0.0,0.0,0.0,0.0,0.0,0.0,0.0,0.0,0.0,0.0,2.4202,2.4202,2.4202,2.4202,2.4557,2.4957,2.5352,2.576,2.615,2.6559,2.6605,2.6605,2.6605,2.6605,2.6605,2.6605,2.6605,2.6605,2.6605,2.6605,2.6605,2.6605,2.6605,2.6605,2.6605,2.6605,2.6605,2.6605,2.6605,2.6605,2.6623,2.7018,2.7197,2.7233,2.7628,2.8041,2.8449,2.8834,2.899,2.8999,2.8999,2.8999,2.8999,0.0,0.0,0.0,0.0,0.0,0.0,0.0,0.0,0.0,0.0,0.0,0.0,0.0,0.0,0.0,0.0,0.0,0.0,0.0,1.1985,1.2716,1.2986,1.3322,1.3503,1.3503,1.3776,1.4186,1.47,1.5446,1.5805,1.5805,1.5805,0.0,1.5198,0.0,1.5138,1.5061,1.5163,1.536,1.5625,1.5754,1.5805,1.5805,0.0,0.0,0.0,0.0,0.0,0.0,0.0,0.0,0.0,1.8,1.8,1.8,1.8,1.8,1.8061,1.8357,1.8654,0.0,0.0,0.0,0.0,0.0,0.0,0.0,0.0,0.0,0.0,0.0,0.0,0.0,2.4202,2.4202,2.4202,2.4202,2.4557,2.4957,2.5352,2.576,2.615,2.6559,2.6605,2.6605,2.6605,2.6605,2.6605,2.6605,2.6605,2.6605,2.6605,2.6605,2.6605,2.6605,2.6605,2.6605,2.6605,2.6605,2.6605,2.6605,2.6605,2.6605,2.6605,2.6724,2.6935,2.7233,2.7628,2.8041,2.8407,2.8526,2.8751,2.8999,2.8999,2.8999,2.8999,0.0,0.0,0.0,0.0,0.0,0.0,0.0,0.0,0.0,0.0,0.858,0.0,0.0,0.0,0.0,0.0,0.0,0.0,0.0,0.0,1.3062,1.3184,1.3391,1.3503,1.3503,1.3888,1.4221,1.4461,1.5206,1.5642,1.5805,1.5805,1.5668,1.5437,0.0,1.5437,1.5437,1.5437,1.5574,1.5805,1.5805,1.5805,1.5805,0.0,0.0,0.0,0.0,0.0,0.0,0.0,0.0,0.0,1.8,1.8,1.8,1.8,1.8,1.8087,1.8485,1.8896,0.0,0.0,0.0,0.0,0.0,0.0,0.0,0.0,0.0,0.0,0.0,2.4202,0.0,2.4202,2.4202,2.4202,2.4202,2.4557,2.4957,2.5352,2.576,2.615,2.6559,2.6605,2.6605,2.6605,2.6605,2.6605,2.6605,2.6605,2.6605,2.6605,2.6605,2.6605,2.6605,2.6605,2.6605,2.6605,2.6605,2.6605,2.6605,2.6605,2.6605,2.6605,2.6605,2.6733,2.699,2.7399,2.7696,2.7962,2.8284,2.8559,2.8779,2.8935,2.8999,2.8999,0.0,0.0,0.9445,0.8961,0.0,0.0,0.0,0.0,0.0,0.0,0.8869,0.9053,0.0,0.0,0.0,0.0,0.0,0.0,1.2952,1.3027,1.3176,1.3486,1.3503,1.3503,1.3503,1.3862,1.4059,1.4093,1.4838,1.5386,0.0,0.0,1.5805,1.5805,0.0,1.5805,1.5805,1.5805,1.5805,1.5805,1.5805,1.5805,1.5796,1.5831,0.0,0.0,0.0,0.0,0.0,0.0,0.0,0.0,1.8,1.8,1.8,1.8,1.802,1.8126,1.8559,0.0,0.0,2.0407,2.1345,0.0,2.3346,0.0,2.4202,2.4202,0.0,2.4202,2.4202,2.4202,2.4202,2.4202,2.4202,2.4202,2.4202,2.4557,2.4939,2.5297,2.5732,2.6141,2.6504,2.6577,2.6605,2.6605,2.6605,2.6605,2.6605,2.6605,2.6605,2.6605,2.6605,2.6605,2.6605,2.6605,2.6605,2.6605,2.6605,2.6605,2.6605,2.6605,2.6605,2.6605,2.6605,2.6605,2.6632,2.699,2.7169,2.7288,2.8054,2.8361,2.8443,2.8852,2.8999,2.8999,0.0,0.0,0.9568,0.9451,0.0,0.0,0.0,0.0,0.0,0.0,0.0,0.0,0.0,0.0,0.0,0.0,0.0,0.0,1.2948,1.3244,1.3418,1.3495,1.3503,1.3503,1.3503,1.358,1.3777,1.4093,1.4838,0.0,0.0,0.0,0.0,1.5805,0.0,1.5805,1.5805,1.5805,1.5805,1.5805,1.5805,1.5805,1.5831,1.6096,1.6268,0.0,0.0,0.0,0.0,0.0,0.0,0.0,1.8,1.8,1.8,1.8,1.8151,1.846,1.9137,1.9667,0.0,0.0,2.1964,2.2939,2.384,2.4125,2.4202,2.4202,2.4202,2.4202,2.4202,2.4202,2.4202,2.4202,2.4202,2.4202,2.4202,2.4557,2.4825,2.4929,2.5554,2.6035,2.6127,2.6403,2.6605,2.6605,2.6605,2.6605,2.6605,2.6605,2.6605,2.6605,2.6605,2.6605,2.6605,2.6605,2.6605,0.0,2.6605,2.6605,2.6605,2.6605,2.6605,2.6605,2.6605,2.6605,2.6605,2.6696,2.6917,2.7252,2.7738,2.8118,2.8443,2.8852,2.8999,2.8999,0.0,0.0,0.0,0.0,0.0,0.0,0.0,0.0,0.0,0.0,0.0,0.0,0.0,0.0,0.0,0.0,1.2281,1.2696,1.3212,1.34,1.3503,1.3503,1.3503,1.3503,1.3503,1.3503,1.3651,1.3959,0.0,0.0,0.0,0.0,0.0,1.5805,0.0,1.5805,1.5805,1.5805,1.5805,1.5805,1.5967,1.6062,1.6123,1.6464,1.6721,1.6973,1.7358,0.0,0.0,0.0,0.0,0.0,0.0,0.0,1.8,1.8,1.8191,1.8558,1.9296,0.0,0.0,2.1799,0.0,2.3135,2.4006,2.4202,2.4202,2.4202,2.4202,2.4202,2.4202,2.4202,2.4202,2.4202,2.4202,2.4202,2.4202,2.4382,2.4581,2.4783,2.5168,2.5585,2.5962,2.6187,2.6385,2.6586,2.6605,2.6605,2.6605,2.6605,2.6605,2.6605,2.6605,2.6605,2.6605,2.6605,2.6605,2.6605,2.6605,2.6605,2.6605,2.6605,2.6605,2.6605,2.6605,2.6605,2.6605,2.6605,2.6724,2.6953,2.7362,2.7766,2.8155,2.8568,2.8834,2.8999,0.0,0.0,0.0,0.0,0.0,0.0,0.0,0.0,0.0,0.0,0.0,0.0,0.0,0.0,1.2357,0.0,0.0,0.0,1.347,1.3503,1.3503,1.3503,1.3503,1.3526,1.3548,1.3548,1.364,0.0,0.0,0.0,0.0,0.0,0.0,1.5885,0.0,1.585,1.585,1.5806,1.584,1.5934,1.619,1.637,1.6518,1.6867,1.7211,0.0,0.0,1.7756,1.8,1.8,0.0,0.0,0.0,0.0,1.8,1.8,1.8191,1.8558,1.9296,0.0,2.0806,2.248,2.2892,0.0,2.4006,2.4202,2.4202,2.4202,2.4202,2.4202,2.4202,2.4202,2.4202,2.4202,2.4202,2.4202,2.4202,2.4202,2.4318,2.4654,2.4764,2.5067,2.5732,2.5861,2.6031,2.6366,2.6458,2.6508,2.6508,2.6559,2.6605,2.6605,2.6605,2.6605,2.6605,2.6605,2.6605,2.6605,2.6605,2.6605,2.6605,2.6605,2.6605,2.6605,2.6605,2.6605,2.6605,2.6605,2.6605,2.6641,2.7036,2.7444,2.7848,2.8256,2.8645,2.8999,0.0,0.0,0.0,0.0,0.0,0.0,0.0,0.0,0.0,0.0,1.076,0.0,0.0,1.1365,1.1529,1.2157,1.2431,1.283,1.3457,0.0,0.0,1.3503,1.3503,1.3579,1.3753,1.3753,1.383,0.0,0.0,0.0,0.0,0.0,0.0,1.6228,0.0,0.0,1.6044,1.5867,1.6003,1.6313,1.631,1.6514,1.6884,0.0,0.0,0.0,0.0,0.0,1.8,1.8,1.8,0.0,0.0,0.0,1.8,1.8,1.8191,1.8558,0.0,0.0,2.1511,0.0,2.2892,2.3135,0.0,0.0,2.4202,0.0,2.4202,2.4202,2.4202,2.4202,2.4202,2.4202,2.4202,2.4202,2.4202,2.4202,2.422,2.4272,2.459,2.4834,2.4957,2.5278,2.5499,2.5554,2.5875,2.6081,2.6081,2.6416,2.6605,2.6605,2.6605,2.6605,2.6605,2.6605,2.6605,2.6605,2.6605,2.6605,2.6605,2.6605,2.6605,2.6605,2.6605,2.6605,2.6605,2.6605,2.6605,2.6641,2.7036,2.7444,2.7848,2.8256,2.8645,2.8999,0.0,0.0,0.0,0.0,0.0,0.0,0.0,0.0,0.0,0.0,0.0,1.1549,1.1853,1.2216,1.256,1.286,1.2986,1.3192,1.348,1.3503,1.3503,1.3503,1.3609,1.3708,1.3799,1.3875,1.3995,0.0,0.0,0.0,0.0,1.5862,1.6132,0.0,0.0,0.0,0.0,0.0,0.0,1.6691,1.6771,1.711,0.0,0.0,0.0,0.0,0.0,0.0,0.0,0.0,1.8121,1.8,1.8,0.0,0.0,0.0,1.8392,0.0,1.9789,2.0724,2.1584,0.0,2.273,2.3059,2.3663,0.0,2.4202,2.4202,2.4202,2.4202,2.4202,2.4202,2.4202,2.4202,2.4202,2.4202,2.4202,2.4202,2.4202,2.4202,2.4355,2.4544,2.477,2.4966,2.5159,2.5379,2.5554,2.5668,2.5668,2.6053,2.626,2.626,2.6476,2.6605,2.6605,2.6605,2.6605,2.6605,2.6605,2.6605,2.6605,2.6605,2.6605,2.6605,2.6605,2.6605,2.6605,2.6605,2.6605,2.6623,2.6797,2.7252,2.7812,2.8004,2.8458,2.8999,0.0,0.0,0.0,0.0,0.0,0.0,0.0,0.0,0.0,0.0,0.0,1.2383,1.2524,0.0,0.0,0.0,1.3503,1.3503,1.3503,1.3548,1.3579,1.3579,1.3746,1.3867,1.3936,1.4034,0.0,0.0,0.0,0.0,1.5854,1.6166,1.6345,0.0,1.6403,0.0,0.0,0.0,0.0,0.0,0.0,1.7759,0.0,0.0,0.0,0.0,0.0,0.0,0.0,0.0,0.0,0.0,0.0,0.0,0.0,0.0,0.0,0.0,0.0,0.0,2.146,2.2135,2.2604,2.3014,0.0,0.0,2.4202,0.0,2.4202,2.4202,2.4202,2.4202,2.4202,2.4202,2.4202,2.4202,2.4202,2.4202,2.4202,2.4202,2.4202,2.4318,2.4617,2.4654,2.4764,2.5071,2.5186,2.5251,2.5251,2.5631,2.5897,2.5998,2.6288,2.6508,2.6605,2.6605,2.6605,2.6605,2.6605,2.6605,2.6605,2.6605,2.6605,2.6605,2.6605,2.6605,2.6605,2.6605,2.6605,2.6605,2.6605,2.7027,2.7656,2.7757,2.8229,2.8862,0.0,0.0,0.0,0.0,0.0,0.0,0.0,0.0,0.0,0.0,0.0,1.3152,1.3659,1.3761,1.3708,1.3526,1.3503,1.3503,1.3503,1.3678,1.3784,1.3784,1.392,0.0,1.4267,0.0,0.0,0.0,0.0,0.0,1.6268,1.6296,1.6507,1.6865,1.6673,1.6577,1.6604,0.0,0.0,0.0,0.0,1.8292,0.0,0.0,0.0,0.0,0.0,0.0,0.0,0.0,0.0,0.0,0.0,0.0,0.0,0.0,0.0,0.0,0.0,2.0617,0.0,2.209,2.2604,0.0,0.0,0.0,2.4202,2.4202,2.4202,2.4202,2.4202,2.4202,2.4202,2.4202,2.4202,2.4202,2.4202,2.4202,2.4202,2.4202,2.4202,2.4211,2.4238,2.4238,2.4248,2.4266,2.4617,2.4825,2.4825,2.5214,2.5613,2.5989,2.6017,2.6215,2.6596,2.6605,2.6605,2.6605,2.6605,2.6605,2.6605,2.6605,2.6605,2.6605,2.6605,2.6605,2.6605,2.6605,2.6605,2.6605,2.6605,2.6852,2.7279,2.7656,2.8069,2.8495,0.0,0.0,0.0,0.0,0.0,0.0,0.0,0.0,0.0,0.0,0.0,0.0,0.0,1.3882,1.3897,1.3828,1.3821,1.3821,1.3821,1.389,1.3927,1.3927,1.4101,1.423,1.4297,0.0,0.0,0.0,0.0,1.6021,1.6305,1.6561,1.6762,1.69,1.6821,1.694,1.7178,1.7252,0.0,0.0,1.8285,1.8611,0.0,0.0,0.0,0.0,0.0,0.0,0.0,0.0,0.0,0.0,0.0,0.0,0.0,0.0,0.0,0.0,0.0,0.0,0.0,2.1802,2.241,2.295,2.3087,2.3675,2.4202,2.4202,2.4202,2.4202,2.4202,2.4202,2.4202,2.4202,2.4202,2.4202,2.4202,2.4202,2.4202,2.4202,2.4202,2.4202,2.4202,2.4202,2.4202,2.4202,2.4327,2.4419,2.4419,2.4792,2.5086,2.5223,2.5732,2.6187,2.6596,2.6605,2.6605,2.6605,2.6605,2.6605,2.6605,2.6605,2.6605,2.6605,2.6605,2.6605,2.6605,2.6605,2.6605,2.6605,2.6605,2.6843,2.7252,2.7646,2.8045,2.8452,0.0,0.0,0.0,0.0,0.0,0.0,0.0,0.0,0.0,0.0,0.0,0.0,0.0,0.0,1.4071,1.401,1.4002,1.4002,1.4002,1.4055,1.4101,1.4101,1.4275,1.4428,1.4572,0.0,0.0,0.0,0.0,0.0,0.0,0.0,1.6964,1.7101,1.7101,0.0,0.0,0.0,0.0,1.8695,0.0,1.8935,1.9272,0.0,0.0,0.0,0.0,0.0,0.0,0.0,0.0,0.0,0.0,0.0,0.0,0.0,0.0,0.0,2.0612,0.0,0.0,0.0,2.2199,2.273,2.2865,2.3449,2.4012,2.4174,2.4202,2.4202,2.4202,2.4202,2.4202,2.4202,2.4202,2.4202,2.4202,2.4202,2.4202,2.4202,2.4202,2.4202,2.4202,2.4202,2.4202,2.4202,2.4202,0.0,2.4202,2.4443,2.4663,2.4801,2.5572,2.6136,2.6398,2.6531,2.6605,2.6605,2.6605,2.6605,2.6605,2.6605,2.6605,2.6605,2.6605,2.6605,2.6605,2.6605,2.6605,2.6605,2.6605,2.6843,2.7252,2.7646,2.8045,2.8452,0.0,0.0,0.0,0.0,0.0,0.0,0.0,0.0,0.0,0.0,0.0,0.0,0.0,0.0,0.0,1.4025,1.401,1.401,1.401,1.4216,1.4315,1.4315,1.446,1.4718,1.5111,0.0,0.0,0.0,0.0,0.0,0.0,0.0,1.7128,0.0,1.7523,1.7541,1.7596,0.0,1.8705,1.8751,0.0,1.9301,1.9301,0.0,0.0,0.0,1.9329,1.9218,0.0,0.0,0.0,0.0,0.0,0.0,0.0,0.0,0.0,0.0,0.0,0.0,0.0,0.0,0.0,0.0,2.2782,2.3197,2.3633,2.4088,2.4192,2.4202,2.4202,2.4202,2.4202,2.4202,2.4202,2.4202,2.4202,2.4202,2.4202,2.4202,2.4202,2.4202,2.4202,2.4202,2.4202,2.4202,2.4202,2.4202,2.4202,2.4202,2.4382,2.4792,2.5567,2.598,2.5998,2.6389,2.6596,2.6605,2.6605,2.6605,2.6605,2.6605,2.6605,2.6605,2.6605,2.6605,2.6605,2.6605,2.6605,2.6605,2.6605,2.6843,2.7252,2.7646,2.8045,2.8452,0.0,0.0,0.0,0.0,0.0,0.0,0.0,0.0,0.0,0.0,0.0,0.0,0.0,0.0,1.4426,1.4372,1.4357,1.4357,1.4357,1.469,1.4883,1.4883,1.5189,1.5422,1.5532,0.0,0.0,0.0,0.0,0.0,0.0,0.0,0.0,0.0,1.8119,1.8375,1.8384,1.8604,0.0,0.0,1.9256,1.9301,0.0,0.0,0.0,0.0,0.0,2.013,2.0098,0.0,2.0056,2.0015,0.0,0.0,0.0,0.0,0.0,0.0,2.105,0.0,0.0,0.0,0.0,0.0,2.2439,2.3007,2.3538,2.3672,2.3963,2.4202,2.4202,2.4202,2.4202,2.4202,2.4202,2.4202,2.4202,2.4202,2.4202,2.4202,2.4202,2.4202,2.4202,2.4202,2.4202,0.0,2.4202,2.4202,2.4202,2.4202,2.4382,2.4792,2.5021,2.5407,2.5989,2.6118,2.6315,2.6605,2.6605,2.6605,2.6605,2.6605,2.6605,2.6605,2.6605,2.6605,2.6605,2.6605,2.6605,2.6605,2.6605,2.6843,2.7252,2.7646,2.8045,2.8452,0.0,0.0,1.45,1.45,0.0,0.0,1.45,0.0,0.0,0.0,0.0,0.0,0.0,0.0,0.0,1.4744,1.4746,1.4819,1.4992,1.5221,1.5349,1.5349,1.5568,1.5779,1.5945,0.0,0.0,0.0,0.0,0.0,0.0,0.0,0.0,0.0,0.0,0.0,0.0,0.0,0.0,0.0,1.9484,0.0,0.0,1.9996,2.0142,0.0,0.0,0.0,2.05,2.05,2.05,0.0,0.0,0.0,0.0,0.0,0.0,0.0,0.0,0.0,0.0,0.0,0.0,0.0,2.2268,2.2787,2.3297,2.3474,2.3868,2.4202,2.4202,2.4202,2.4202,2.4202,2.4202,2.4202,2.4202,2.4202,2.4202,2.4202,2.4202,2.4202,2.4202,2.4202,2.4202,2.4202,2.4202,2.4202,2.4202,2.4202,2.4312,2.4535,2.4709,2.5113,2.575,2.5916,2.6196,2.6605,2.6605,2.6605,2.6605,2.6605,2.6605,2.6605,2.6605,2.6605,2.6605,2.6605,2.6605,2.6605,2.6605,2.6944,2.7481,2.7711,2.816,2.8687,0.0,0.0,1.45,1.45,1.45,1.45,0.0,0.0,0.0,0.0,0.0,0.0,0.0,0.0,0.0,0.0,1.5174,1.5321,1.5686,1.5743,1.5793,1.589,1.5943,1.6147,1.6493,1.6182,0.0,0.0,0.0,0.0,0.0,0.0,0.0,0.0,1.8751,1.8962,0.0,0.0,0.0,1.9392,1.9758,1.9931,0.0,0.0,2.0575,0.0,2.0619,2.0637,2.0637,2.0637,2.0637,0.0,0.0,0.0,0.0,0.0,2.1161,0.0,0.0,0.0,0.0,0.0,0.0,0.0,2.2147,2.2538,2.2931,2.3288,2.3767,2.4125,2.4125,2.4152,2.4202,2.4202,2.4202,2.4202,2.4202,2.4202,2.4202,2.4202,2.4202,2.4202,2.4202,2.4202,2.4202,2.4202,2.4202,2.4202,2.4202,2.4202,2.4202,2.4202,2.4557,2.4948,2.5401,2.5746,2.615,2.6605,2.6605,2.6605,2.6605,2.6605,2.6605,2.6605,2.6605,2.6605,2.6605,2.6605,2.6605,2.6605,2.6605,2.7082,2.7793,2.7793,2.8316,2.8999,1.45,1.45,1.45,1.45,1.45,1.45,1.45,0.0,0.0,0.0,0.0,0.0,0.0,0.0,0.0,0.0,1.5587,1.5614,1.5688,1.6001,1.6449,1.7038,1.7478,1.7752,1.7826,1.7914,0.0,0.0,0.0,0.0,0.0,0.0,0.0,0.0,1.9045,1.9228,0.0,0.0,0.0,1.9795,1.9867,0.0,2.0427,2.0831,2.0987,2.1024,2.1341,2.1469,2.1469,0.0,2.1469,2.1469,0.0,0.0,0.0,0.0,0.0,0.0,0.0,0.0,0.0,0.0,0.0,0.0,2.1799,2.2128,2.2442,2.2524,2.312,2.3633,2.3633,2.3944,2.4202,2.4202,2.4202,2.4202,2.4202,2.4202,2.4202,2.4202,2.4202,2.4202,2.4202,2.4202,2.4202,2.4202,2.4202,2.4202,2.4202,2.4202,2.4202,2.4202,2.4284,2.4667,2.5388,2.5484,2.5884,2.6605,2.6605,2.6605,2.6605,2.6605,2.6605,2.6605,2.6605,2.6605,2.6605,2.6605,2.6605,2.6605,2.6605,2.7082,2.7793,2.7793,2.8316,2.8999,1.45,1.45,1.45,1.45,1.45,1.45,1.45,0.0,0.0,0.0,0.0,0.0,0.0,0.0,0.0,0.0,0.0,0.0,0.0,1.6789,1.7133,1.7683,1.8025,1.8193,1.8207,1.8593,1.86,0.0,0.0,0.0,0.0,0.0,0.0,0.0,0.0,0.0,0.0,0.0,2.0024,2.0225,2.0418,0.0,2.084,2.1253,2.1398,2.1425,2.1634,2.1707,2.1707,2.1707,2.1707,0.0,0.0,2.1707,2.1707,0.0,2.1707,2.1707,0.0,0.0,0.0,2.1707,0.0,0.0,0.0,2.2009,2.2304,2.2304,2.2778,2.3261,2.3453,2.3688,2.3926,2.4152,2.4202,2.4202,2.4202,2.4202,2.4202,2.4202,2.4202,2.4202,2.4202,2.4202,2.4202,2.4202,2.4202,2.4202,2.4202,2.4202,2.4202,2.4202,2.4202,2.4483,2.5095,2.5297,2.57,2.6306,2.6504,2.6605,2.6605,2.6605,2.6605,2.6605,2.6605,2.6605,2.6605,2.6605,2.6605,2.6605,2.6605,2.7082,2.7793,2.7793,2.8316,2.8999,1.4595,1.4595,1.4595,1.4595,1.4595,1.4608,1.4653,1.4931,0.0,0.0,0.0,0.0,0.0,0.0,0.0,0.0,0.0,0.0,0.0,0.0,1.8152,1.8567,1.8849,1.901,1.9032,1.9533,1.9735,1.9617,0.0,0.0,0.0,0.0,0.0,0.0,0.0,0.0,0.0,0.0,0.0,2.0647,0.0,2.1216,2.1253,2.1581,2.1707,2.1716,2.1789,2.1817,2.1835,2.1897,0.0,2.1925,2.1925,2.1925,0.0,0.0,0.0,0.0,0.0,0.0,0.0,0.0,0.0,2.1707,0.0,0.0,0.0,0.0,0.0,0.0,0.0,0.0,0.0,2.4002,0.0,0.0,0.0,2.4143,0.0,2.4202,2.4202,2.4202,2.4202,2.4202,2.4202,2.4202,2.4202,2.4202,2.4202,2.4202,2.4202,2.4202,2.4202,2.4391,2.4801,2.5196,2.559,2.6008,2.6416,2.6605,2.6605,2.6605,2.6605,2.6605,2.6605,2.6605,2.6605,2.6605,2.6605,2.6605,2.6687,2.7169,2.7802,2.7885,2.8381,2.8999,1.4941,1.4941,1.4941,1.4941,1.4941,1.4997,1.5182,1.5252,0.0,0.0,0.0,0.0,0.0,0.0,0.0,0.0,0.0,0.0,1.8561,0.0,0.0,2.0635,2.1464,2.1955,2.2012,2.2199,2.1922,2.1144,0.0,0.0,0.0,0.0,0.0,0.0,1.9949,0.0,0.0,0.0,2.0987,0.0,2.1471,2.1634,0.0,2.1678,2.1707,2.1753,2.2101,2.2229,2.2295,0.0,2.2755,2.2755,0.0,2.2755,2.2693,0.0,0.0,0.0,0.0,0.0,0.0,0.0,2.1707,0.0,0.0,0.0,2.1771,2.1771,0.0,0.0,0.0,0.0,0.0,0.0,0.0,0.0,2.3642,2.3935,2.4202,2.4202,2.4202,2.4202,2.4202,2.4202,2.4202,2.4202,2.4202,2.4202,2.4202,2.4202,2.4202,2.4202,2.4202,2.4391,2.4801,2.5196,2.559,2.6008,2.6416,2.6605,2.6605,2.6605,2.6605,2.6605,2.6605,2.6605,2.6605,2.6605,2.6605,2.6632,2.699,2.7408,2.7839,2.8201,2.8623,2.8999,1.5124,1.4992,1.5068,1.5305,1.5353,1.5465,1.577,0.0,0.0,0.0,0.0,0.0,0.0,0.0,0.0,0.0,0.0,2.1154,0.0,0.0,0.0,2.2121,2.2315,2.2434,2.25,2.2903,2.2716,2.1922,2.1901,0.0,0.0,0.0,0.0,0.0,2.0066,0.0,1.996,0.0,2.1238,0.0,0.0,0.0,0.0,2.2046,2.2181,2.2419,2.2584,2.2648,2.2675,0.0,2.2892,0.0,0.0,0.0,0.0,0.0,0.0,0.0,0.0,0.0,0.0,0.0,0.0,0.0,2.24,0.0,2.24,0.0,0.0,0.0,0.0,0.0,0.0,0.0,2.4067,0.0,0.0,0.0,2.4202,0.0,0.0,0.0,2.4202,2.4202,2.4202,2.4202,2.4202,2.4202,2.4202,2.4202,2.4202,2.4202,2.4202,2.4272,2.4456,2.5076,2.548,2.5668,2.6306,2.6605,2.6605,2.6605,2.6605,2.6605,2.6605,2.6605,2.6605,2.6605,2.6605,2.6669,2.7298,2.7646,2.7848,2.8256,2.8645,2.8999,1.6198,0.0,0.0,0.0,0.0,1.6439,1.7135,0.0,0.0,0.0,0.0,0.0,2.0342,2.15,0.0,0.0,0.0,2.2744,0.0,0.0,2.2823,2.37,2.3661,0.0,0.0,2.3918,2.381,2.3124,2.2882,0.0,0.0,0.0,0.0,0.0,0.0,2.0628,2.0487,0.0,0.0,2.1428,2.2021,2.2458,2.2718,2.2527,2.265,2.291,2.302,2.3057,2.3087,2.3209,2.3257,0.0,2.3257,0.0,0.0,0.0,0.0,0.0,2.2931,0.0,0.0,0.0,0.0,0.0,0.0,0.0,0.0,0.0,0.0,0.0,0.0,0.0,0.0,0.0,0.0,2.4165,0.0,2.4116,0.0,0.0,0.0,0.0,0.0,2.4202,2.4202,2.4202,0.0,2.4202,2.4202,2.4202,2.4202,2.4202,2.4202,2.4202,2.4202,2.4997,2.5398,2.5407,2.6224,2.6605,2.6605,2.6605,2.6605,2.6605,2.6605,2.6605,2.6605,2.6605,2.6669,2.6834,2.7527,2.7915,2.8105,2.8441,2.881,2.9118,1.8685,1.758,0.0,0.0,0.0,0.0,0.0,0.0,0.0,0.0,0.0,0.0,0.0,0.0,0.0,0.0,0.0,2.2288,2.3121,0.0,2.4707,2.5582,2.6344,2.6509,0.0,0.0,2.5748,2.5196,0.0,0.0,0.0,0.0,0.0,0.0,0.0,2.199,2.1763,2.2188,2.2246,2.2104,2.2516,2.3145,2.3777,0.0,2.2883,2.2959,2.3343,0.0,0.0,2.4012,2.4165,0.0,0.0,0.0,0.0,0.0,0.0,0.0,0.0,0.0,0.0,2.2892,0.0,0.0,0.0,0.0,2.2892,0.0,0.0,0.0,0.0,0.0,0.0,0.0,0.0,0.0,0.0,0.0,0.0,0.0,0.0,0.0,0.0,2.4202,2.4202,0.0,2.4202,2.4202,2.4202,2.4202,2.4202,2.4202,2.4202,2.4202,2.4202,2.4997,2.5398,2.5407,2.6224,2.6605,2.6605,2.6605,2.6605,2.6605,2.6605,2.6605,2.6605,2.6605,2.6825,2.7224,2.7637,2.8204,2.8795,2.8928,2.9189,2.9435,1.9655,0.0,0.0,0.0,0.0,0.0,0.0,2.2882,0.0,0.0,0.0,0.0,0.0,2.4857,2.5433,0.0,0.0,2.5858,2.6153,2.6107,0.0,0.0,0.0,2.6823,0.0,0.0,0.0,0.0,0.0,0.0,0.0,0.0,0.0,0.0,0.0,2.205,0.0,0.0,0.0,0.0,0.0,2.3928,2.4139,0.0,0.0,2.4244,2.4384,2.4309,0.0,2.4356,2.4313,2.4202,2.4202,2.4202,2.4174,2.4012,2.3963,0.0,0.0,0.0,2.3761,2.3761,0.0,0.0,0.0,0.0,0.0,0.0,0.0,0.0,0.0,0.0,0.0,0.0,0.0,0.0,0.0,0.0,0.0,0.0,0.0,0.0,0.0,0.0,0.0,0.0,2.4202,0.0,2.4202,2.4202,2.4202,2.4202,2.4202,2.4202,2.4202,2.4997,2.5398,2.5407,2.6224,2.6605,2.6605,2.6605,2.6605,2.6605,2.6605,2.6605,2.6605,2.6605,2.6834,2.7256,2.7835,2.8371,2.8843,2.9203,2.9509,2.9715,2.0848,0.0,0.0,0.0,0.0,0.0,0.0,0.0,0.0,0.0,2.6267,0.0,2.5144,0.0,2.7106,0.0,2.6993,2.7719,2.8044,2.7581,0.0,2.824,2.7757,0.0,0.0,0.0,0.0,0.0,0.0,2.4979,0.0,0.0,0.0,0.0,0.0,2.2421,2.23,0.0,2.3178,0.0,0.0,2.4521,0.0,0.0,2.4777,2.476,0.0,2.46,2.439,2.439,2.4313,2.4202,2.4202,2.4202,2.4202,2.4202,2.4202,2.4202,2.4202,2.4202,0.0,2.4202,2.4202,0.0,2.4202,0.0,0.0,0.0,0.0,0.0,0.0,0.0,0.0,2.4202,2.4202,0.0,0.0,2.4202,0.0,0.0,0.0,0.0,0.0,0.0,2.4202,2.4202,2.4202,2.4202,0.0,0.0,2.4202,2.4202,2.4202,2.4202,2.4202,2.4997,2.5398,2.5407,2.6224,2.6605,2.6605,2.6605,2.6605,2.6605,2.6605,2.6605,2.6605,2.6605,2.6917,2.7473,2.7999,2.8607,2.9223,2.9524,2.9745,2.9878,2.2277,2.2694,0.0,0.0,2.1732,0.0,0.0,0.0,2.625,0.0,2.7225,2.7648,2.7274,2.7761,2.8093,2.8051,2.7725,0.0,2.8719,2.8357,0.0,0.0,2.8835,2.8308,2.7794,0.0,0.0,0.0,0.0,0.0,0.0,0.0,0.0,0.0,2.2981,0.0,2.316,2.3613,2.3673,2.3565,2.4416,2.497,2.5355,2.5599,2.5223,2.4541,2.4554,2.4427,2.4251,2.4251,2.4251,2.4226,2.4226,2.4226,2.4226,2.4214,2.4214,2.4226,2.4202,2.4202,2.4214,2.4202,0.0,0.0,0.0,0.0,2.4226,0.0,0.0,0.0,0.0,0.0,0.0,0.0,0.0,0.0,0.0,0.0,0.0,0.0,0.0,0.0,0.0,0.0,2.4202,2.4202,2.4202,2.4202,0.0,0.0,2.4202,2.4202,2.4202,2.4202,2.4202,2.4997,2.5398,2.5407,2.6224,2.6605,2.6605,2.6605,2.6605,2.6605,2.6605,2.6605,2.6605,2.6623,2.7096,2.785,2.8148,2.8943,2.9946,2.9946,2.9946,2.9946,2.3388,2.3497,2.3669,0.0,2.4338,2.4917,0.0,0.0,0.0,0.0,2.8263,2.8607,2.787,2.8849,2.9281,2.8588,2.9057,0.0,0.0,0.0,0.0,2.9881,2.9376,2.9027,2.8885,2.85,0.0,2.8094,0.0,0.0,2.5449,0.0,0.0,0.0,0.0,0.0,2.3633,2.3751,2.4128,2.4715,2.5234,2.5514,0.0,0.0,2.5452,2.5125,2.5321,2.5223,2.5015,2.5015,2.4892,2.4723,2.4723,2.4723,2.4674,2.4477,2.4563,2.4646,2.4288,2.4313,2.439,2.4239,2.4313,2.4427,0.0,0.0,0.0,0.0,0.0,0.0,0.0,0.0,0.0,0.0,0.0,0.0,0.0,0.0,0.0,2.4202,0.0,0.0,0.0,2.4202,2.4202,2.4202,2.4202,2.4202,2.4202,0.0,0.0,2.4202,2.4202,2.4202,2.4202,2.4997,2.5398,2.5407,2.6224,2.6605,2.6605,2.6605,2.6605,2.6605,2.6605,2.6605,2.6623,2.6917,2.7465,2.8157,2.8775,2.9675,3.0631,3.0631,3.0631,3.0616,2.3806,2.415,0.0,2.5823,0.0,0.0,2.6745,2.7515,0.0,2.8368,2.9136,0.0,2.8971,2.9824,3.0241,2.9714,3.0359,0.0,3.0792,0.0,0.0,3.0456,2.994,2.9641,2.9641,2.9352,0.0,2.8849,0.0,0.0,2.6412,0.0,0.0,0.0,0.0,2.5031,0.0,2.4362,2.4748,2.5381,2.561,0.0,0.0,2.5706,2.5611,2.5489,2.5657,2.5443,2.5125,2.5125,2.5017,2.4895,2.4895,2.4895,2.487,2.4723,2.4698,2.4686,2.456,2.4449,2.439,2.4486,2.4501,2.4529,2.4649,2.4797,2.4895,0.0,0.0,0.0,0.0,0.0,0.0,0.0,0.0,0.0,0.0,0.0,0.0,0.0,2.4202,0.0,0.0,2.4202,2.4202,2.4202,2.4202,2.4202,2.4202,0.0,0.0,2.4202,2.4202,2.4202,2.4202,2.4997,2.5398,2.5407,2.6224,2.6605,2.6605,2.6605,2.6605,2.6605,2.6605,2.6605,2.6646,2.7156,2.7702,2.8313,2.9369,3.0238,3.0903,3.0903,3.0903,3.0845,2.4207,0.0,0.0,0.0,0.0,0.0,0.0,2.8356,0.0,2.9328,0.0,3.0204,3.0204,3.0684,3.0997,3.0997,0.0,3.1694,3.1694,3.1261,3.0997,3.0997,3.0492,3.0204,3.0204,3.0143,0.0,0.0,0.0,0.0,0.0,0.0,0.0,0.0,0.0,0.0,0.0,2.5204,2.5381,2.5706,2.5706,2.5706,2.5706,2.5706,2.5706,2.5706,2.5706,2.5403,2.4993,2.4993,2.4993,2.4993,2.4993,2.4993,2.4993,2.4956,2.4809,2.4689,2.4858,2.4634,2.4436,2.4809,2.4747,2.4674,2.4895,2.4981,2.4993,2.4993,2.4993,2.4993,0.0,0.0,0.0,0.0,0.0,0.0,0.0,0.0,0.0,0.0,0.0,0.0,0.0,2.4202,2.4202,2.4202,2.4202,2.4202,2.4202,0.0,0.0,2.4202,2.4202,2.4202,2.4202,0.0,2.5398,2.5407,2.6224,2.6605,2.6605,2.6605,2.6605,2.6605,2.6605,2.6605,2.666,2.7382,2.8001,2.8609,2.9958,3.0635,3.0903,3.0903,3.0903,3.0859,0.0,0.0,0.0,0.0,0.0,2.8657,2.9544,2.9376,2.9352,2.9892,3.0431,3.0756,3.0756,3.1237,3.1562,3.1562,3.1657,0.0,0.0,0.0,0.0,3.1562,3.1056,3.0756,3.0756,3.0335,3.0048,0.0,0.0,0.0,0.0,0.0,0.0,0.0,0.0,0.0,2.6297,2.5811,0.0,2.5706,2.5706,2.5706,2.5706,2.5706,2.5706,2.5706,2.5706,2.5635,2.5562,2.5562,2.5562,2.5562,2.5562,2.5562,2.5525,2.5284,2.5345,2.5403,2.5015,2.4993,2.5076,2.4932,2.503,2.5174,2.5223,2.5403,2.5562,2.5562,2.5562,2.5489,2.5272,0.0,0.0,0.0,0.0,0.0,0.0,0.0,0.0,0.0,0.0,2.4202,0.0,0.0,2.4202,2.4202,2.4202,2.4202,2.4202,0.0,0.0,0.0,2.4202,0.0,0.0,0.0,2.5398,2.5407,2.6224,2.6605,2.6605,2.6605,2.6605,2.6605,2.6605,2.6605,2.6687,2.7684,2.8856,3.0064,3.0602,3.0845,3.0903,3.0903,3.0903,3.0889,0.0,0.0,0.0,0.0,0.0,0.0,0.0,3.0299,0.0,3.0469,3.0973,3.131,3.131,3.1549,3.1694,3.1694,3.1694,3.1694,3.1694,3.1694,3.1694,3.1694,3.1453,0.0,3.131,3.1057,3.0792,3.0505,0.0,0.0,0.0,0.0,0.0,0.0,0.0,2.7564,0.0,0.0,0.0,2.5745,2.6272,2.6173,2.5706,2.5706,2.5706,2.5769,2.6296,2.6149,2.5706,2.5706,2.5706,2.5706,2.5706,2.5706,2.5672,2.555,2.5501,2.5465,2.5355,2.5211,2.5125,2.5284,2.5318,2.5333,2.5477,2.5611,2.5706,2.5706,2.5706,2.5659,2.5538,2.5284,0.0,0.0,0.0,0.0,0.0,0.0,0.0,0.0,0.0,0.0,0.0,0.0,0.0,0.0,0.0,2.4202,2.4202,0.0,2.4202,0.0,0.0,0.0,0.0,0.0,0.0,2.5407,2.6224,2.6605,2.6605,2.6605,2.6605,2.6605,2.6605,2.6724,2.7013,2.8257,2.9522,3.0689,3.0845,3.0903,3.0903,3.0903,3.0903,3.0903,0.0,2.9608,0.0,0.0,3.0608,0.0,3.1082,3.1102,3.108,3.108,3.1441,3.1694,3.1694,3.1694,3.1694,3.1694,3.1694,3.1694,3.1694,3.1694,3.1694,3.1694,3.1694,3.1694,3.1694,3.1694,3.1489,0.0,0.0,0.0,0.0,0.0,0.0,0.0,0.0,0.0,0.0,0.0,2.6733,2.6088,2.6878,2.6721,2.604,2.6257,2.6344,2.644,2.7235,2.702,2.6296,2.6088,2.588,2.5732,2.5953,2.5868,2.5706,2.5706,2.555,2.543,2.5635,2.5382,2.5174,2.5586,2.5538,2.544,2.5647,2.5706,2.5706,2.5706,2.5706,2.5672,2.5623,2.5489,0.0,0.0,0.0,0.0,0.0,0.0,0.0,0.0,0.0,0.0,2.4202,0.0,0.0,0.0,0.0,2.4202,2.4202,2.4202,2.4202,0.0,0.0,2.4202,2.4202,0.0,2.5398,2.5407,2.6277,2.665,2.6605,2.665,2.665,2.6605,2.6605,2.694,2.7628,2.8875,2.9993,3.0903,3.0903,3.0903,3.0903,3.0903,3.0903,3.0903,0.0,0.0,0.0,0.0,0.0,0.0,3.1813,3.1744,3.1622,3.1622,3.167,3.1694,3.1694,3.1694,3.1694,3.1694,3.1694,3.1694,3.1694,3.1694,3.1694,3.1694,3.1694,3.1694,3.1694,3.1694,3.167,0.0,0.0,0.0,0.0,0.0,0.0,0.0,0.0,0.0,0.0,2.7981,2.7154,2.7069,2.7166,2.7142,2.7154,2.8063,2.8413,2.8425,2.8529,2.8506,2.8273,2.7367,2.6454,2.5856,2.6769,2.643,2.5706,2.5706,2.5672,2.5669,2.5684,2.5659,2.5635,2.5693,2.5672,2.5669,2.5684,2.5706,2.5706,2.5706,2.5706,2.5623,2.5369,2.5525,2.5574,0.0,0.0,0.0,0.0,0.0,0.0,0.0,0.0,0.0,0.0,2.4202,2.4202,0.0,2.4202,2.4202,2.4202,2.4202,2.4202,2.4202,0.0,2.4202,2.4202,2.4997,2.5398,2.5407,2.646,2.6836,2.6618,2.6849,2.6831,2.6605,2.6605,2.7345,2.8615,2.9417,3.0214,3.0903,3.0903,3.0903,3.0903,3.0903,3.0903,3.0903,0.0,0.0,0.0,0.0,0.0,0.0,0.0,3.2169,3.2125,3.2125,3.1871,3.1694,3.1694,3.1694,3.1694,3.1694,3.1694,3.1694,3.1694,3.1694,3.1694,3.1694,3.1694,3.1694,3.1694,3.1694,3.1694,0.0,0.0,0.0,0.0,0.0,0.0,0.0,0.0,2.9863,2.9292,2.9085,2.8657,2.8146,2.8762,2.8646,2.8145,2.8553,2.8704,2.8785,2.9384,2.9212,2.8819,2.9635,2.8425,2.6564,2.6358,2.6016,2.5706,2.5706,2.5706,2.5706,2.5706,2.5706,2.5706,2.5706,2.5706,2.5706,2.5706,2.5706,2.5706,2.5706,2.5706,2.5669,2.5562,2.5623,2.5659,0.0,0.0,0.0,0.0,0.0,0.0,0.0,0.0,0.0,0.0,2.4276,2.4202,2.4202,0.0,2.4202,2.4202,2.4202,2.4202,2.4202,0.0,2.4321,2.4553,2.5113,2.5517,2.5769,2.6432,2.6705,2.6605,2.6718,2.6705,2.6637,2.729,2.7991,2.8776,2.9762,3.0451,3.0903,3.0903,3.0903,3.0903,3.0903,3.0903,3.0903,3.2214,0.0,3.282,0.0,3.2743,3.2658,3.2519,3.2431,3.24,3.24,3.2114,3.1882,3.1805,3.1794,3.1761,3.1717,3.1694,3.1694,3.1694,3.1694,3.1694,3.1694,3.1694,0.0,3.1694,3.1694,3.1694,3.1694,3.1694,0.0,0.0,0.0,0.0,0.0,3.0633,3.0249,2.9601,3.0011,2.9795,2.92,2.9909,2.9772,2.9177,2.9475,2.9578,2.9681,3.0396,3.0181,2.9749,3.088,2.9841,2.7957,2.7246,2.6815,2.6574,2.6574,2.6574,2.6574,2.6574,2.6368,2.6211,2.6502,2.6137,2.5781,2.6064,2.5917,2.5706,2.5706,2.5706,2.5706,2.5706,2.5706,2.5706,2.5706,0.0,0.0,0.0,0.0,0.0,0.0,2.4661,2.4477,2.4427,2.4279,2.4202,0.0,0.0,2.4202,2.4202,2.4202,0.0,0.0,0.0,0.0,0.0,2.5196,2.559,2.6008,2.6488,2.6677,2.6605,2.6605,2.6669,2.6843,2.7893,2.8554,2.8956,3.0094,3.0689,3.0903,3.0903,3.0903,3.0903,3.0903,3.0903,3.0903,3.309,3.309,3.3102,3.3102,3.2874,3.27,3.27,3.254,3.24,3.24,3.24,3.229,3.2027,3.2005,3.1928,3.1716,3.1694,3.1694,3.1694,3.1694,3.1694,0.0,0.0,3.1694,3.1694,3.1694,3.1694,3.1694,0.0,0.0,3.0901,0.0,3.119,3.1683,3.1683,3.1672,3.1606,3.0621,3.0192,3.0181,3.0204,3.0192,3.0294,3.1294,3.1661,3.1672,3.1672,3.1672,3.1516,3.0543,3.0192,3.0159,3.0159,2.9452,2.8657,2.8657,2.8657,2.8657,2.8657,2.7946,2.7416,2.8425,2.7174,2.5965,2.6962,2.6406,2.5706,2.5706,2.5706,2.5706,2.5706,2.5706,2.5706,2.5706,0.0,0.0,0.0,0.0,0.0,0.0,2.4661,2.4427,2.4226,2.4202,0.0,0.0,0.0,0.0,0.0,0.0,0.0,2.4202,2.4202,0.0,2.4801,2.5196,2.559,2.6008,2.6686,2.6849,2.6605,2.6605,2.6816,2.7252,2.8267,2.8928,2.9378,3.0446,3.0903,3.0903,3.0903,3.0903,3.0903,3.0903,3.0903,3.0903,3.3102,3.3102,3.3102,3.3102,3.3025,3.2961,3.2961,3.2919,3.2876,3.2876,3.2876,3.2779,3.2506,3.2343,3.2246,0.0,3.2003,3.1904,0.0,3.1783,3.1694,3.1694,3.1694,3.1694,3.1694,3.1694,3.1694,3.1694,0.0,0.0,0.0,3.1441,3.1537,3.1694,3.1694,3.1694,3.1683,3.1361,3.1215,3.1215,3.1215,3.1215,3.126,3.1583,3.1694,3.1694,3.1694,3.1694,3.165,3.1327,3.1465,3.1774,3.1774,3.0354,2.8704,2.8704,2.8704,2.8704,2.8704,2.8471,2.8297,2.8622,2.8226,2.7651,2.7284,2.6418,2.5706,2.5706,2.5706,2.5706,2.5706,2.5706,2.5706,2.5706,2.5706,0.0,0.0,0.0,0.0,0.0,2.5211,2.4953,2.4698,2.4514,0.0,0.0,0.0,0.0,0.0,0.0,0.0,0.0,2.4474,0.0,2.5205,2.5613,2.6003,2.6416,2.6626,2.6677,2.6605,2.6605,2.6816,2.7252,2.8253,2.8928,2.9378,3.0471,3.0903,3.0903,3.0903,3.0903,3.0903,3.0903,3.0903,3.0903,3.3102,3.3102,3.3102,3.3102,3.3102,3.3102,3.3102,3.3102,3.3102,3.3102,3.3102,3.3049,3.2874,3.292,0.0,3.2434,3.2158,3.2005,3.2005,3.1816,3.1694,3.1694,3.1694,3.1694,3.1694,3.1694,0.0,3.1694,3.1694,3.1694,3.1694,3.1694,3.1694,3.1694,3.1694,3.1694,3.1694,3.1694,3.1694,3.1694,3.1694,3.1694,3.1694,3.1694,3.1826,3.1996,3.1996,3.2128,3.2297,3.2297,3.2514,3.2803,3.2803,3.1714,3.0431,3.0431,3.0431,3.0386,3.0181,2.9848,2.9607,2.9783,2.897,2.7864,2.6877,2.6149,2.5706,2.5706,2.5706,2.5706,2.5706,2.5706,2.5706,2.5706,2.5706,2.5706,2.5706,0.0,0.0,0.0,0.0,0.0,0.0,2.4661,2.4443,0.0,0.0,0.0,0.0,0.0,0.0,2.4202,2.459,0.0,2.5401,2.5805,2.625,2.675,2.675,2.6705,2.6605,2.6761,2.7091,2.7636,2.8521,2.9236,2.9775,3.0573,3.0903,3.0903,3.0903,3.0903,3.0903,3.0903,3.0903,3.0903,3.3102,3.3102,3.3102,0.0,3.3102,0.0,3.3102,3.3102,3.3102,3.3102,3.3128,3.3153,3.3153,3.3621,3.3583,3.2635,0.0,0.0,0.0,3.19,3.1754,3.1754,3.1718,3.1694,3.1694,3.1694,3.1694,3.1694,3.1694,3.1694,3.1694,3.1694,3.1694,3.1694,3.1694,3.1694,3.1694,3.1694,3.1718,3.1754,3.1754,3.1778,3.1814,3.1814,3.2116,3.2563,3.2563,3.2887,3.3296,3.3296,3.332,3.3356,3.3356,3.3368,3.3392,3.332,3.3296,3.3187,3.2695,3.1864,3.1263,3.17,2.9611,2.7194,2.6147,2.5844,2.5781,2.5708,2.5706,2.5706,2.5706,2.5706,2.5706,2.5706,2.5706,2.5706,2.5706,0.0,0.0,0.0,0.0,0.0,0.0,2.4664,2.4504,0.0,0.0,0.0,0.0,0.0,2.4248,2.4248,2.4627,2.5027,2.5434,2.5842,2.6349,2.6976,2.6976,2.6854,2.6651,2.7027,2.7576,2.8285,2.8988,2.9718,3.0436,3.0762,3.0903,3.0903,3.0903,3.0903,3.0903,3.0903,3.0903,3.0903,0.0,0.0,3.3102,3.3102,3.3102,3.3102,3.3102,3.3102,3.3102,3.3102,3.3456,3.372,3.372,3.4187,3.4407,3.4181,3.3764,3.3539,3.3539,3.2764,3.2309,3.2309,3.1912,3.1694,3.1694,3.1694,3.1694,3.1694,3.1694,3.1694,3.1694,3.1694,3.1694,3.1694,3.1694,3.1694,3.1694,3.1694,3.1947,3.2309,3.2309,3.2562,3.2922,3.2922,3.2995,3.3115,3.3115,3.3188,3.3296,3.3296,3.3549,3.3838,3.3838,3.4114,3.4282,3.3536,3.3296,3.3272,3.3151,3.2941,3.2778,3.2889,3.1507,2.9724,2.8312,2.7391,2.6636,2.5856,2.5706,2.5706,2.5706,2.5706,2.5706,2.5706,2.5706,2.5706,2.5706,2.5706,0.0,0.0,2.5611,2.5428,2.4953,2.4833,2.4661,0.0,0.0,0.0,0.0,2.4492,2.4663,2.4663,2.5049,2.5443,2.5851,2.626,2.6545,2.6691,2.6691,2.682,2.7054,2.716,2.7733,2.8671,2.9101,2.9718,3.0436,3.0762,3.0903,3.0903,3.0903,3.0903,3.0903,3.0903,3.0903,3.0903,3.3102,3.3102,3.3178,3.3418,3.3468,3.3544,3.3796,3.3822,3.3822,3.3822,3.4074,3.4262,3.4262,3.4729,3.5068,3.5068,3.4524,3.4136,3.401,3.3375,3.2966,3.2875,3.2597,3.2429,3.2429,3.2429,3.2309,3.2068,3.1826,3.1694,3.1706,3.1948,3.2068,3.208,3.2321,3.2429,3.2429,3.2429,3.2609,3.2863,3.2863,3.3032,3.3296,3.3296,3.3428,3.3621,3.3621,3.3777,3.3994,3.3994,3.415,3.4366,3.4366,3.4559,3.4691,3.415,3.3994,3.3934,3.3693,3.3621,3.3455,3.2783,3.1972,3.0958,2.9421,2.8298,2.7339,2.6554,2.6026,2.5706,2.5706,2.5706,2.5706,2.5706,2.5706,2.5706,2.5706,2.5706,0.0,2.5706,2.5706,2.5586,2.5284,2.5149,2.4919,2.456,2.4725,0.0,2.4486,2.4971,2.5122,2.481,2.5361,2.5787,2.5998,2.652,2.6718,2.6605,2.6718,2.6921,2.7215,2.7389,2.803,2.9051,2.9414,2.9976,3.0635,3.083,3.0903,3.0903,3.0903,3.0903,3.0903,3.0903,3.0903,3.0903,3.3341,3.3341,3.3481,3.3935,3.4022,3.4162,3.4628,3.4703,3.4703,3.4703,3.4778,3.4828,3.4828,3.5306,3.5632,3.5632,3.5058,3.459,3.4325,3.3986,3.3694,3.3532,3.3402,3.3354,3.3354,3.3319,3.3079,3.2623,3.2164,3.1947,3.1947,3.2406,3.2623,3.2647,3.3103,3.3296,3.3296,3.3296,3.3344,3.3416,3.3416,3.3452,3.3536,3.3536,3.3777,3.4126,3.4126,3.4414,3.4799,3.4799,3.4799,3.4799,3.4799,3.4799,3.4799,3.4799,3.4799,3.4691,3.4246,3.4126,3.3804,3.2474,3.2132,3.1732,3.0201,2.9184,2.8344,2.7575,2.6679,2.6001,2.584,2.5745,2.5706,2.5706,2.5706,2.5706,2.5706,0.0,2.5706,2.5706,2.5706,2.5672,2.5635,2.5498,2.5294,2.5036,2.5387,2.543,2.4978,2.5511,2.5567,2.4994,2.5636,2.6026,2.609,2.666,2.6831,2.6605,2.6887,2.7128,2.7307,2.7711,2.845,2.9406,2.9746,3.0284,3.0903,3.0903,3.0903,3.0903,3.0903,3.0903,3.0903,3.0903,3.0903,3.0903,3.4451,3.4451,3.4488,3.4552,3.4589,3.4603,3.469,3.4703,3.4703,3.4703,3.5093,3.5381,3.5381,3.5906,3.6256,3.6256,3.6157,3.5978,3.5707,3.5015,3.4593,3.4569,3.3908,3.355,3.355,3.3389,3.326,3.3175,3.3091,3.3043,3.3055,3.3139,3.3175,3.3187,3.326,3.3296,3.3296,3.3296,3.3525,3.3886,3.3886,3.4162,3.4571,3.4571,3.4607,3.4679,3.4679,3.4739,3.4799,3.4799,3.4799,3.4799,3.4799,3.4799,3.4799,3.4799,3.4799,3.4775,3.4703,3.4679,3.451,3.3827,3.366,3.3268,3.178,3.132,3.0676,2.8777,2.7985,2.737,2.6465,2.5974,2.5706,2.5706,2.5706,2.5706,2.5706,0.0,2.5706,2.5706,2.5706,2.5611,2.5369,2.5672,2.5784,2.5509,2.5656,2.5733,2.5651,2.5853,2.5919,2.5815,2.5934,2.6159,2.6504,2.6609,2.6636,2.6605,2.699,2.7358,2.772,2.8118,2.8858,2.9812,2.9864,3.0284,3.0903,3.0903,3.0903,3.0903,3.0903,3.0903,3.0903,3.0903,3.0903,3.0903,3.4703,3.4703,3.4791,3.508,3.5131,3.5242,3.5566,3.5616,3.5616,3.5616,3.583,3.5981,3.5981,3.623,3.6393,3.6393,3.6393,3.6358,3.6216,3.5731,3.5382,3.524,3.4876,3.4612,3.4458,3.4085,3.3822,3.3681,3.3416,3.3296,3.3308,3.3561,3.3681,3.3693,3.3982,3.4114,3.4114,3.4114,3.4234,3.4426,3.4426,3.4583,3.4799,3.4799,3.4799,3.4799,3.4799,3.4799,3.4799,3.4799,3.4799,3.4799,3.4799,3.4799,3.4799,3.4799,3.4799,3.4799,3.4799,3.4799,3.4739,3.4486,3.4426,3.4174,3.3208,3.259,3.1873,3.0588,2.9263,2.8167,2.7679,2.6931,2.6323,2.6111,2.6072,0.0,0.0,2.5706,2.5784,2.6052,2.6072,2.611,2.6209,2.6413,2.6377,2.5939,2.6315,2.6431,2.6139,2.6522,2.675,2.675,2.6464,2.6416,2.6605,2.6605,2.6706,2.6926,2.71,2.7598,2.834,2.8534,2.9175,3.0172,3.0172,3.0445,3.0903,3.0903,3.0903,3.0903,3.0903,3.0903,3.0903,3.0903,3.0903,3.0903,3.5102,3.5102,3.5229,3.5644,3.5707,3.5869,3.633,3.6393,3.6393,3.6393,3.6393,3.6393,3.6393,3.6393,3.6393,3.6393,3.6393,3.6393,3.6393,3.6204,3.6003,3.5788,3.5728,3.5536,3.5211,3.4798,3.4449,3.4186,3.3825,3.3645,3.3657,3.4018,3.4186,3.4198,3.4619,3.4799,3.4799,3.4799,3.4799,3.4799,3.4799,3.4799,3.4799,3.4799,3.4799,3.4799,3.4799,3.4799,3.4799,3.4799,3.4799,3.4799,3.4799,3.4799,3.4799,3.4799,3.4799,3.4799,3.4799,3.4799,3.4799,3.4799,3.4799,3.4691,3.4282,3.3634,3.2924,3.2265,3.0531,2.9059,2.8819,2.7801,2.6892,2.6592,0.0,0.0,0.0,2.5998,2.6137,2.6494,2.6533,2.666,2.697,2.7097,2.6991,2.6582,2.7043,2.7177,2.6772,2.7158,2.7368,2.731,2.6913,2.6664,2.6605,2.6696,2.6889,2.7206,2.7445,2.7992,2.8811,2.8986,2.9551,3.0397,3.0397,3.0592,3.0903,3.0903,3.0903,3.0903,3.0903,3.0903,3.0903,3.0903,3.0903,3.0903,3.6267,3.6267,3.6292,3.633,3.633,3.6355,3.6393,3.6393,3.6393,3.6393,3.6393,3.6393,3.6393,3.6393,3.6393,3.6393,3.6393,3.6393,3.6393,3.6381,3.6358,3.6334,3.6098,3.5728,3.5211,3.5162,3.5017,3.4739,3.4715,3.4691,3.4691,3.4727,3.4739,3.4739,3.4775,3.4799,3.4799,3.4799,3.4799,3.4799,3.4799,3.4799,3.4799,3.4799,3.4799,3.4799,3.4799,3.4799,3.4799,3.4799,3.4799,3.4799,3.4799,3.4799,3.4799,3.4799,3.4799,3.4799,3.4799,3.4799,3.4799,3.4799,3.4799,3.4799,3.4751,3.469,3.4338,3.3308,3.1829,3.0425,2.9426,2.8025,2.6989,2.696,0.0,0.0,2.6911,2.6898,2.6921,2.695,2.696,2.697,2.6999,2.7396,2.763,2.7591,2.7746,2.7831,2.7791,2.7538,2.7296,2.7043,2.6989,2.6849,2.6605,2.6963,2.7164,2.7215,2.8207,2.8717,2.882,2.9504,3.0026,3.0397,3.0397,3.0592,3.0903,3.0903,3.0903,3.0903,3.0903,3.0903,3.0903,3.0903,3.0903,3.0903,3.6393,3.6393,3.6393,3.6393,3.6393,3.6393,3.6393,3.6393,3.6393,3.6393,3.6393,3.6393,3.6393,3.6393,3.6393,3.6393,3.6393,3.6393,3.6393,3.6393,3.6393,3.6393,3.6299,3.5991,3.5452,3.544,3.5235,3.4799,3.4799,3.4799,3.4799,3.4799,3.4799,3.4799,3.4799,3.4799,3.4799,3.4799,3.4799,3.4799,3.4799,3.4799,3.4799,3.4799,3.4799,3.4799,3.4799,3.4799,3.4799,3.4799,3.4799,3.4799,3.4799,3.4799,3.4799,3.4799,3.4799,3.4799,3.4799,3.4799,3.4799,3.4799,3.4799,3.4799,3.4799,3.4799,3.4677,3.4286,3.32,3.2194,3.1793,3.0119,2.8725,2.8477,0.0,2.7337,2.7038,2.6999,2.7119,2.7405,2.7425,2.7532,2.7783,2.7972,2.8275,2.8785,2.8254,2.8182,2.8857,2.8298,2.7856,2.7636,2.7623,2.7413,2.6986,2.7118,2.7538,2.8197,2.8604,2.9145,2.9802,3.0081,3.0401,3.0704,3.0704,3.0777,3.0903,3.0903,3.0903,3.0903,3.0903,3.0903,3.0903,3.0903,3.0903,3.1005,3.6393,3.6393,3.6393,3.6393,3.6393,3.6393,3.6393,3.6393,3.6393,3.6393,3.6393,3.6393,3.6393,3.6393,3.6393,3.6393,3.6393,3.6393,3.6393,3.6393,3.6393,3.6393,3.6323,3.6062,3.5608,3.5524,3.5247,3.4799,3.4799,3.4799,3.4799,3.4799,3.4799,3.4799,3.4799,3.4799,3.4799,3.4799,3.4799,3.4799,3.4799,3.4799,3.4799,3.4799,3.4799,3.4799,3.4799,3.4799,3.4799,3.4799,3.4799,3.4799,3.4799,3.4799,3.4799,3.4799,3.4799,3.4799,3.4799,3.4799,3.4799,3.4799,3.4799,3.4799,3.4799,3.4799,3.4799,3.4799,3.3955,3.3201,3.3201,3.1679,3.0337,3.007,2.9399,2.8804,2.849,2.8436,2.8561,2.8888,2.8919,2.9027,2.9306,2.9336,2.9576,3.0123,2.9144,2.8704,2.9095,2.8536,2.8189,2.8162,2.8101,2.7996,2.7869,2.7756,2.8062,2.8796,2.9145,2.9696,3.0397,3.0509,3.0689,3.0903,3.0903,3.0903,3.0903,3.0903,3.0903,3.0903,3.0903,3.1136,3.1421,3.1034,3.1363,3.208,3.6393,3.6393,3.6393,3.6393,3.6393,3.6393,3.6393,3.6393,3.6393,3.6393,3.6393,3.6393,3.6393,3.6393,3.6393,3.6393,3.6393,3.6393,3.6393,3.6393,3.6393,3.6393,3.6146,3.5872,3.5608,3.5332,3.5066,3.4799,3.4799,3.4799,3.4799,3.4799,3.4799,3.4799,3.4799,3.4799,3.4799,3.4799,3.4799,3.4799,3.4799,3.4799,3.4799,3.4799,3.4811,3.4811,3.4811,3.4811,3.4811,3.4811,3.4811,3.4811,3.4811,3.4811,3.4811,3.4811,3.4799,3.4799,3.4799,3.4799,3.4799,3.4799,3.4799,3.4799,3.4799,3.4799,3.4799,3.4799,3.3955,3.3213,3.3213,3.2336,3.1613,3.1613,3.1611,3.16,3.16,3.16,3.16,3.16,3.16,3.16,3.16,3.16,3.16,3.16,3.0546,2.9444,2.8371,2.812,2.8167,2.8503,2.8319,2.8558,2.9307,2.897,2.8811,2.8834,2.9889,3.0397,3.0411,3.0747,3.0903,3.0903,3.0903,3.0903,3.0903,3.0903,3.0903,3.0903,3.0903,3.1653,3.2567,3.1373,3.2389,3.4238,3.6393,3.6393,3.6393,3.6393,3.6393,3.6393,3.6393,3.6393,3.6393,3.6393,3.6393,3.6393,3.6393,3.6393,3.6393,3.6393,3.6393,3.6393,3.6393,3.6393,3.6393,3.6393,3.6146,3.5872,3.5608,3.5332,3.5066,3.4799,3.4799,3.4799,3.4799,3.4799,3.4799,3.4799,3.4799,3.4799,3.4799,3.4799,3.4799,3.4799,3.4799,3.4799,3.4847,3.522,3.5352,3.5412,3.5785,3.5917,3.5917,3.5917,3.5917,3.5917,3.5917,3.5665,3.5352,3.5352,3.5087,3.4799,3.4799,3.4799,3.4799,3.4799,3.4799,3.4799,3.4799,3.4799,3.4799,3.4799,3.4555,3.4323,3.4323,3.3448,3.2714,3.2714,3.2096,3.16,3.16,3.16,3.16,3.16,3.16,3.16,3.16,3.16,3.16,3.16,3.0852,3.0249,2.9926,2.9409,2.9204,2.941,2.935,2.9445,2.9723,2.9342,2.9415,2.9937,3.0251,3.0523,3.0747,3.0845,3.0903,3.0903,3.0903,3.0903,3.0903,3.0903,3.0903,3.0976,3.1831,3.2381,3.2756,3.319,3.379,3.4475,3.6886,3.6651,3.6393,3.6393,3.6393,3.6393,3.6393,3.6393,3.6393,3.6393,3.6393,3.6393,3.6393,3.6393,3.6393,3.6393,3.6393,3.6393,3.6393,3.6393,3.6393,3.6393,3.6146,3.5872,3.5608,3.5332,3.5066,3.4799,3.4799,3.4799,3.4799,3.4799,3.4919,3.5123,3.5123,3.5232,3.5424,3.5424,3.5424,3.5424,3.5424,3.5424,3.546,3.5797,3.5917,3.5953,3.6278,3.6411,3.6411,3.6411,3.6411,3.6411,3.6411,3.6182,3.5917,3.5917,3.5689,3.5424,3.5424,3.528,3.5123,3.5123,3.4967,3.4799,3.4799,3.4799,3.4799,3.4799,3.4799,3.4799,3.4799,3.4262,3.3832,3.3832,3.3288,3.2876,3.2876,3.2876,3.2876,3.2876,3.2876,3.2876,3.2876,3.2876,3.2779,3.2565,3.2374,3.208,3.1652,3.0825,3.0447,3.0659,3.0266,3.0127,3.0284,3.0054,3.0088,3.0397,3.0523,3.0704,3.0903,3.0903,3.0903,3.0903,3.0903,3.0903,3.0903,3.0903,3.1185,3.1682,3.2424,3.3272,3.4109,3.4322,3.5149,3.6186,3.7648,3.7106,3.6499,3.6405,3.6393,3.6393,3.6393,3.6393,3.6393,3.6393,3.6393,3.6393,3.6393,3.6393,3.6393,3.6393,3.6393,3.6393,3.6393,3.6393,3.6393,3.6393,3.6207,3.5982,3.5706,3.5368,3.5102,3.4908,3.4883,3.4895,3.4943,3.4943,3.5195,3.5677,3.5677,3.5941,3.6411,3.6411,3.6411,3.6411,3.6411,3.6411,3.6411,3.6446,3.6471,3.6483,3.6531,3.6543,3.6543,3.6543,3.6543,3.6543,3.6543,3.6519,3.6471,3.6471,3.6447,3.6411,3.6411,3.6037,3.5677,3.5677,3.5304,3.4919,3.4823,3.4799,3.4799,3.4799,3.4799,3.4799,3.4799,3.4799,3.4799,3.4799,3.4799,3.4799,3.4799,3.4799,3.4799,3.4799,3.4799,3.4823,3.4871,3.4822,3.4643,3.4247,3.4525,3.433,3.3444,3.2265,3.1747,3.2054,3.1015,3.0592,3.0903,3.0903,3.0747,3.045,3.0747,3.0903,3.0903,3.0903,3.0903,3.0913,3.102,3.1054,3.1078,3.117,3.186,3.287,3.2974,3.4351,3.615,3.5152,3.6525,3.8711,3.7898,3.7636,3.7257,3.6535,3.6393,3.6393,3.6393,3.6393,3.6393,3.6393,3.6393,3.6393,3.6393,3.6393,3.6393,3.6393,3.6393,3.6393,3.6393,3.6393,3.6393,3.6393,3.6749,3.6805,3.6551,3.566,3.5381,3.5732,3.5535,3.5641,3.6049,3.6049,3.6122,3.623,3.623,3.629,3.6411,3.6411,3.6411,3.6411,3.6411,3.6411,3.6459,3.6867,3.7037,3.7072,3.7506,3.765,3.765,3.765,3.765,3.765,3.765,3.736,3.7037,3.7037,3.6723,3.6411,3.6411,3.6326,3.623,3.623,3.6146,3.5833,3.4991,3.4799,3.4799,3.4799,3.4799,3.4799,3.4799,3.4799,3.4799,3.4799,3.4799,3.4799,3.4799,3.4799,3.4799,3.4799,3.4799,3.4967,3.5388,3.5044,3.5096,3.5826,3.4715,3.428,3.4882,3.333,3.2463,3.2558,3.1405,3.083,3.0903,3.0903,3.0859,3.0791,3.0874,3.0903,3.0903,3.0903,3.0903,3.0947,3.1903,3.2309,3.2381,3.3275,3.38,3.4137,3.5068,3.6005,3.6911,3.7594,3.8523,3.9309,3.9066,3.8407,3.7648,3.7152,3.6698,3.6393,3.6393,3.6393,3.6393,3.6393,3.6393,3.6393,3.6393,3.6393,3.6393,3.6393,3.6393,3.6393,3.6393,3.6644,3.6783,3.6783,3.7299,3.7514,3.7379,3.6567,3.6234,3.6377,3.624,3.6247,3.6411,3.6411,3.6543,3.6783,3.6783,3.6916,3.7156,3.7156,3.7156,3.7156,3.7156,3.7156,3.718,3.747,3.7578,3.7614,3.7891,3.7999,3.7999,3.7999,3.7999,3.7999,3.7999,3.7807,3.7578,3.7578,3.7386,3.7156,3.7156,3.6976,3.6783,3.6783,3.6591,3.6254,3.5689,3.5364,3.5183,3.5183,3.4979,3.4799,3.4799,3.4799,3.4799,3.4799,3.4799,3.4895,3.5147,3.5183,3.528,3.5532,3.5568,3.5677,3.5953,3.5961,3.6179,3.6745,3.618,3.6048,3.6618,3.5199,3.4109,3.353,3.2371,3.1479,3.0913,3.0903,3.0903,3.0903,3.0903,3.0903,3.0903,3.0903,3.0903,3.0962,3.218,3.2699,3.2785,3.3941,3.4885,3.5706,3.634,3.7254,3.8327,3.8943,3.9511,3.9872,4.0335,3.9219,3.799,3.7831,3.7013,3.6393,3.6393,3.6393,3.6393,3.6393,3.6393,3.6393,3.6393,3.6393,3.6393,3.6393,3.6481,3.6544,3.6544,3.7047,3.7336,3.7336,3.7852,3.8153,3.8153,3.7754,3.7376,3.7012,3.6912,3.6795,3.6675,3.6675,3.6904,3.7337,3.7337,3.7578,3.7999,3.7999,3.7999,3.7999,3.7999,3.7999,3.7999,3.7999,3.7999,3.7999,3.7999,3.7999,3.7999,3.7999,3.7999,3.7999,3.7999,3.7999,3.7999,3.7999,3.7999,3.7999,3.7999,3.7674,3.7337,3.7337,3.7,3.6675,3.6675,3.6194,3.5737,3.5737,3.5376,3.5075,3.5075,3.5075,3.5075,3.5075,3.5075,3.5232,3.5677,3.5737,3.5905,3.635,3.6483,3.6543,3.6543,3.7024,3.7337,3.7337,3.7746,3.7999,3.7999,3.6652,3.5427,3.4433,3.3091,3.1903,3.0903,3.0903,3.0903,3.0903,3.0903,3.0903,3.0903,3.0903,3.102,3.1272,3.2471,3.3158,3.3529,3.4676,3.6065,3.7447,3.7447,3.8382,3.9753,3.9838,4.015,4.0384,4.071,3.9735,3.8742,3.7946,3.7013,3.6393,3.6393,3.6393,3.6393,3.6393,3.6393,3.6393,3.6393,3.6393,3.6393,3.6393,3.6821,3.7097,3.7097,3.7588,3.7889,3.7889,3.8454,3.8781,3.8781,3.8939,3.8631,3.7842,3.7368,3.7351,3.7782,3.7782,3.7819,3.7891,3.7891,3.7927,3.7999,3.7999,3.7999,3.7999,3.7999,3.7999,3.7999,3.7999,3.7999,3.7999,3.7999,3.7999,3.7999,3.7999,3.7999,3.7999,3.7999,3.7999,3.7999,3.7999,3.7999,3.7999,3.7999,3.7952,3.7891,3.7891,3.7843,3.7782,3.7782,3.7,3.629,3.629,3.623,3.6181,3.6181,3.6181,3.6181,3.6181,3.6181,3.6205,3.6278,3.629,3.6326,3.6398,3.6807,3.7084,3.7084,3.7578,3.7891,3.7891,3.7951,3.7999,3.7999,3.5868,3.4572,3.4405,3.2285,3.1078,3.0903,3.0903,3.0903,3.0903,3.0903,3.0903,3.0903,3.0903,3.1465,3.2514,3.3674,3.5023,3.6511,3.7708,3.8625,3.9254,3.9254,3.9674,4.0343,4.08,4.103,4.0748,4.1416,4.023,3.9077,3.8642,3.7371,3.6393,3.6393,3.6393,3.6393,3.6393,3.6393,3.6393,3.6393,3.6393,3.6519,3.6821,3.706,3.7324,3.7638,3.8178,3.8504,3.8504,3.9044,3.9346,3.9346,3.9133,3.8834,3.8445,3.8056,3.7915,3.7999,3.7999,3.7999,3.7999,3.7999,3.7999,3.7999,3.7999,3.7999,3.7999,3.7999,3.7999,3.7999,3.7999,3.7999,3.7999,3.7999,3.7999,3.7999,3.7999,3.7999,3.7999,3.7999,3.7999,3.7999,3.7999,3.7999,3.7999,3.7999,3.7999,3.7999,3.7999,3.7999,3.7999,3.7999,3.7626,3.7217,3.6904,3.6615,3.6411,3.6411,3.6411,3.6411,3.6411,3.6411,3.6507,3.6807,3.6843,3.6952,3.7265,3.7506,3.765,3.765,3.7855,3.7999,3.7999,3.7999,3.7999,3.7999,3.6989,3.5799,3.4447,3.4053,3.2917,3.0918,3.1566,3.1566,3.0903,3.1581,3.1552,3.0918,3.161,3.2195,3.2824,3.4938,3.63,3.7123,3.8636,3.9559,4.0054,4.0054,4.0367,4.0874,4.1114,4.1199,4.0829]}]]